[[{"header":{"parameterUnit":"m.s-1","parameterCategory":1,"la1":30.6,"la2":28.766,"lo1":-90.7593,"lo2":-88.6598,"dy":0.0162,"dx":0.0183,"nx":116,"ny":114,"refTime":"2023-06-05T18:00:00:Z","depth":0,"parameterNumber":2,"parameterNumberName":"U-component_of_WINDS"},"data":[0.0,0.0,0.0,0.0,0.0,0.0,0.0,0.0,0.0,0.0,0.0,0.0,0.0,0.0,0.0,0.0,0.0,0.0,0.0,0.0,0.0,0.0,0.0,0.0,0.0,0.0,0.0,0.0,0.0,0.0,0.0,0.0,0.0,0.0,0.0,0.0,0.0,0.0,0.0,0.0,0.0,0.0,0.0,0.0,0.0,0.0,0.0,0.0,0.0,0.0,0.0,0.0,0.0,0.0,0.0,0.0,0.0,0.0,0.0,0.0,0.0,0.0,0.0,0.0,0.0,0.0,0.0,0.0,0.0,0.0,0.0,0.0,0.0,0.0,0.0,0.0,0.0,0.0,0.0,0.0,0.0,0.0,0.0,0.0,0.0,0.0,0.0,0.0,0.0,0.0,0.0,0.0,0.0,0.0,0.0,0.0,0.0,0.0,0.0,0.0,0.0,0.0,0.0,0.0,0.0,0.0,0.0,0.0,0.0,0.0,0.0,0.0,0.0,0.0,0.0,0.0,0.0,0.0,0.0,0.0,0.0,0.0,0.0,0.0,0.0,0.0,0.0,0.0,0.0,0.0,0.0,0.0,0.0,0.0,0.0,0.0,0.0,0.0,0.0,0.0,0.0,0.0,0.0,0.0,0.0,0.0,0.0,0.0,0.0,0.0,0.0,0.0,0.0,0.0,0.0,0.0,0.0,0.0,0.0,0.0,0.0,0.0,0.0,0.0,0.0,0.0,0.0,0.0,0.0,0.0,0.0,0.0,0.0,0.0,0.0,0.0,0.0,0.0,0.0,0.0,0.0,0.0,0.0,0.0,0.0,0.0,0.0,0.0,0.0,0.0,0.0,0.0,0.0,0.0,0.0,0.0,0.0,0.0,0.0,0.0,0.0,0.0,0.0,0.0,0.0,0.0,0.0,0.0,0.0,0.0,0.0,0.0,0.0,0.0,0.0,0.0,0.0,0.0,0.0,0.0,0.0,0.0,0.0,0.0,0.0,0.0,0.0,0.0,0.0,0.0,0.0,0.0,0.0,0.0,0.0,0.0,0.0,0.0,0.0,0.0,0.0,0.0,0.0,0.0,0.0,0.0,0.0,0.0,0.0,0.0,0.0,0.0,0.0,0.0,0.0,0.0,0.0,0.0,0.0,0.0,0.0,0.0,0.0,0.0,0.0,0.0,0.0,0.0,0.0,0.0,0.0,0.0,0.0,0.0,0.0,0.0,0.0,0.0,0.0,0.0,0.0,0.0,0.0,0.0,0.0,0.0,0.0,0.0,0.0,0.0,0.0,0.0,0.0,0.0,0.0,0.0,0.0,0.0,0.0,0.0,0.0,0.0,0.0,0.0,0.0,0.0,0.0,0.0,0.0,0.0,0.0,0.0,0.0,0.0,0.0,0.0,0.0,0.0,0.0,0.0,0.0,0.0,0.0,0.0,0.0,0.0,0.0,0.0,0.0,0.0,0.0,0.0,0.0,0.0,0.0,0.0,0.0,0.0,0.0,0.0,0.0,0.0,0.0,0.0,0.0,0.0,0.0,0.0,0.0,0.0,0.0,0.0,0.0,0.0,0.0,0.0,0.0,0.0,0.0,0.0,0.0,0.0,0.0,0.0,0.0,0.0,0.0,0.0,0.0,0.0,0.0,0.0,0.0,0.0,0.0,0.0,0.0,0.0,0.0,0.0,0.0,0.0,0.0,0.0,0.0,0.0,0.0,0.0,0.0,0.0,0.0,0.0,0.0,0.0,0.0,0.0,0.0,0.0,0.0,0.0,0.0,0.0,0.0,0.0,0.0,0.0,0.0,0.0,0.0,0.0,0.0,0.0,0.0,0.0,0.0,0.0,0.0,0.0,0.0,0.0,0.0,0.0,0.0,0.0,0.0,0.0,0.0,0.0,0.0,0.0,0.0,0.0,0.0,0.0,0.0,0.0,0.0,0.0,0.0,0.0,0.0,0.0,0.0,0.0,0.0,0.0,0.0,0.0,0.0,0.0,0.0,0.0,0.0,0.0,0.0,0.0,0.0,0.0,0.0,0.0,0.0,0.0,0.0,0.0,0.0,0.0,0.0,0.0,0.0,0.0,0.0,0.0,0.0,0.0,0.0,0.0,0.0,0.0,0.0,0.0,0.0,0.0,0.0,0.0,0.0,0.0,0.0,0.0,0.0,0.0,0.0,0.0,0.0,0.0,0.0,0.0,0.0,0.0,0.0,0.0,0.0,0.0,0.0,0.0,0.0,0.0,0.0,0.0,0.0,0.0,0.0,0.0,0.0,0.0,0.0,0.0,0.0,0.0,0.0,0.0,0.0,0.0,0.0,0.0,0.0,0.0,0.0,0.0,0.0,0.0,0.0,0.0,0.0,0.0,0.0,0.0,0.0,0.0,0.0,0.0,0.0,0.0,0.0,0.0,0.0,0.0,0.0,0.0,0.0,0.0,0.0,0.0,0.0,0.0,0.0,0.0,0.0,0.0,0.0,0.0,0.0,0.0,0.0,0.0,0.0,0.0,0.0,0.0,0.0,0.0,0.0,0.0,0.0,0.0,0.0,0.0,0.0,0.0,0.0,0.0,0.0,0.0,0.0,0.0,0.0,0.0,0.0,0.0,0.0,0.0,0.0,0.0,0.0,0.0,0.0,0.0,0.0,0.0,0.0,0.0,0.0,0.0,0.0,0.0,0.0,0.0,0.0,0.0,0.0,0.0,0.0,0.0,0.0,0.0,0.0,0.0,0.0,0.0,0.0,0.0,0.0,0.0,0.0,0.0,0.0,0.0,0.0,0.0,0.0,0.0,0.0,0.0,0.0,0.0,0.0,0.0,0.0,0.0,0.0,0.0,0.0,0.0,0.0,0.0,0.0,0.0,0.0,0.0,0.0,0.0,0.0,0.0,0.0,0.0,0.0,0.0,0.0,0.0,0.0,0.0,0.0,0.0,0.0,0.0,0.0,0.0,0.0,0.0,0.0,0.0,0.0,0.0,0.0,0.0,0.0,0.0,0.0,0.0,0.0,0.0,0.0,0.0,0.0,0.0,0.0,0.0,0.0,0.0,0.0,0.0,0.0,0.0,0.0,0.0,0.0,0.0,0.0,0.0,0.0,0.0,0.0,0.0,0.0,0.0,0.0,0.0,0.0,0.0,0.0,0.0,0.0,0.0,0.0,0.0,0.0,0.0,0.0,0.0,0.0,0.0,0.0,0.0,0.0,0.0,0.0,0.0,0.0,0.0,0.0,0.0,0.0,0.0,0.0,0.0,0.0,0.0,0.0,0.0,0.0,0.0,0.0,0.0,0.0,0.0,0.0,0.0,0.0,0.0,0.0,0.0,0.0,0.0,0.0,0.0,0.0,0.0,0.0,0.0,0.0,0.0,0.0,0.0,0.0,0.0,0.0,0.0,0.0,0.0,0.0,0.0,0.0,0.0,0.0,0.0,0.0,0.0,0.0,0.0,0.0,0.0,0.0,0.0,0.0,0.0,0.0,0.0,0.0,0.0,0.0,0.0,0.0,0.0,0.0,0.0,0.0,0.0,0.0,0.0,0.0,0.0,0.0,0.0,0.0,0.0,0.0,0.0,0.0,0.0,0.0,0.0,0.0,0.0,0.0,0.0,0.0,0.0,0.0,0.0,0.0,0.0,0.0,0.0,0.0,0.0,0.0,0.0,0.0,0.0,0.0,0.0,0.0,0.0,0.0,0.0,0.0,0.0,0.0,0.0,0.0,0.0,0.0,0.0,0.0,0.0,0.0,0.0,0.0,0.0,0.0,0.0,0.0,0.0,0.0,0.0,0.0,0.0,0.0,0.0,0.0,0.0,0.0,0.0,0.0,0.0,0.0,0.0,0.0,0.0,0.0,0.0,0.0,0.0,0.0,0.0,0.0,0.0,0.0,0.0,0.0,0.0,0.0,0.0,0.0,0.0,0.0,0.0,0.0,0.0,0.0,0.0,0.0,0.0,0.0,0.0,0.0,0.0,0.0,0.0,0.0,0.0,0.0,0.0,0.0,0.0,0.0,0.0,0.0,0.0,0.0,0.0,0.0,0.0,0.0,0.0,0.0,0.0,0.0,0.0,0.0,0.0,0.0,0.0,0.0,0.0,0.0,0.0,0.0,0.0,0.0,0.0,0.0,0.0,0.0,0.0,0.0,0.0,0.0,0.0,0.0,0.0,0.0,0.0,0.0,0.0,0.0,0.0,0.0,0.0,0.0,0.0,0.0,0.0,0.0,0.0,0.0,0.0,0.0,0.0,0.0,0.0,0.0,0.0,0.0,0.0,0.0,0.0,0.0,0.0,0.0,0.0,0.0,0.0,0.0,0.0,0.0,0.0,0.0,0.0,0.0,0.0,0.0,0.0,0.0,0.0,0.0,0.0,0.0,0.0,0.0,0.0,0.0,0.0,0.0,0.0,0.0,0.0,0.0,0.0,0.0,0.0,0.0,0.0,0.0,0.0,0.0,0.0,0.0,0.0,0.0,0.0,0.0,0.0,0.0,0.0,0.0,0.0,0.0,0.0,0.0,0.0,0.0,0.0,0.0,0.0,0.0,0.0,0.0,0.0,0.0,0.0,0.0,0.0,0.0,0.0,0.0,0.0,0.0,0.0,0.0,0.0,0.0,0.0,0.0,0.0,0.0,0.0,0.0,0.0,0.0,0.0,0.0,0.0,0.0,0.0,0.0,0.0,0.0,0.0,0.0,0.0,0.0,0.0,0.0,0.0,0.0,0.0,0.0,0.0,0.0,0.0,0.0,0.0,0.0,0.0,0.0,0.0,0.0,0.0,0.0,0.0,0.0,0.0,0.0,0.0,0.0,0.0,0.0,0.0,0.0,0.0,0.0,0.0,0.0,0.0,0.0,0.0,0.0,0.0,0.0,0.0,0.0,0.0,0.0,0.0,0.0,0.0,0.0,0.0,0.0,0.0,0.0,0.0,0.0,0.0,0.0,0.0,0.0,0.0,0.0,0.0,0.0,0.0,0.0,0.0,0.0,0.0,0.0,0.0,0.0,0.0,0.0,0.0,0.0,0.0,0.0,0.0,0.0,0.0,0.0,0.0,0.0,0.0,0.0,0.0,0.0,0.0,0.0,0.0,0.0,0.0,0.0,0.0,0.0,0.0,0.0,0.0,0.0,0.0,0.0,0.0,0.0,0.0,0.0,0.0,0.0,0.0,0.0,0.0,0.0,0.0,0.0,0.0,0.0,0.0,0.0,0.0,0.0,0.0,0.0,0.0,0.0,0.0,0.0,0.0,0.0,0.0,0.0,0.0,0.0,0.0,0.0,0.0,0.0,0.0,0.0,0.0,0.0,0.0,0.0,0.0,0.0,0.0,0.0,0.0,0.0,0.0,0.0,0.0,0.0,0.0,0.0,0.0,0.0,0.0,0.0,0.0,0.0,0.0,0.0,0.0,0.0,0.0,0.0,0.0,0.0,0.0,0.0,0.0,0.0,0.0,0.0,0.0,0.0,0.0,0.0,0.0,0.0,0.0,0.0,0.0,0.0,0.0,0.0,0.0,0.0,0.0,0.0,0.0,0.0,0.0,0.0,0.0,0.0,0.0,0.0,0.0,0.0,0.0,0.0,0.0,0.0,0.0,0.0,0.0,0.0,0.0,0.0,0.0,0.0,0.0,0.0,0.0,0.0,0.0,0.0,0.0,0.0,0.0,0.0,0.0,0.0,0.0,0.0,0.0,0.0,0.0,0.0,0.0,0.0,0.0,0.0,0.0,0.0,0.0,0.0,0.0,0.0,0.0,0.0,0.0,0.0,0.0,0.0,0.0,0.0,0.0,0.0,0.0,0.0,0.0,0.0,0.0,0.0,0.0,0.0,0.0,0.0,0.0,0.0,0.0,0.0,0.0,0.0,0.0,0.0,0.0,0.0,0.0,0.0,0.0,0.0,0.0,0.0,0.0,0.0,0.0,0.0,0.0,0.0,0.0,0.0,0.0,0.0,0.0,0.0,0.0,0.0,0.0,0.0,0.0,0.0,0.0,0.0,0.0,0.0,0.0,0.0,0.0,0.0,0.0,0.0,0.0,0.0,0.0,0.0,0.0,0.0,0.0,0.0,0.0,0.0,0.0,0.0,0.0,0.0,0.0,0.0,0.0,0.0,0.0,-1.7938,0.0,0.0,0.0,0.0,0.0,0.0,0.0,0.0,0.0,0.0,0.0,0.0,0.0,0.0,0.0,0.0,0.0,0.0,0.0,0.0,0.0,0.0,0.0,0.0,0.0,0.0,0.0,0.0,0.0,0.0,0.0,0.0,0.0,0.0,0.0,0.0,0.0,0.0,-0.6715,-0.6145,-0.5687,-0.5394,-0.538,-0.5225,-0.4946,0.0,0.0,0.0,0.0,0.0,0.0,0.0,0.0,0.0,0.0,0.0,0.0,0.0,0.0,0.0,0.0,0.0,0.0,0.0,0.0,0.0,0.0,0.0,0.0,0.0,0.0,0.0,0.0,0.0,0.0,0.0,0.0,0.0,0.0,0.0,0.0,0.0,0.0,0.0,0.0,0.0,0.0,0.0,0.0,0.0,0.0,0.0,0.0,0.0,0.0,0.0,0.0,0.0,0.0,0.0,0.0,0.0,0.0,0.0,0.0,0.0,0.0,0.0,0.0,0.0,0.0,0.0,0.0,0.0,0.0,0.0,-1.9067,0.0,0.0,0.0,0.0,0.0,0.0,0.0,0.0,0.0,0.0,0.0,0.0,0.0,0.0,0.0,0.0,0.0,0.0,0.0,0.0,0.0,0.0,0.0,-0.5927,-0.6013,-0.6093,-0.6026,-0.6191,0.0,0.0,0.0,0.0,0.0,0.0,-0.8246,-0.7036,-0.67,-0.7346,-0.6569,-0.6128,-0.5996,-0.5348,-0.5014,-0.4939,-0.5086,0.0,0.0,0.0,0.0,0.0,0.0,0.0,0.0,0.0,0.0,0.0,0.0,0.0,0.0,0.0,0.0,0.0,0.0,0.0,0.0,0.0,0.0,0.0,0.0,0.0,0.0,0.0,0.0,0.0,0.0,0.0,0.0,0.0,0.0,0.0,0.0,0.0,0.0,0.0,0.0,0.0,0.0,0.0,0.0,0.0,0.0,0.0,0.0,0.0,0.0,0.0,0.0,0.0,0.0,0.0,0.0,0.0,0.0,0.0,0.0,0.0,0.0,0.0,-2.5158,-2.5975,-2.5818,-2.605,-2.5948,-2.5456,-2.2768,-2.1377,-2.1004,0.0,0.0,0.0,0.0,0.0,0.0,0.0,0.0,0.0,0.0,0.0,0.0,0.0,0.0,0.0,0.0,0.0,0.0,0.0,0.0,0.0,0.0,-0.7076,-0.716,-0.7202,-0.6987,-0.6967,-0.7273,0.0,0.0,0.0,0.0,0.0,-0.6542,-0.6387,-0.6453,-0.6712,-0.6647,-0.6828,-0.7177,-0.6462,-0.6117,-0.6147,-0.5531,-0.5551,-0.5967,0.0,0.0,0.0,0.0,0.0,0.0,0.0,0.0,0.0,0.0,0.0,0.0,0.0,0.0,0.0,0.0,0.0,0.0,0.0,0.0,0.0,0.0,0.0,0.0,0.0,0.0,0.0,0.0,0.0,0.0,0.0,0.0,0.0,0.0,0.0,0.0,0.0,0.0,0.0,0.0,0.0,-1.8782,-1.8017,0.0,0.0,0.0,0.0,0.0,0.0,0.0,0.0,0.0,0.0,0.0,0.0,0.0,0.0,-2.1212,-2.2115,-2.2548,-2.2564,-2.7782,-2.9834,-2.9093,-2.8017,-2.7761,-2.8086,-2.5958,0.0,-2.2508,-2.0322,0.0,0.0,0.0,0.0,0.0,0.0,0.0,0.0,0.0,0.0,0.0,0.0,0.0,0.0,0.0,0.0,0.0,0.0,0.0,0.0,0.0,-0.7181,-0.7135,-0.6842,-0.7159,-0.7381,-0.7272,-0.7202,0.0,0.0,0.0,-0.7289,-0.7057,-0.6767,-0.6789,-0.7058,-0.738,-0.7643,-0.7813,-0.7022,-0.6668,-0.665,-0.6316,-0.6208,-0.6278,-0.6307,0.0,0.0,0.0,0.0,0.0,0.0,0.0,0.0,0.0,0.0,0.0,0.0,0.0,0.0,0.0,0.0,0.0,0.0,0.0,0.0,0.0,0.0,0.0,0.0,0.0,0.0,0.0,0.0,0.0,0.0,0.0,0.0,0.0,0.0,0.0,0.0,0.0,0.0,0.0,-1.9291,-1.9294,-1.8031,-1.8723,-1.887,0.0,0.0,0.0,0.0,0.0,0.0,0.0,0.0,0.0,-2.3145,-2.3741,-2.42,-2.435,-2.5882,-2.6822,-2.7242,-2.9755,-3.1239,-3.1738,-3.159,-3.1033,-3.014,-2.8409,-2.6614,-2.4778,-2.2538,-2.1108,-2.0158,0.0,0.0,0.0,0.0,0.0,-1.8838,0.0,0.0,0.0,0.0,0.0,0.0,0.0,0.0,0.0,0.0,0.0,0.0,-0.717,-0.7237,-0.7192,-0.6849,-0.7432,-0.7695,-0.7488,-0.7377,-0.7463,-0.7772,-0.7499,-0.7411,-0.7584,-0.7233,-0.7261,-0.7717,-0.8118,-0.834,-0.8318,-0.7713,-0.7344,-0.7229,-0.7306,-0.7062,-0.663,-0.6736,-0.6732,-0.6605,0.0,0.0,0.0,0.0,0.0,0.0,0.0,0.0,0.0,0.0,0.0,0.0,0.0,0.0,0.0,0.0,0.0,0.0,0.0,0.0,0.0,0.0,0.0,0.0,0.0,0.0,0.0,0.0,0.0,0.0,0.0,0.0,0.0,0.0,0.0,0.0,0.0,-1.9907,-2.0122,-1.8248,-1.9804,-2.0253,0.0,0.0,0.0,0.0,0.0,0.0,-2.5154,-2.5982,-2.6062,-2.5369,-2.6908,-2.7597,-2.7279,-2.9688,-3.1209,-3.1836,-3.1909,-3.2478,-3.3623,-3.3671,-3.2772,-3.1183,-2.9367,-2.7743,-2.6098,-2.4227,-2.2465,-2.0921,-2.1121,-2.0813,-2.0344,-2.0437,-2.0522,-2.0557,0.0,0.0,0.0,0.0,0.0,0.0,0.0,0.0,0.0,0.0,0.0,-0.717,-0.7453,-0.7722,-0.7896,-0.7916,-0.8044,-0.8115,-0.815,-0.7743,-0.7725,-0.8223,-0.7581,-0.7228,-0.723,-0.7334,-0.7769,-0.8612,-0.8679,-0.87,-0.8791,-0.8732,-0.8494,-0.8156,-0.8501,-0.8139,-0.7147,-0.6918,-0.6945,-0.7121,-0.6617,0.0,0.0,0.0,0.0,0.0,0.0,0.0,0.0,0.0,0.0,0.0,0.0,0.0,0.0,0.0,0.0,0.0,0.0,0.0,0.0,0.0,0.0,0.0,0.0,0.0,0.0,0.0,0.0,0.0,0.0,0.0,0.0,0.0,0.0,0.0,0.0,0.0,0.0,-1.8574,-2.2089,0.0,0.0,0.0,0.0,-2.4678,-2.586,-2.7054,-2.8302,-2.9496,-2.9914,-2.9478,-3.1076,-3.0797,-2.8558,-3.2293,-3.4205,-3.4254,-3.4267,-3.4306,-3.4249,-3.2544,-3.1406,-3.0735,-2.7951,-2.6417,-2.5826,-2.4314,-2.3383,-2.2865,-2.1991,-2.1384,-2.0996,-2.1445,-2.161,-2.1552,0.0,0.0,0.0,0.0,0.0,0.0,0.0,0.0,-0.9795,-0.9448,-0.8956,-0.8594,-0.858,-0.8727,-0.8762,-0.8651,-0.882,-0.8873,-0.8725,-0.8134,-0.8076,-0.8846,-0.7974,-0.7663,-0.8086,-0.865,-0.9017,-0.9128,-0.969,-0.9807,-0.9639,-0.9167,-0.8957,-0.9034,-0.8882,-0.8563,-0.8176,-0.7647,-0.723,-0.6933,-0.6744,-0.6768,0.0,0.0,0.0,0.0,0.0,0.0,0.0,0.0,0.0,0.0,0.0,0.0,0.0,0.0,0.0,0.0,0.0,0.0,0.0,0.0,0.0,0.0,0.0,0.0,0.0,0.0,0.0,0.0,0.0,0.0,0.0,0.0,0.0,0.0,0.0,0.0,0.0,-2.3757,-2.5882,0.0,-2.4802,-2.5329,-2.6296,-2.7471,-2.816,-2.955,-3.1911,-3.224,-3.2385,-3.2463,-3.3754,-3.4046,-3.3187,-3.4015,-3.4386,-3.4389,-3.4371,-3.4397,-3.4371,-3.2963,-3.166,-3.0526,-2.9567,-2.8222,-2.6659,-2.6199,-2.5172,-2.3962,-2.3619,-2.3375,-2.3243,-2.342,-2.3457,-2.3405,0.0,0.0,0.0,0.0,0.0,0.0,0.0,0.0,-1.0069,-0.9487,-0.924,-0.9181,-0.9252,-0.9561,-0.9665,-0.9437,-0.965,-0.9555,-0.9044,-0.854,-0.8567,-0.929,-0.8788,-0.8595,-0.888,-0.9688,-1.0045,-1.0033,-1.0372,-1.0408,-1.025,-0.9651,-0.9499,-0.9686,-0.9563,-0.9382,-0.9157,-0.9108,-0.8332,-0.7242,-0.7198,-0.736,-0.7615,0.0,0.0,0.0,0.0,0.0,0.0,0.0,0.0,0.0,0.0,0.0,0.0,0.0,0.0,0.0,0.0,0.0,0.0,0.0,0.0,0.0,0.0,0.0,0.0,0.0,0.0,0.0,0.0,0.0,0.0,0.0,0.0,0.0,0.0,0.0,-2.6658,-2.7188,-2.9294,-3.0078,-2.8532,-2.9066,-2.9956,-3.1191,-3.1465,-3.2563,-3.4778,-3.4808,-3.4724,-3.4533,-3.5296,-3.5731,-3.5658,-3.4812,-3.4397,-3.4419,-3.4428,-3.4171,-3.3801,-3.2485,-3.1198,-2.9964,-2.9298,-2.8139,-2.6787,-2.6787,-2.6088,-2.4945,-2.4781,-2.4628,-2.4508,-2.4661,-2.4727,-2.4672,0.0,0.0,0.0,0.0,0.0,0.0,0.0,-0.9952,-0.9421,-0.8797,-0.859,-0.8731,-0.9362,-1.015,-1.0516,-1.0311,-1.0454,-1.0187,-0.9153,-0.9032,-0.917,-0.9592,-1.0011,-1.0018,-0.9589,-1.0286,-1.0851,-1.1243,-1.0761,-1.0525,-1.0562,-1.0328,-1.0142,-1.0133,-1.0602,-1.0567,-1.0066,-1.1119,-1.0321,-0.834,-0.8092,-0.816,-0.845,0.0,0.0,0.0,0.0,0.0,0.0,0.0,0.0,0.0,0.0,0.0,0.0,0.0,0.0,0.0,0.0,0.0,0.0,0.0,0.0,0.0,0.0,0.0,0.0,0.0,0.0,0.0,0.0,0.0,0.0,0.0,0.0,0.0,-2.4504,-2.7993,-2.9916,-2.8572,-3.2233,-3.3873,-3.1275,-3.3365,-3.5194,-3.5723,-3.5722,-3.6122,-3.6891,-3.725,-3.6932,-3.5844,-3.5712,-3.5718,-3.5742,-3.4812,-3.4397,-3.4393,-3.4402,-3.3775,-3.2671,-3.098,-2.9891,-2.9208,-2.699,-2.6063,-2.5979,-2.5979,-2.5979,-2.5935,-2.5382,-2.4923,-2.4585,-2.5033,-2.5185,-2.5175,0.0,0.0,0.0,0.0,0.0,0.0,0.0,-1.0822,-1.0467,-0.9628,-0.9938,-1.0303,-1.0348,-1.0866,-1.1358,-1.1676,-1.1124,-1.066,-1.0538,-0.9507,-0.9191,-0.979,-1.0527,-1.1178,-1.1733,-1.1968,-1.232,-1.2645,-1.2538,-1.2453,-1.2312,-1.1881,-1.1841,-1.2059,-1.2261,-1.2204,-1.2088,-1.2821,-1.26,-1.1624,-1.0453,-1.0,-0.9945,0.0,0.0,0.0,0.0,0.0,0.0,0.0,0.0,0.0,0.0,0.0,0.0,0.0,0.0,0.0,0.0,0.0,0.0,0.0,0.0,0.0,0.0,0.0,0.0,0.0,0.0,0.0,0.0,0.0,0.0,0.0,-2.6272,-2.8542,-2.8719,-3.0487,-3.2521,-3.4643,-3.6387,-3.7091,-3.6345,-3.7348,-3.7646,-3.6639,-3.7111,-3.7375,-3.7343,-3.6636,-3.6815,-3.8306,-3.6639,-3.5691,-3.5718,-3.5179,-3.4576,-3.3911,-3.3385,-3.3031,-3.2644,-3.1404,-3.0694,-3.0529,-2.9892,-2.9238,-2.8676,-2.8676,-2.8267,-2.7545,-2.6229,-2.5622,-2.5524,-2.5655,-2.548,-2.5175,0.0,0.0,0.0,0.0,0.0,0.0,0.0,-1.105,-1.0659,-0.9785,-1.0334,-1.0812,-1.073,-1.1268,-1.1653,-1.1818,-1.1323,-1.082,-1.0307,-0.9685,-0.9627,-1.0242,-1.1399,-1.2188,-1.2589,-1.3213,-1.3581,-1.3781,-1.353,-1.3461,-1.3438,-1.3041,-1.3048,-1.3374,-1.3643,-1.3805,-1.3855,-1.4732,-1.4681,-1.3998,-1.3441,-1.2577,-1.1498,-1.1002,-1.1715,-1.2995,-1.3222,-1.3993,-1.4908,-1.4935,0.0,0.0,0.0,0.0,0.0,0.0,0.0,0.0,0.0,0.0,0.0,0.0,0.0,0.0,0.0,0.0,0.0,0.0,0.0,0.0,0.0,0.0,0.0,0.0,-2.9428,-3.1951,-3.3213,-3.3987,-3.5371,-3.7962,-3.8803,-3.9264,-3.9522,-3.9704,-3.937,-3.8526,-3.8499,-3.8526,-3.8283,-3.7611,-3.7806,-3.9284,-3.6972,-3.5875,-3.6203,-3.553,-3.4832,-3.4151,-3.3372,-3.2807,-3.241,-3.1608,-3.1131,0.0,-3.0468,-2.999,-2.948,-2.9234,-2.8821,0.0,0.0,0.0,0.0,0.0,-2.5721,-2.548,0.0,0.0,0.0,0.0,0.0,0.0,0.0,-1.0981,-1.0562,-0.9755,-1.0255,-1.0705,-1.0703,-1.1323,-1.1664,-1.1345,-1.1303,-1.0729,-0.9343,-0.9877,-1.0519,-1.1071,-1.2513,-1.3233,-1.3125,-1.42,-1.4811,-1.4912,-1.4315,-1.4184,-1.4496,-1.4204,-1.418,-1.4469,-1.4988,-1.5248,-1.5291,-1.6519,-1.6528,-1.5709,-1.6501,-1.5414,-1.3252,-1.2641,-1.3491,-1.4939,-1.4736,-1.529,-1.6152,-1.6185,0.0,0.0,0.0,0.0,0.0,0.0,0.0,0.0,0.0,0.0,0.0,0.0,0.0,0.0,0.0,0.0,0.0,0.0,0.0,0.0,0.0,0.0,0.0,0.0,-3.225,-3.4434,-3.7243,-3.7691,-3.8152,-3.9278,-3.9983,-4.058,-4.1069,-4.0842,-4.064,-4.0654,-3.987,-3.9415,-3.9284,0.0,0.0,0.0,0.0,-3.6258,-3.6851,-3.5923,-3.5209,-3.4817,-3.3806,-3.2963,-3.216,-3.1896,-3.1386,-3.0729,-2.9824,-2.9383,-2.9286,-2.879,-2.8585,-2.8505,-2.8347,-2.7799,-2.694,-2.6229,-2.5895,0.0,0.0,0.0,0.0,0.0,0.0,0.0,0.0,-1.1847,-1.1505,-1.0601,-1.1035,-1.1276,-1.0965,-1.1311,-1.1832,-1.258,-1.1885,-1.1064,-1.027,-1.1307,-1.2218,-1.2861,-1.3563,-1.4633,-1.6092,-1.5802,-1.609,-1.6951,-1.6698,-1.6688,-1.6839,-1.6478,-1.6379,-1.6476,-1.659,-1.6675,-1.6712,-1.7229,-1.7399,-1.738,-1.8066,-1.7268,-1.5644,-1.5221,-1.6035,-1.7421,-1.7383,-1.7781,-1.8386,-1.8527,-1.9108,-1.9817,-1.9721,-1.9792,0.0,0.0,0.0,0.0,0.0,0.0,0.0,0.0,0.0,0.0,0.0,0.0,0.0,0.0,0.0,0.0,0.0,0.0,0.0,-3.2101,-3.4448,-3.6456,-3.803,-3.8654,-3.9224,-3.9929,-4.0987,-4.1517,-4.115,-4.1423,-4.1612,-4.151,-4.0686,-3.9961,-3.9325,-3.9285,0.0,-3.9289,-3.8242,-3.7436,-3.6933,-3.6399,-3.5532,-3.4366,0.0,0.0,-3.2567,-3.2512,-3.2121,-3.1526,-3.0716,-3.0057,-2.9621,-2.9509,-2.9459,-2.9303,-2.7959,-2.694,-2.6135,-2.5979,-2.5895,-2.5895,0.0,0.0,0.0,0.0,0.0,0.0,0.0,-1.2186,-1.192,-1.1234,-1.169,-1.1906,-1.1466,-1.1506,-1.1739,-1.228,-1.1399,-1.0909,-1.1164,-1.2064,-1.2973,-1.3828,-1.4933,-1.6143,-1.7346,-1.7056,-1.729,-1.8118,-1.7647,-1.7409,-1.7481,-1.7379,-1.7288,-1.7328,-1.7705,-1.7862,-1.7901,-1.8682,-1.8838,-1.8723,-1.9706,-1.9634,-1.8869,-1.7941,-1.8283,-1.9149,-1.8954,-1.9104,-1.942,-1.9794,-2.0145,-2.0534,-2.0944,-2.0879,-2.0681,0.0,0.0,0.0,0.0,0.0,0.0,0.0,0.0,0.0,0.0,0.0,0.0,0.0,0.0,-2.647,-2.8261,0.0,-3.2521,-3.4909,-3.6551,-3.7826,-3.8735,-3.9644,-4.0323,-4.0608,-4.1191,-4.1679,-4.1978,-4.2263,-4.2073,-4.1191,-4.0879,-4.0377,-3.9384,-3.9326,-3.9338,-3.9338,-3.8496,-3.7844,-3.7232,-3.6698,-3.5829,-3.4646,-3.4565,-3.4017,-3.3156,-3.3417,-3.3247,-3.2712,-3.23,-3.1727,-3.1137,-3.0573,-2.9858,-2.8991,-2.8119,-2.7255,-2.6456,-2.6063,-2.5895,-2.5895,0.0,0.0,0.0,0.0,0.0,0.0,0.0,-1.2365,-1.2174,-1.1763,-1.2137,-1.2296,-1.1947,-1.1672,-1.1525,-1.1525,-1.0922,-1.0945,-1.1919,-1.2625,-1.3516,-1.4578,-1.6264,-1.7474,-1.8147,-1.814,-1.8387,-1.8927,-1.8249,-1.7869,-1.7879,-1.7925,-1.8058,-1.8211,-1.8725,-1.9033,-1.9284,-2.0276,-2.0432,-1.9988,-2.1371,-2.1897,-2.1754,-2.07,-2.0506,-2.0719,-2.0249,-1.9979,-1.9963,-2.0609,-2.0765,-2.0895,-2.1845,-2.1868,-2.1513,-2.1183,-2.0368,0.0,0.0,0.0,0.0,0.0,0.0,0.0,0.0,-2.3543,-2.438,-2.6204,-2.7827,-2.9591,-3.1748,-3.3444,-3.5208,-3.7351,-3.8098,-3.8627,-3.9224,-4.0146,-4.077,-4.077,-4.1069,-4.1625,-4.2466,-4.2426,-4.1856,-4.0682,-4.0719,-4.039,-3.9522,-3.9359,-3.9305,-3.9305,-3.8675,-3.8079,-3.7541,-3.7026,-3.6264,-3.5154,-3.5086,-3.4682,-3.3852,-3.4201,-3.411,-3.3574,-3.319,-3.2655,-3.2045,-3.1124,-2.9947,-2.8664,-2.8505,-2.7879,-2.7103,-2.6218,-2.5895,-2.5895,0.0,0.0,0.0,0.0,0.0,0.0,0.0,0.0,-1.252,-1.2174,-1.2173,-1.2135,-1.1915,-1.1571,-1.133,-1.1248,-1.1591,-1.1883,-1.216,-1.3217,-1.4439,-1.5751,-1.7082,-1.837,-1.9552,-1.9227,-1.9284,-1.9771,-1.9469,-1.9267,-1.9277,-1.9313,-1.9788,-2.0464,-2.0357,-2.0681,-2.1381,-2.149,-2.1637,-2.1786,-2.2835,-2.3094,-2.2854,-2.3156,-2.3066,-2.254,-2.1547,-2.0761,-2.0402,-2.1352,-2.1983,-2.2442,-2.3108,-2.3435,-2.3288,-2.1871,-2.0753,-1.9955,-1.9764,-2.0554,-2.1668,-2.2488,-2.34,-2.4868,0.0,-2.8411,-2.8954,-3.1643,-3.2738,-3.3661,-3.4977,-3.5818,-3.6754,-3.8098,-3.8383,-3.8627,-3.9224,-3.9414,-3.9509,-3.9509,-4.092,-4.1747,-4.1354,-4.0811,-4.0648,-4.0962,-4.0106,-3.9671,-4.0065,-3.959,-3.9305,-3.9305,-3.9224,-3.8654,-3.7541,-3.746,-3.6696,-3.5399,-3.5154,-3.4964,-3.4664,-3.4468,-3.411,-3.3535,-3.1669,-3.0577,-3.0035,-2.9921,-2.9704,-2.9459,-2.8664,-2.7879,-2.7103,-2.6218,-2.5895,-2.5895,0.0,0.0,0.0,0.0,0.0,0.0,0.0,0.0,0.0,-1.265,-1.272,-1.272,-1.2615,-1.2102,-1.1811,-1.1906,-1.1387,-1.1588,-1.2865,-1.3611,-1.4665,-1.6109,-1.7931,-1.9303,-2.0158,-2.0461,-2.0717,-2.0869,-2.1006,-2.0906,-2.0647,-2.0823,-2.1107,-2.1446,-2.1528,-2.1718,-2.2094,-2.2617,-2.2838,-2.2913,-2.3872,-2.3921,-2.3461,-2.3365,-2.2902,-2.2238,-2.1482,-2.0827,0.0,-2.1012,-2.1446,-2.1884,-2.2596,-2.2609,-2.2226,-2.1442,-2.0998,-2.0926,-2.1397,-2.2746,-2.4114,-2.4571,-2.6045,-2.7789,-2.9603,-3.0161,-3.0951,-3.3105,-3.4597,-3.575,-3.6619,-3.7541,-3.8342,-3.8844,-3.8925,-3.902,-3.9264,-3.9305,-3.9047,-3.8355,-3.8939,-3.9576,-4.0024,-4.0133,-4.0146,-4.0065,-3.9916,-3.978,-3.9671,-3.9441,-3.9305,-3.9305,-3.8966,-3.8383,-3.7541,-3.7175,-3.6482,-3.5399,-3.5318,-3.4899,-3.4268,-3.4515,-3.4275,-3.3522,-3.1952,-3.1151,-3.0894,-3.056,-3.0177,-2.9626,-2.8743,-2.7879,-2.7103,-2.6218,-2.5895,-2.5895,0.0,0.0,0.0,0.0,0.0,0.0,0.0,0.0,0.0,0.0,-1.3094,-1.3129,-1.299,-1.2544,-1.2294,-1.233,-1.1507,-1.1638,-1.3145,-1.3606,-1.4451,-1.58,-1.8019,-1.9495,-2.013,-2.104,-2.1635,-2.1776,-2.2002,-2.1991,-2.1721,-2.204,-2.2321,-2.2542,-2.2688,-2.2927,-2.3165,-2.364,-2.3812,-2.3758,-2.4166,-2.3955,-2.3268,-2.2582,-2.1885,-2.1173,-2.0779,-2.0349,-1.9962,-2.0361,-2.069,-2.103,-2.1808,-2.1741,-2.1348,-2.1399,-2.1556,-2.1945,-2.2734,-2.4497,-2.6204,-2.664,-2.8566,-3.0556,-3.1205,-3.1843,-3.2684,-3.4136,-3.5465,-3.6497,-3.6944,-3.8016,-3.8817,-3.8817,-3.9088,-3.9237,-3.9088,-3.8925,-3.8369,-3.7175,-3.689,-3.7066,-3.7758,-3.8654,-3.9088,-3.883,-3.9359,-3.9509,-3.9088,-3.921,-3.9224,-3.9061,-3.864,-3.8043,-3.7284,-3.6822,-3.6225,-3.548,-3.5238,-3.4781,-3.3992,-3.4162,-3.3894,-3.3287,-3.228,-3.1757,-3.1575,-3.1156,-3.0659,-2.9947,-2.9069,-2.8279,-2.7418,-2.6539,-2.6146,-2.5895,0.0,0.0,0.0,0.0,0.0,0.0,0.0,0.0,0.0,0.0,0.0,0.0,0.0,-1.272,-1.2615,-1.2246,-1.2342,-1.2456,-1.2513,-1.3139,-1.3874,-1.4708,-1.7054,-1.869,-1.9403,-2.0731,-2.1632,-2.2185,-2.1959,-2.2037,-2.2595,-2.2842,-2.3345,-2.4062,-2.4013,-2.4469,-2.5181,-2.4689,-2.4462,-2.4366,-2.3448,-2.2727,-2.2125,-2.1079,-2.0232,-1.9587,-1.9574,-1.927,-1.9022,-1.9553,-1.9908,-2.0281,-2.1221,-2.1449,-2.1518,-2.2235,-2.2663,-2.2913,-2.3217,-2.5119,-2.7343,-2.8512,-3.065,-3.2763,-3.358,-3.4299,-3.4896,-3.5533,-3.571,-3.575,-3.5764,-3.6768,-3.7582,-3.7582,-3.8559,-3.9102,-3.8532,-3.7948,-3.7134,-3.5913,-3.5262,-3.4706,0.0,-3.5683,-3.6944,-3.7541,-3.8138,-3.8464,-3.845,-3.8993,-3.9034,-3.8464,-3.8423,-3.784,-3.6632,-3.6605,-3.6307,-3.571,-3.4901,-3.438,-3.4193,-3.3238,-3.2738,-3.2685,-3.2097,-3.1522,-3.1013,-3.0999,-3.0986,-3.0898,-3.0024,-2.9147,-2.8267,-2.7499,-2.6622,-2.5895,0.0,0.0,0.0,0.0,0.0,0.0,0.0,0.0,0.0,0.0,0.0,0.0,0.0,0.0,0.0,0.0,-1.2244,-1.2213,-1.3233,-1.3345,-1.364,-1.426,-1.6672,-1.8004,-1.8154,-2.0053,-2.1063,-2.1152,-2.2098,-2.2538,-2.2344,-2.3185,-2.3651,-2.3937,-2.42,-2.4493,-2.4771,-2.4602,-2.4723,-2.4891,-2.3159,-2.2354,-2.2054,-2.0438,-1.9428,-1.8765,0.0,-1.8552,-1.8442,-1.8475,-1.8632,-1.8879,-1.9196,-1.9457,-2.003,-2.1953,-2.3108,-2.4227,-2.5994,-2.7936,-2.9803,-3.132,-3.29,-3.4213,-3.4936,-3.5276,-3.5357,-3.5167,-3.4502,-3.3837,-3.3444,-3.4027,-3.4828,-3.5615,-3.708,-3.8193,-3.8383,-3.8247,-3.7379,-3.5371,-3.495,-3.4448,0.0,0.0,0.0,-3.628,-3.727,-3.8003,-3.8396,-3.86,-3.8627,-3.8423,-3.7636,-3.7012,-3.6605,-3.6212,-3.5913,-3.5696,-3.4404,-3.3833,-3.3939,-3.2331,-3.1771,-3.2097,-3.1522,-3.1169,-3.0986,-3.0986,-3.0986,-3.0911,-3.0024,-2.9147,-2.8267,-2.7499,-2.6622,-2.5895,0.0,0.0,0.0,0.0,0.0,0.0,0.0,0.0,0.0,0.0,0.0,0.0,0.0,0.0,0.0,0.0,0.0,-1.2456,-1.3253,-1.3241,-1.339,-1.3746,-1.5984,-1.7182,-1.712,-1.9242,-2.0175,-1.9921,-2.1117,-2.1535,-2.1224,-2.2097,-2.2567,-2.2654,-2.2979,-2.3047,-2.2958,-2.2843,-2.2951,-2.3054,-2.1572,-2.094,-2.0803,-1.9379,-1.8637,0.0,-1.8013,-1.7988,-1.8062,-1.8004,-1.8043,-1.8164,-1.8531,-1.9404,-2.067,-2.2419,-2.4103,-2.6048,-2.8629,-3.0498,-3.2075,-3.39,-3.4896,-3.556,-3.594,-3.5533,-3.4801,-3.3783,-3.2616,-3.1477,-3.0459,-3.092,-3.1857,-3.3064,-3.476,-3.6293,-3.7311,-3.727,-3.6646,-3.5303,-3.4963,-3.4448,-3.3471,0.0,0.0,-3.5371,-3.6727,-3.7704,-3.8084,-3.8505,-3.864,-3.8423,-3.746,-3.6822,-3.6605,-3.6008,-3.5601,-3.5384,-3.4245,-3.3661,-3.3608,-3.2042,-3.1483,-3.181,-3.1235,-3.0986,-3.0986,-3.0986,-3.0986,-3.0898,-3.0419,-2.9626,-2.8743,-2.7959,-2.7092,-2.6302,0.0,0.0,0.0,0.0,0.0,0.0,0.0,0.0,0.0,0.0,0.0,0.0,0.0,0.0,0.0,0.0,0.0,0.0,-1.2673,-1.2932,-1.3106,-1.3094,-1.5054,-1.6276,-1.6452,-1.8262,-1.9049,-1.8679,-1.9105,-1.9353,-1.9476,-1.9885,-2.0272,-2.0538,-2.0562,-2.0435,-2.0203,-1.9929,-1.9682,-1.9444,-1.8912,-1.8672,-1.8623,-1.7898,-1.7834,-1.81,-1.7604,-1.7625,-1.7922,-1.8164,-1.8139,-1.8249,-1.9266,-2.1268,-2.3322,-2.3685,-2.5703,-2.8377,-3.0993,-3.2626,-3.4046,-3.6117,-3.6605,-3.6578,-3.6524,-3.5126,-3.3363,-3.1612,-3.0188,-2.8722,-2.6999,-2.7678,-2.8926,-3.0201,-3.1979,-3.3824,-3.5601,-3.5398,-3.5235,-3.571,-3.5289,-3.4719,-3.4018,-3.457,0.0,-3.4923,0.0,-3.7514,-3.7568,-3.864,-3.8993,-3.8383,-3.7799,-3.7189,-3.6564,-3.5995,-3.5438,-3.4803,-3.438,-3.39,-3.3327,-3.2266,-3.1836,-3.181,-3.1235,-3.0986,-3.0986,-3.0986,-3.0986,-3.0986,-3.0986,-3.0508,-2.9626,-2.8743,-2.7959,-2.7103,0.0,0.0,0.0,0.0,0.0,0.0,0.0,0.0,0.0,0.0,0.0,0.0,0.0,0.0,0.0,0.0,0.0,0.0,-1.3047,-1.336,-1.3386,-1.2974,-1.4795,-1.5768,-1.5673,-1.7296,-1.8142,-1.824,-1.844,-1.8602,-1.8821,-1.8929,-1.9178,-1.942,-1.9817,-2.0041,-2.0116,-2.0159,-2.0441,-2.0736,-1.9133,-1.8702,-1.8953,-1.7865,-1.7492,-1.7618,-1.7719,-1.7842,-1.799,-1.8481,-1.9473,-2.0669,-2.1755,-2.3325,-2.5066,-2.6469,-2.8628,-3.0979,-3.2832,-3.4526,-3.5913,-3.6442,-3.6605,-3.6361,-3.5479,-3.3905,-3.225,-3.0907,-2.8248,-2.5873,-2.4978,-2.6158,-2.7963,-3.0066,-3.301,-3.5669,-3.7473,-3.7975,-3.7718,-3.651,-3.6659,-3.6429,-3.5371,-3.5805,0.0,0.0,-3.6578,-3.7229,-3.8138,-3.8477,-3.8369,-3.7786,-3.7161,-3.6551,-3.5954,-3.5791,-3.5561,-3.5251,-3.4647,-3.4206,-3.3714,-3.2631,-3.2016,-3.181,-3.1235,-3.0986,-3.0986,-3.0986,-3.0986,-3.0986,-3.0986,-3.0508,-2.9704,-2.9459,-2.8438,-2.7185,0.0,0.0,0.0,0.0,0.0,0.0,0.0,0.0,0.0,0.0,0.0,0.0,0.0,0.0,0.0,0.0,0.0,0.0,0.0,-1.3438,-1.354,-1.3465,-1.4767,-1.5509,-1.5517,-1.666,-1.7144,-1.6851,-1.7176,-1.7181,-1.6904,-1.7352,-1.7543,-1.7604,-1.8154,-1.8375,-1.8462,-1.8623,-1.8908,0.0,0.0,-1.8157,-1.8338,-1.7818,-1.7611,-1.7652,-1.7828,-1.8384,-1.9171,-2.0026,-2.1165,-2.2454,-2.4133,-2.5643,-2.7229,-2.9258,-3.1198,-3.3022,-3.4963,-3.6442,-3.7392,-3.7392,-3.6999,-3.609,-3.4109,-3.2074,-3.0038,-2.8058,-2.5615,-2.3635,-2.3051,-2.4204,-2.5941,-2.8085,-3.0988,-3.3878,-3.6483,-3.7351,-3.765,-3.7419,-3.7704,-3.7555,-3.6605,-3.7053,-3.7392,0.0,-3.7392,-3.7704,-3.8383,-3.8423,-3.826,-3.7935,-3.7066,-3.632,-3.5723,-3.571,-3.5642,-3.5562,-3.5063,-3.462,-3.4033,-3.3304,-3.2698,-3.2176,0.0,-3.1365,-3.1339,-3.1091,-3.0986,-3.0986,-3.0986,-3.0659,-3.019,-2.9858,-2.8834,-2.7649,0.0,0.0,0.0,0.0,0.0,0.0,0.0,0.0,0.0,0.0,0.0,0.0,0.0,0.0,0.0,0.0,0.0,0.0,0.0,0.0,-1.3645,-1.4169,-1.4852,-1.5388,-1.5734,-1.6384,-1.6338,-1.5546,-1.5997,-1.5757,-1.4903,-1.5782,-1.6044,-1.5832,-1.6293,-1.6466,-1.6411,-1.6667,-1.6723,-1.668,-1.7227,-1.7447,-1.7488,0.0,-1.7882,-1.7882,-1.7882,-1.8927,-2.0528,-2.2034,-2.3119,-2.4177,-2.6565,-2.8166,-2.9631,-3.1965,-3.343,-3.4787,-3.7039,-3.8084,-3.8477,-3.8233,-3.7256,-3.5574,-3.2508,-2.9903,-2.7325,-2.4571,-2.297,-2.1939,-2.1505,-2.2431,-2.3933,-2.5928,-2.8207,-3.0975,-3.4556,-3.5588,-3.6564,-3.822,-3.8491,-3.8328,-3.7813,-3.8233,-3.8532,-3.8532,-3.8464,-3.8423,-3.8423,-3.8423,-3.8342,-3.8179,-3.708,-3.6239,-3.5723,-3.571,-3.571,-3.571,-3.5562,-3.5049,-3.4326,-3.4086,-3.3528,-3.2856,0.0,0.0,-3.1797,-3.1222,-3.0986,-3.0986,-3.0986,-3.0986,-3.0898,-3.0024,-2.9147,-2.8267,0.0,0.0,0.0,0.0,0.0,0.0,0.0,0.0,0.0,0.0,-1.4162,-1.377,0.0,0.0,0.0,0.0,0.0,0.0,0.0,0.0,0.0,-1.4169,-1.4852,-1.5427,-1.5949,-1.6552,-1.6824,-1.6722,-1.6416,-1.6157,-1.5954,-1.6107,-1.6044,-1.5832,-1.6411,-1.6723,-1.6833,-1.7031,-1.7199,-1.7352,-1.7543,-1.772,-1.7828,-1.7882,0.0,0.0,-1.7882,-1.8398,-1.9564,-2.2739,-2.5195,-2.7271,-2.9184,-3.0934,-3.2657,-3.4556,-3.5601,-3.6456,-3.7881,-3.8695,-3.879,-3.7297,-3.6022,-3.4231,-3.0744,-2.7705,-2.5208,-2.3649,-2.1984,-2.0914,-2.1355,-2.2821,-2.4883,-2.7678,-2.9726,-3.2223,-3.5791,-3.6836,-3.7514,-3.8315,-3.8844,-3.9102,-3.9007,-3.9088,-3.9142,0.0,0.0,-3.8423,-3.8423,-3.8423,-3.7962,-3.6944,-3.6239,-3.5818,-3.571,-3.571,-3.571,-3.571,-3.5629,-3.5507,-3.5157,-3.4433,-3.4006,-3.3607,0.0,0.0,-3.1797,-3.1222,-3.0986,-3.0986,-3.0986,-3.0986,-3.0898,-3.0024,-2.9147,-2.8267,0.0,0.0,0.0,0.0,0.0,0.0,0.0,-1.4675,-1.4902,-1.4799,-1.489,-1.4739,-1.4149,-1.4362,-1.4513,0.0,0.0,0.0,0.0,0.0,0.0,0.0,-1.5284,-1.5689,-1.6245,-1.6608,-1.6803,-1.6846,0.0,-1.638,-1.5913,-1.6479,-1.638,-1.5832,-1.6625,-1.7031,-1.7183,-1.7267,-1.7419,-1.7625,-1.7679,-1.776,-1.7882,0.0,0.0,0.0,-1.7882,-1.8465,-1.9605,-2.1925,-2.4517,-2.7298,-3.0364,-3.2345,-3.381,-3.5289,-3.6361,-3.7284,-3.8179,-3.8844,-3.8871,-3.7053,-3.5248,-3.2806,-2.8573,-2.5534,-2.3078,-2.1287,-2.0487,-2.0188,-2.0473,-2.2237,-2.4137,-2.5575,-2.7311,-2.9849,-3.3756,-3.4828,-3.6008,-3.8165,-3.8939,-3.9305,-3.9305,-3.9305,-3.9305,-3.9305,0.0,-3.8423,-3.8423,-3.7813,-3.7066,-3.6171,-3.5859,-3.571,-3.571,-3.571,-3.571,-3.571,-3.571,-3.5562,-3.5236,-3.4874,-3.4497,-3.4117,-3.3117,0.0,-3.2163,-3.119,-3.0867,-3.0973,-3.0495,-3.0343,-3.0266,-2.9858,-2.8912,-2.773,0.0,0.0,0.0,0.0,0.0,0.0,0.0,-1.5324,-1.558,-1.5266,-1.5605,-1.5706,-1.5279,-1.5155,-1.5079,0.0,0.0,0.0,0.0,0.0,0.0,0.0,0.0,0.0,-1.6509,0.0,0.0,-1.6675,-1.6846,0.0,0.0,0.0,0.0,0.0,-1.6667,-1.7128,-1.7225,-1.7363,-1.7487,0.0,0.0,-1.776,0.0,0.0,0.0,0.0,0.0,-1.8493,-1.951,-2.0799,-2.2875,-2.5575,-2.9292,-3.1884,-3.3729,-3.4529,-3.5981,-3.746,-3.807,-3.8667,-3.8681,-3.6863,-3.4434,-3.13,-2.6742,-2.3743,-2.1315,-1.9241,-1.9266,-1.9741,-1.9863,-2.1505,-2.2918,-2.331,-2.4706,-2.7121,-3.1219,-3.2643,-3.4448,-3.765,-3.879,-3.9305,-3.9305,-3.9305,0.0,-3.9305,0.0,0.0,-3.803,-3.6999,-3.6198,-3.5723,-3.571,-3.571,-3.571,-3.571,-3.571,-3.571,-3.5629,-3.548,-3.5236,-3.5086,-3.4825,-3.4524,-3.3773,0.0,0.0,-3.1055,-3.052,-3.0659,-2.9781,-2.9459,-2.9381,-2.9238,-2.8371,-2.7185,0.0,0.0,0.0,0.0,0.0,0.0,0.0,-1.5586,-1.5815,-1.6223,-1.6378,-1.6421,-1.6371,-1.5919,-1.5618,0.0,0.0,0.0,0.0,0.0,0.0,0.0,0.0,0.0,0.0,0.0,0.0,-1.6675,-1.6718,0.0,0.0,0.0,0.0,0.0,0.0,-1.668,-1.6607,-1.7183,0.0,0.0,0.0,0.0,0.0,0.0,0.0,0.0,0.0,-1.795,-1.8316,-1.9994,-2.1117,-2.2183,-2.4218,-2.8302,-3.225,-3.1829,-3.4068,-3.6822,-3.7446,-3.8043,-3.807,-3.6252,-3.32,-2.9672,-2.5928,-2.2807,-2.0324,-1.9078,-1.9266,-1.9863,-2.0319,-2.1023,-2.2129,-2.377,-2.4639,-2.6375,-3.0052,-3.2494,-3.4624,-3.6537,-3.8274,-3.9305,-3.9305,-3.9305,-3.9305,-3.9305,0.0,0.0,-3.6795,-3.6144,-3.5778,-3.571,-3.571,-3.571,-3.571,-3.571,-3.571,-3.571,-3.548,-3.548,-3.5642,-3.5086,-3.4921,-3.4937,0.0,0.0,0.0,-3.0622,-2.9831,-2.9704,-2.8821,-2.8505,-2.8426,-2.773,-2.7336,-2.7103,0.0,0.0,0.0,0.0,0.0,0.0,-1.6061,-1.6153,-1.6228,-1.6454,-1.6479,-1.6522,-1.6522,-1.6321,-1.6183,-1.6183,0.0,0.0,0.0,0.0,0.0,0.0,0.0,0.0,0.0,0.0,-1.6522,-1.6577,-1.6675,0.0,0.0,0.0,0.0,0.0,0.0,-1.6281,-1.6522,-1.6735,0.0,0.0,0.0,0.0,0.0,0.0,0.0,0.0,0.0,0.0,-1.7991,-1.8696,-1.9578,-2.0378,-2.0365,-2.3323,-2.7244,-2.9536,-3.1979,-3.4299,-3.5981,-3.7148,-3.7446,-3.5642,-3.2494,-2.8994,-2.5738,-2.2427,-1.9686,-1.8479,-1.8765,-1.9198,-1.9429,-1.9971,-2.0731,-2.174,-2.1871,-2.3065,-2.666,-2.8614,-3.0866,-3.4095,-3.6375,-3.7962,-3.8695,0.0,-3.9007,0.0,0.0,0.0,-3.6103,-3.5845,-3.571,-3.571,-3.571,-3.571,-3.571,-3.571,-3.571,-3.571,-3.5642,-3.5562,-3.548,-3.5154,-3.4921,-3.4895,0.0,0.0,0.0,-3.0686,-2.9788,-2.9297,-2.8089,-2.7649,-2.7649,-2.7336,-2.6869,-2.6385,0.0,0.0,0.0,0.0,0.0,-1.5881,-1.6434,-1.6522,-1.6522,-1.6522,-1.6522,-1.6522,-1.6522,-1.6522,-1.6522,-1.6522,-1.6522,0.0,0.0,0.0,0.0,0.0,0.0,0.0,0.0,0.0,-1.6293,-1.6293,-1.6262,-1.5957,0.0,0.0,-1.5478,-1.4869,0.0,0.0,0.0,0.0,0.0,0.0,0.0,0.0,0.0,0.0,0.0,0.0,0.0,0.0,0.0,0.0,0.0,-1.9008,-1.8153,-1.9619,-2.2373,-2.6022,-2.9129,-3.1789,-3.3647,-3.5289,-3.609,-3.4448,-3.1341,-2.7949,-2.5127,-2.1857,-1.913,-1.8099,-1.8398,-1.8806,-1.8806,-1.9415,-2.0026,-2.0256,-2.0392,-2.1477,-2.434,-2.624,-2.8641,-3.2128,-3.4475,-3.6293,-3.7501,-3.8328,-3.8355,0.0,0.0,0.0,0.0,-3.571,-3.5642,-3.5465,-3.5452,-3.5371,-3.5194,-3.5194,-3.5194,-3.5194,-3.5291,-3.5291,-3.5224,-3.5169,-3.5003,-3.4825,0.0,0.0,0.0,-3.0514,-2.9414,-2.8503,-2.7241,-2.6787,-2.6787,-2.6787,-2.6467,-2.5895,0.0,0.0,0.0,0.0,0.0,0.0,-1.6434,-1.6522,-1.6522,-1.6522,-1.6522,-1.6522,-1.6522,-1.6522,-1.6522,-1.6522,-1.6522,0.0,0.0,0.0,0.0,0.0,0.0,0.0,0.0,0.0,-1.5832,-1.5832,-1.5322,-1.5187,-1.5311,-1.4892,-1.4525,-1.4222,0.0,0.0,0.0,0.0,0.0,0.0,0.0,0.0,0.0,0.0,0.0,0.0,0.0,0.0,0.0,0.0,0.0,0.0,0.0,-1.7909,-1.8411,-2.0799,-2.5303,-2.9645,-3.0296,-3.2182,-3.3702,-3.2508,-2.9509,-2.6167,-2.3757,-2.0935,-1.8657,-1.8004,-1.8398,-1.8806,-1.8806,-1.9741,-2.0305,-1.9795,-2.1152,-2.2712,-2.396,-2.6701,-2.9252,-3.1097,-3.2888,-3.4434,-3.5628,-3.6836,0.0,0.0,0.0,0.0,0.0,-3.571,-3.5452,-3.4855,-3.4841,-3.4556,-3.3896,-3.3896,-3.3896,-3.3896,-3.4335,-3.4604,-3.4776,-3.4982,-3.5086,0.0,0.0,0.0,0.0,-2.987,-2.8456,-2.7115,-2.6218,-2.5895,-2.5895,-2.5895,-2.5895,-2.5895,0.0,0.0,0.0,0.0,0.0,0.0,0.0,-1.6522,-1.6522,-1.6522,-1.6522,-1.6522,-1.6522,-1.6522,-1.6522,-1.6522,-1.6522,0.0,0.0,0.0,0.0,0.0,0.0,0.0,0.0,0.0,-1.5656,-1.5322,-1.5153,-1.5051,-1.4892,-1.4755,-1.4582,-1.4326,-1.4558,-1.4789,0.0,0.0,0.0,0.0,0.0,0.0,0.0,0.0,0.0,0.0,0.0,0.0,0.0,0.0,0.0,0.0,0.0,0.0,0.0,-1.8777,-2.164,-2.4978,-2.6823,-2.818,-2.8885,-2.8085,-2.6117,-2.3906,-2.2309,-2.0324,-1.8643,-1.8004,-1.8072,-1.8453,-1.9252,-1.9361,-1.9931,-2.1817,-2.2224,-2.2875,-2.4503,-2.6959,-2.9116,-3.0527,-3.3688,-3.6076,0.0,0.0,0.0,0.0,0.0,0.0,0.0,-3.533,-3.5031,-3.4841,-3.4828,-3.4465,-3.3806,-3.3869,-3.3792,-3.3574,-3.384,-3.392,-3.3856,-3.3714,0.0,0.0,0.0,0.0,0.0,-2.9764,-2.8398,-2.6694,-2.6111,-2.5895,-2.5895,-2.5895,-2.5895,-2.5895,0.0,0.0,0.0,0.0,0.0,0.0,0.0,-1.6522,-1.6522,-1.6522,-1.6522,-1.6522,-1.6522,-1.6522,-1.6522,-1.6522,-1.6522,0.0,0.0,0.0,0.0,0.0,0.0,0.0,-1.5311,-1.5266,-1.513,-1.4834,-1.464,-1.4547,-1.4582,-1.449,-1.4362,-1.4244,-1.4326,-1.4558,0.0,0.0,0.0,0.0,0.0,0.0,-1.7475,0.0,0.0,0.0,0.0,0.0,0.0,0.0,0.0,0.0,0.0,0.0,0.0,0.0,-1.9184,-2.1165,-2.3553,-2.4991,-2.5656,-2.5046,-2.3702,-2.2187,-2.1043,-1.9551,-1.8371,-1.7963,-1.7882,-1.8113,-1.8872,-1.9076,-1.9659,-2.1287,-2.1789,-2.2522,-2.4123,-2.6416,-2.8709,-3.0825,-3.3756,0.0,0.0,0.0,0.0,0.0,0.0,0.0,0.0,-3.4828,-3.4394,-3.4177,-3.4163,-3.3801,-3.313,-3.3206,-3.313,-3.2917,-3.3208,-3.3315,-3.3175,-3.2804,0.0,0.0,0.0,0.0,0.0,-2.9106,-2.7972,-2.6321,-2.6016,-2.5895,-2.5895,-2.5895,-2.5895,-2.5895,0.0,0.0,0.0,0.0,0.0,0.0,0.0,-1.6522,-1.6522,-1.6522,-1.6522,-1.6522,-1.6522,-1.6522,-1.6479,-1.6466,0.0,0.0,0.0,0.0,0.0,0.0,0.0,0.0,-1.4419,-1.4373,-1.4373,-1.4326,-1.3889,-1.391,-1.4381,-1.4157,-1.4063,-1.4063,-1.4302,-1.443,0.0,0.0,0.0,0.0,0.0,0.0,0.0,0.0,0.0,0.0,0.0,0.0,0.0,0.0,0.0,0.0,0.0,0.0,0.0,0.0,0.0,0.0,0.0,-2.24,-2.354,-2.2945,-2.2007,-2.088,-1.9809,-1.8696,0.0,-1.7882,-1.7882,-1.7909,-1.7991,-1.894,-1.9578,-1.9241,-2.0568,-2.2115,-2.3324,-2.567,-2.8478,-3.1897,-3.3349,0.0,-3.3883,0.0,0.0,0.0,0.0,0.0,0.0,0.0,-3.3634,-3.3152,-3.3023,-3.2738,-3.2182,-3.2182,-3.2182,-3.2182,-3.2516,-3.271,-3.2648,-3.2202,0.0,0.0,0.0,0.0,0.0,-2.7923,-2.7171,-2.5895,-2.5895,-2.5895,-2.5895,-2.5895,-2.5895,-2.5895,0.0,0.0,0.0,0.0,0.0,0.0,0.0,0.0,0.0,0.0,-1.6522,-1.6522,-1.6522,-1.6522,-1.638,0.0,0.0,0.0,0.0,0.0,0.0,0.0,0.0,0.0,-1.4419,-1.4373,-1.4186,-1.381,-1.4021,-1.4247,-1.4503,-1.4503,-1.4601,-1.4666,-1.4501,-1.4605,0.0,0.0,0.0,0.0,0.0,0.0,0.0,0.0,0.0,0.0,-1.7679,-1.776,0.0,0.0,0.0,0.0,0.0,0.0,0.0,0.0,-1.7882,-1.8004,-1.856,0.0,-1.9307,-1.9171,-1.8927,-1.8642,0.0,-1.8085,-1.7882,-1.7882,-1.7882,-1.8167,-1.9103,-1.951,-2.0392,-2.2522,-2.3594,-2.4747,-2.6416,-2.9116,-3.1572,-3.3322,-3.457,-3.4936,0.0,0.0,0.0,0.0,0.0,0.0,0.0,0.0,-3.32,-3.3139,-3.2616,-3.2245,-3.1963,-3.2109,-3.2036,-3.1743,-3.1951,-3.1795,-3.1196,-3.1098,0.0,0.0,0.0,0.0,-2.7428,-2.7568,-2.6948,-2.5895,-2.5895,-2.5895,-2.5895,-2.5895,-2.5895,-2.5895,0.0,0.0,0.0,0.0,0.0,0.0,0.0,0.0,0.0,0.0,0.0,-1.6522,-1.6522,-1.6522,0.0,0.0,0.0,0.0,0.0,0.0,0.0,0.0,0.0,-1.4558,-1.4046,-1.4046,-1.3905,-1.3621,-1.3869,-1.4042,-1.4199,-1.4306,-1.4441,-1.4553,-1.4446,-1.4651,0.0,0.0,0.0,0.0,-1.5579,0.0,0.0,0.0,0.0,0.0,-1.7282,-1.7447,0.0,-1.7882,-1.7882,-1.7882,0.0,0.0,0.0,0.0,-1.7882,-1.7882,-1.7882,-1.8113,-1.833,-1.833,-1.833,-1.833,-1.833,-1.8113,-1.7882,-1.7882,-1.7882,-1.8167,-1.9103,-1.951,-2.0392,-2.2536,-2.3621,-2.5113,-2.7746,-2.974,-3.1694,-3.3639,-3.4516,0.0,0.0,0.0,0.0,0.0,0.0,0.0,0.0,0.0,-3.2657,-3.2583,-3.2199,-3.2036,-3.2036,-3.2182,-3.2109,-3.189,-3.1596,-3.1299,-3.0836,-3.005,0.0,0.0,0.0,0.0,-2.6296,-2.6591,-2.6322,-2.559,-2.5819,-2.5895,-2.5895,-2.5895,-2.5895,-2.5895,0.0,0.0,0.0,0.0,0.0,0.0,0.0,0.0,0.0,0.0,0.0,0.0,0.0,0.0,0.0,0.0,0.0,0.0,0.0,0.0,0.0,0.0,-1.428,-1.4078,-1.3724,-1.3652,-1.3652,-1.3724,-1.3796,-1.3845,-1.3878,-1.4179,-1.4302,-1.4331,-1.4359,-1.4605,0.0,0.0,-1.4869,0.0,-1.5232,0.0,0.0,0.0,0.0,0.0,0.0,0.0,0.0,-1.7828,-1.7882,-1.7882,-1.7882,0.0,0.0,0.0,0.0,0.0,-1.7882,-1.8425,-1.8901,-1.8725,-1.8738,-1.8806,-1.8806,-1.8344,-1.7936,-1.8126,-1.8085,-1.8208,-1.8791,-1.9483,-2.0311,-2.1334,-2.2837,-2.5111,-2.8698,-2.9632,-3.0932,-3.3558,-3.3954,0.0,0.0,0.0,0.0,0.0,0.0,0.0,0.0,0.0,0.0,-3.189,-3.1817,-3.1963,-3.2109,-3.2109,-3.2109,-3.2109,-3.1272,-3.0784,-3.0618,-2.9213,-2.8176,0.0,0.0,0.0,-2.5278,-2.5611,-2.5546,-2.5207,-2.5633,-2.5841,-2.5895,-2.5895,-2.5895,-2.5895,0.0,0.0,0.0,0.0,0.0,0.0,0.0,0.0,0.0,0.0,0.0,0.0,0.0,0.0,0.0,0.0,0.0,0.0,0.0,0.0,0.0,-1.3705,-1.3705,-1.3845,-1.42,-1.3817,-1.3807,-1.42,-1.4593,-1.4583,-1.4221,-1.5175,-1.5319,-1.4769,-1.4512,-1.4419,-1.4512,-1.4419,-1.4466,-1.464,-1.4971,0.0,0.0,0.0,0.0,0.0,0.0,0.0,0.0,-1.7842,-1.7882,-1.7882,-1.7882,0.0,0.0,0.0,0.0,0.0,-1.7882,-1.8696,-1.9307,-1.8275,-1.8439,-1.8806,-1.8806,-1.8344,-1.818,-1.9212,-1.9008,-1.8805,-1.9314,-2.0373,-2.1334,-2.2001,-2.4697,-2.8018,0.0,0.0,-3.2399,-3.353,0.0,0.0,0.0,0.0,0.0,0.0,0.0,0.0,0.0,0.0,0.0,-3.1683,-3.1683,-3.1683,-3.1683,-3.1683,-3.1683,-3.1683,-3.081,-2.9922,-2.9051,-2.8819,-2.7997,0.0,0.0,-2.6574,-2.5708,-2.5414,-2.524,-2.5175,-2.5251,-2.5535,-2.5895,-2.5895,-2.5895,-2.5895,0.0,0.0,0.0,0.0,0.0,0.0,0.0,0.0,0.0,0.0,0.0,0.0,0.0,0.0,0.0,0.0,0.0,0.0,0.0,0.0,-1.3621,-1.3621,-1.3621,-1.3838,-1.4293,-1.4097,-1.4221,-1.4676,-1.4894,-1.4946,-1.4789,-1.5173,-1.5038,-1.4499,-1.4424,-1.4373,-1.4373,-1.4373,-1.4373,-1.443,0.0,0.0,0.0,0.0,0.0,0.0,0.0,0.0,0.0,0.0,-1.7801,-1.7801,-1.7882,0.0,0.0,0.0,0.0,0.0,-1.7882,-1.852,-1.9062,-1.8534,-1.9049,-1.9646,-1.9334,-1.9062,-1.8927,-1.9144,-1.9239,-1.9347,-1.9472,-2.0765,-2.2452,-2.453,-2.6476,-2.8532,-3.0847,-3.0743,-3.101,0.0,0.0,0.0,0.0,0.0,0.0,0.0,0.0,0.0,0.0,0.0,0.0,0.0,-3.1434,-3.1214,-3.0763,-3.0429,-3.0423,-3.0885,-3.0165,-2.9322,-2.839,-2.8104,-2.73,-2.6132,0.0,-2.5768,-2.4635,-2.4763,-2.4803,-2.4836,-2.5076,-2.5469,-2.5895,-2.5895,-2.5895,-2.5895,0.0,0.0,0.0,0.0,0.0,0.0,0.0,0.0,0.0,0.0,0.0,0.0,0.0,0.0,0.0,0.0,0.0,0.0,0.0,-1.3621,-1.3621,-1.3621,-1.3621,-1.389,-1.4459,-1.4366,-1.4583,-1.5163,-1.5163,-1.5216,-1.5363,-1.4871,-1.4548,-1.4337,-1.437,-1.4373,-1.4373,-1.4373,-1.4373,-1.4373,0.0,0.0,0.0,0.0,0.0,0.0,0.0,0.0,0.0,0.0,0.0,0.0,0.0,0.0,0.0,-1.7882,-1.7882,-1.7882,-1.7882,-1.8357,-1.8779,-1.8629,-1.9456,-2.0292,-2.0311,-2.0311,-2.0297,-2.0243,-2.0501,-2.0516,-2.0024,-2.1073,-2.3098,-2.6352,-2.7576,-2.8597,-2.998,-2.983,0.0,0.0,0.0,0.0,0.0,0.0,0.0,0.0,0.0,0.0,0.0,0.0,0.0,0.0,-3.0803,-3.0519,-2.9941,-2.9145,-2.9112,-2.9769,-2.8919,-2.8137,-2.7404,-2.6921,-2.6234,-2.5452,-2.5564,-2.4971,-2.3908,-2.4148,-2.4377,-2.453,-2.488,-2.5371,-2.5895,-2.5895,-2.5895,-2.5895,0.0,0.0,0.0,0.0,0.0,0.0,0.0,0.0,0.0,0.0,0.0,0.0,0.0,0.0,0.0,0.0,0.0,0.0,0.0,-1.3621,-1.3621,-1.3621,-1.3621,-1.4035,-1.4925,-1.4521,-1.4749,-1.5639,-1.5639,-1.5704,-1.5836,-1.4492,-1.4217,-1.4822,-1.4417,-1.428,-1.4373,-1.4373,-1.4373,-1.4373,-1.4373,0.0,0.0,0.0,0.0,0.0,0.0,0.0,0.0,0.0,0.0,0.0,0.0,0.0,-1.7882,-1.7882,-1.7882,-1.7882,-1.7882,-1.8357,-1.8684,-1.8113,-1.8859,-2.0175,-2.1749,-2.2115,-2.259,-2.4218,-2.4041,-2.3084,-2.1444,-2.1586,-2.2884,-2.5868,-2.7564,-2.9188,-3.0976,0.0,0.0,0.0,0.0,0.0,0.0,0.0,0.0,0.0,0.0,0.0,0.0,0.0,0.0,0.0,0.0,-2.945,-2.934,-2.8571,-2.8208,-2.8245,-2.6669,-2.5673,-2.5223,-2.527,-2.4992,-2.4543,-2.4926,-2.4825,-2.4332,-2.3919,-2.4061,-2.4486,-2.453,-2.5098,-2.5895,-2.5895,-2.5895,-2.5895,0.0,0.0,0.0,0.0,0.0,0.0,0.0,0.0,0.0,0.0,0.0,0.0,0.0,0.0,0.0,0.0,0.0,0.0,0.0,-1.3621,-1.3621,-1.3621,-1.3621,-1.3921,-1.4552,-1.4676,-1.5049,-1.5691,-1.5401,-1.5164,-1.4924,-1.4552,-1.4344,-1.4361,-1.432,-1.4373,-1.4373,-1.4373,-1.4373,-1.4373,-1.4373,-1.4373,0.0,0.0,0.0,0.0,0.0,0.0,0.0,0.0,-1.724,-1.7528,-1.7638,-1.772,-1.7801,-1.7882,-1.7882,-1.7882,-1.7882,-1.8357,-1.8765,-1.8534,-1.9076,-2.0066,-2.1437,-2.2617,-2.3418,-2.3336,-2.4175,-2.457,-2.3389,-2.3556,-2.4419,-2.6235,-2.7932,-2.9298,0.0,0.0,0.0,0.0,0.0,0.0,0.0,0.0,0.0,0.0,0.0,0.0,0.0,0.0,0.0,0.0,0.0,-2.8726,-2.8726,-2.746,-2.6711,-2.6333,-2.589,-2.5347,-2.4659,-2.4703,-2.4437,-2.3963,-2.415,-2.3952,-2.35,-2.3349,-2.3569,-2.4071,-2.4683,-2.5317,-2.5895,-2.5895,-2.5895,-2.5895,0.0,0.0,0.0,0.0,0.0,0.0,0.0,0.0,0.0,0.0,0.0,0.0,0.0,0.0,0.0,0.0,0.0,0.0,-1.3621,-1.3621,-1.3621,-1.3621,-1.3621,-1.3838,-1.4293,-1.4614,-1.5007,-1.5473,-1.5007,-1.4614,-1.4354,-1.4366,-1.4306,-1.427,-1.4262,-1.4414,-1.4591,-1.4439,-1.4373,-1.4373,-1.4373,-1.4373,0.0,0.0,0.0,0.0,0.0,0.0,0.0,0.0,-1.6765,-1.7212,-1.7337,-1.7515,-1.772,-1.7801,-1.7842,-1.7842,-1.7842,-1.8085,-1.8395,-1.8395,-1.9003,-1.9957,-2.1493,-2.3149,-2.4284,-2.4189,-2.4469,-2.4603,-2.4287,-2.4242,-2.4642,0.0,-2.7745,0.0,0.0,0.0,0.0,0.0,0.0,0.0,0.0,0.0,0.0,0.0,0.0,0.0,0.0,0.0,0.0,0.0,0.0,-2.7575,-2.7575,-2.6464,-2.5596,-2.4989,-2.5145,-2.4819,-2.4028,-2.4028,-2.3831,-2.3504,-2.3504,-2.3307,-2.3001,-2.3001,-2.3285,-2.3809,-2.4639,-2.5251,-2.5666,-2.5666,-2.5764,-2.5895,0.0,0.0,0.0,0.0,0.0,0.0,0.0,0.0,0.0,0.0,0.0,0.0,0.0,0.0,0.0,0.0,0.0,0.0,-1.3621,-1.3621,-1.3621,-1.3621,-1.3621,-1.3828,-1.4283,-1.4304,-1.4521,-1.4987,-1.4521,-1.4354,-1.4503,-1.3886,-1.4052,-1.4866,-1.427,-1.4419,-1.5061,-1.458,-1.4373,-1.4373,-1.4373,-1.4373,-1.4373,0.0,0.0,0.0,0.0,0.0,0.0,0.0,-1.6182,-1.668,-1.671,-1.7157,-1.7679,-1.7679,-1.7679,-1.7679,-1.7679,-1.7625,-1.7529,-1.7529,-1.8435,-1.994,-2.2298,-2.3861,-2.5477,-2.7803,-2.536,-2.3082,-2.3974,-2.324,-2.3073,-2.476,-2.6883,0.0,0.0,0.0,0.0,0.0,0.0,0.0,0.0,0.0,0.0,0.0,0.0,0.0,0.0,0.0,0.0,0.0,0.0,0.0,-2.5824,-2.5625,-2.5148,-2.4426,-2.4224,-2.3694,-2.3001,-2.3001,-2.3001,-2.3001,-2.3001,-2.3001,-2.3001,-2.3001,-2.3285,-2.3777,-2.4279,-2.476,-2.5175,-2.5164,-2.548,-2.5895,0.0,0.0,0.0,0.0,0.0,0.0,0.0,0.0,0.0,0.0,0.0,0.0,0.0,0.0,0.0,0.0,0.0,0.0,-1.3621,-1.3621,-1.3621,-1.3621,-1.3621,-1.3683,-1.3817,-1.3828,-1.4045,-1.4511,-1.4045,-1.3828,-1.3876,-1.4122,-1.4199,-1.4127,-1.4451,-1.4537,-1.4307,-1.4392,-1.4326,-1.428,-1.4373,-1.4373,-1.4373,0.0,0.0,0.0,0.0,0.0,0.0,0.0,0.0,0.0,-1.6582,-1.685,-1.706,-1.7447,-1.757,-1.757,-1.757,-1.7822,-1.8235,-1.8662,-1.9661,-2.109,-2.3455,-2.3739,-2.4059,-2.6272,-2.4885,-2.3672,-2.5027,-2.504,-2.4962,-2.5484,0.0,0.0,0.0,0.0,0.0,0.0,0.0,0.0,0.0,0.0,0.0,0.0,0.0,0.0,0.0,0.0,0.0,0.0,0.0,0.0,-2.5824,-2.5204,-2.5,-2.5148,-2.4084,-2.3379,-2.3001,-2.3001,-2.3001,-2.3001,-2.3001,-2.3001,-2.3001,-2.3001,-2.3285,-2.3744,-2.3897,-2.4454,-2.5131,-2.4814,-2.5207,-2.5852,0.0,0.0,0.0,0.0,0.0,0.0,0.0,0.0,0.0,0.0,-1.4501,-1.4408,0.0,0.0,0.0,0.0,0.0,0.0,0.0,-1.3621,-1.3621,-1.3621,-1.3621,-1.3621,-1.3621,-1.3621,-1.3755,-1.4035,-1.3755,-1.3621,-1.3621,-1.3948,-1.4139,-1.4104,-1.4333,-1.4371,-1.4275,-1.432,-1.4269,-1.4222,-1.4326,-1.4373,-1.4373,0.0,0.0,0.0,0.0,0.0,0.0,0.0,0.0,0.0,-1.5932,-1.6367,-1.6752,-1.7102,-1.731,-1.7461,-1.7461,-1.7699,-1.812,-1.894,-1.9866,-2.0941,-2.263,-2.3771,-2.4766,-2.5761,-2.4544,-2.3738,-2.521,-2.5105,0.0,0.0,0.0,0.0,0.0,0.0,0.0,0.0,0.0,0.0,0.0,0.0,0.0,0.0,0.0,0.0,0.0,0.0,0.0,0.0,0.0,0.0,-2.5145,-2.4921,-2.4798,-2.4843,-2.3871,-2.3247,-2.2867,-2.2974,-2.3001,-2.3001,-2.3001,-2.3001,-2.3001,-2.3001,-2.3176,-2.3438,-2.3438,-2.3919,-2.4563,-2.429,-2.4683,-2.5295,0.0,0.0,0.0,0.0,0.0,0.0,0.0,0.0,0.0,0.0,-1.3621,-1.3621,0.0,0.0,0.0,0.0,0.0,0.0,0.0,-1.3621,-1.3621,-1.3621,-1.3621,-1.3621,-1.3621,-1.3621,-1.3621,-1.3621,-1.3621,-1.3621,-1.3621,-1.3703,-1.4,-1.4453,-1.4115,-1.4194,-1.4648,-1.4333,-1.4176,-1.4176,-1.4326,-1.4384,-1.4373,-1.4373,0.0,0.0,0.0,0.0,0.0,0.0,0.0,0.0,-1.5108,-1.58,-1.6637,-1.668,-1.6989,-1.7321,-1.7363,-1.7293,-1.7522,-1.8767,-1.963,-2.0322,-2.083,-2.3835,-2.638,-2.5628,-2.4374,-2.3707,-2.4779,-2.4138,-2.3785,0.0,0.0,0.0,0.0,0.0,0.0,0.0,0.0,0.0,0.0,0.0,0.0,0.0,0.0,0.0,0.0,0.0,0.0,0.0,0.0,0.0,-2.4112,-2.4622,-2.4593,0.0,-2.3765,-2.3375,-2.2673,-2.2828,-2.2903,-2.2936,-2.2979,-2.3001,-2.3001,-2.3001,-2.3001,-2.3001,-2.3001,-2.3296,-2.3722,-2.3678,-2.4017,-2.4486,0.0,0.0,0.0,0.0,0.0,0.0,0.0,0.0,0.0,0.0,0.0,0.0,0.0,0.0,0.0,0.0,0.0,0.0,0.0,-1.3621,-1.3621,-1.3621,-1.3621,-1.3621,-1.3621,-1.3621,-1.3621,-1.3621,-1.3621,-1.3621,-1.3631,-1.4355,-1.4562,-1.4374,-1.4746,-1.4715,-1.4372,-1.4164,-1.4057,-1.4057,-1.4186,-1.4326,-1.4373,-1.4373,-1.4373,0.0,0.0,0.0,0.0,0.0,0.0,0.0,-1.4971,-1.549,-1.6064,-1.6423,-1.6607,-1.6778,-1.7157,-1.7312,-1.7843,-1.983,-2.1747,-2.3093,-2.2753,-2.3328,-2.3856,-2.3223,-2.3903,-2.4674,-2.4922,-2.5132,0.0,0.0,0.0,0.0,0.0,0.0,0.0,0.0,0.0,0.0,0.0,0.0,0.0,0.0,0.0,0.0,0.0,0.0,0.0,0.0,0.0,-2.3642,-2.4112,-2.4243,-2.4458,0.0,-2.4104,-2.3668,-2.3435,-2.2396,-2.2106,-2.2488,-2.2848,-2.3001,-2.3001,-2.3001,-2.3001,-2.3001,-2.3001,-2.3296,-2.3689,-2.3296,-2.3722,-2.4432,0.0,0.0,0.0,0.0,0.0,0.0,0.0,0.0,0.0,0.0,0.0,0.0,0.0,0.0,0.0,0.0,0.0,0.0,0.0,0.0,-1.3621,-1.3621,-1.3621,-1.3621,-1.3621,-1.3621,-1.3621,-1.3621,-1.3621,-1.3621,-1.3631,-1.4335,-1.4542,-1.4314,-1.4613,-1.4592,-1.4283,-1.402,-1.3915,-1.3915,-1.414,-1.4222,-1.4326,-1.4373,-1.4373,-1.4373,-1.4373,0.0,0.0,0.0,0.0,0.0,0.0,0.0,-1.549,-1.5768,-1.5988,-1.6281,-1.6723,-1.6896,-1.7485,-1.9716,-2.1394,-2.2411,-2.2059,-2.2204,-2.223,-2.1721,-2.2756,-2.3778,-2.3778,-2.3968,0.0,0.0,0.0,0.0,0.0,0.0,0.0,0.0,0.0,0.0,0.0,0.0,0.0,0.0,0.0,0.0,0.0,-2.1812,0.0,0.0,-2.2662,-2.2962,-2.3276,-2.355,-2.3838,-2.4125,-2.3341,-2.2603,-2.1993,-2.1707,-2.1854,-2.2335,-2.2575,-2.2794,-2.3001,-2.3001,-2.3001,-2.3001,-2.3001,-2.3154,-2.3351,-2.3088,-2.3329,-2.3733,0.0,0.0,0.0,0.0,0.0,0.0,0.0,0.0,0.0,0.0,0.0,0.0,0.0,0.0,0.0,0.0,0.0,0.0,0.0,0.0,0.0,-1.3621,-1.3621,-1.3563,-1.3467,-1.3563,-1.3563,-1.3467,-1.3563,-1.3662,-1.3745,-1.421,-1.4469,-1.4542,-1.4542,-1.45,-1.4397,-1.4039,-1.3894,-1.3868,-1.4093,-1.4176,-1.4233,-1.4373,-1.4373,-1.4373,-1.4373,-1.4373,-1.4373,-1.4373,0.0,0.0,0.0,0.0,-1.5108,-1.5108,-1.5457,-1.5876,-1.6281,-1.6517,-1.7169,-1.9149,-2.0065,-2.0501,-2.0429,-2.0714,-2.0923,-2.0502,-2.1393,-2.2245,-2.214,0.0,0.0,0.0,0.0,0.0,0.0,0.0,0.0,0.0,0.0,0.0,0.0,0.0,0.0,0.0,0.0,0.0,-2.0699,0.0,-2.1407,-2.1511,-2.1969,-2.231,-2.2428,-2.2831,-2.3067,-2.308,-2.233,-2.1374,-2.03,-2.0994,-2.1603,-2.2073,-2.2248,-2.2531,-2.2892,-2.2968,-2.3001,-2.3001,-2.3001,-2.3001,-2.3001,-2.3001,-2.3001,-2.3012,0.0,0.0,0.0,0.0,0.0,0.0,0.0,0.0,0.0,0.0,-1.3621,-1.3621,0.0,0.0,0.0,0.0,0.0,0.0,-1.3621,0.0,0.0,-1.3621,-1.3621,-1.3362,-1.2909,-1.3362,-1.3362,-1.2919,-1.3362,-1.3828,-1.4221,-1.4687,-1.5121,-1.5504,-1.5504,-1.5277,-1.4873,-1.4417,-1.4139,-1.3973,-1.401,-1.415,-1.4373,-1.4373,-1.4373,-1.4373,-1.4373,-1.4373,-1.4373,-1.4373,-1.4373,0.0,0.0,0.0,-1.5108,-1.5108,-1.5457,-1.5832,-1.5888,-1.6587,-1.7636,-1.8719,-1.9166,-1.9291,-1.917,-1.9198,-1.9237,-1.9159,-2.0466,-2.1472,0.0,0.0,0.0,0.0,0.0,0.0,0.0,0.0,0.0,0.0,0.0,0.0,0.0,0.0,0.0,0.0,0.0,0.0,-2.0699,-2.0777,-2.1002,-2.1498,-2.159,-2.1877,-2.24,-2.2452,-2.2533,-2.2479,-2.1786,-2.1284,-2.1126,-2.059,-2.0598,-2.1101,-2.1953,-2.2357,-2.2444,-2.2837,-2.3001,-2.3001,-2.3001,-2.3001,-2.3001,-2.3001,-2.3001,-2.3056,0.0,0.0,0.0,0.0,0.0,0.0,0.0,0.0,0.0,0.0,0.0,-1.3621,0.0,0.0,0.0,-1.3621,-1.3621,-1.3621,-1.3621,-1.3621,-1.3621,-1.3621,-1.3314,-1.3064,-1.2812,-1.2735,-1.2735,-1.2812,-1.2735,-1.3382,-1.4697,-1.4623,-1.4968,-1.5691,-1.5691,-1.5432,-1.4966,-1.45,-1.4094,-1.3773,-1.3868,-1.3962,-1.4093,-1.4233,-1.428,-1.4326,-1.4373,-1.4373,-1.4373,-1.4373,-1.4373,-1.4373,-1.4373,0.0,0.0,0.0,-1.5051,-1.5457,-1.5744,-1.5944,-1.6384,-1.743,-1.7691,-1.7803,-1.8027,-1.8494,-1.8819,-1.8519,-1.9303,0.0,0.0,0.0,0.0,0.0,0.0,0.0,0.0,0.0,0.0,0.0,0.0,0.0,0.0,0.0,0.0,0.0,0.0,-2.0699,-2.0699,-2.0699,-2.083,-2.1028,-2.1028,-2.1159,-2.142,-2.1734,-2.1712,-2.1331,-2.1338,-2.0948,-2.0227,-2.0114,-2.0413,-2.095,-2.1319,-2.1658,-2.1942,-2.2422,-2.2619,-2.2641,-2.2903,-2.3001,-2.3001,-2.3001,-2.3001,-2.3034,0.0,0.0,0.0,0.0,0.0,0.0,0.0,0.0,0.0,0.0,0.0,0.0,0.0,0.0,0.0,0.0,-1.3621,-1.3515,-1.342,-1.3276,-1.3266,-1.3372,-1.2871,-1.2579,-1.2579,-1.2197,-1.2147,-1.2433,-1.2147,-1.2878,-1.4556,-1.4334,-1.4686,-1.5624,-1.5801,-1.5608,-1.5142,-1.4676,-1.421,-1.3834,-1.3815,-1.3821,-1.3868,-1.4093,-1.414,-1.4186,-1.428,-1.4326,-1.4326,-1.4326,-1.4373,-1.4373,-1.4373,-1.4373,0.0,0.0,0.0,-1.5051,-1.5656,-1.5445,-1.5325,-1.626,-1.6447,-1.6584,-1.708,-1.7766,-1.8215,0.0,-1.8192,0.0,0.0,0.0,0.0,0.0,0.0,0.0,0.0,0.0,0.0,0.0,0.0,0.0,0.0,0.0,0.0,0.0,0.0,-2.0489,-2.0489,-2.0633,-2.0699,-2.0699,-2.0699,-2.0699,-2.0699,-2.108,-2.1066,-2.0533,-2.081,-2.0416,-1.9488,-1.9808,-2.0151,-2.0511,-2.0818,-2.1144,-2.1625,-2.2116,-2.239,-2.2521,-2.2859,-2.3001,-2.3001,-2.3001,-2.3001,-2.3023,0.0,0.0,0.0,0.0,0.0,0.0,0.0,0.0,0.0,0.0,0.0,0.0,-1.3621,-1.3621,-1.3621,-1.3621,-1.3621,-1.3362,-1.2861,-1.2393,-1.2295,-1.2812,-1.2344,0.0,-1.2049,-1.1999,-1.181,-1.1368,-1.181,-1.247,-1.3422,-1.3951,-1.4615,-1.5439,-1.6093,-1.6084,-1.5618,-1.5163,-1.4748,-1.439,-1.3999,-1.3868,-1.3973,-1.402,-1.402,-1.402,-1.402,-1.4093,-1.4222,-1.4222,-1.4269,-1.4373,-1.4373,-1.4373,-1.4373,0.0,0.0,0.0,-1.5567,-1.5445,-1.5244,-1.5736,-1.5836,-1.5969,-1.6417,-1.6584,-1.6726,-1.7167,0.0,0.0,0.0,0.0,0.0,0.0,0.0,0.0,0.0,0.0,0.0,0.0,0.0,0.0,0.0,0.0,0.0,0.0,0.0,-1.9852,-1.9852,-2.0411,-2.0699,-2.0699,-2.0699,-2.0699,-2.0699,-2.0738,-2.0714,-2.069,-2.0064,-1.9773,-1.9698,-1.9493,-1.9473,-1.9539,-2.0467,-2.1144,-2.1625,-2.2116,-2.2575,-2.2968,-2.299,-2.3001,-2.3001,-2.3001,-2.3001,-2.3067,0.0,0.0,0.0,0.0,0.0,0.0,0.0,0.0,0.0,0.0,0.0,0.0,0.0,-1.3314,-1.3064,-1.3064,-1.3064,-1.2871,-1.2335,-1.2433,-1.2433,-1.2295,-1.181,-1.1569,-1.1569,-1.1217,-1.1116,-1.1326,-1.1116,-1.167,-1.2899,-1.3161,-1.3738,-1.4655,-1.5879,-1.596,-1.5235,-1.507,-1.4562,-1.3907,-1.373,-1.3716,-1.3763,-1.3821,-1.3868,-1.3868,-1.3973,-1.4104,-1.4222,-1.4222,-1.428,-1.4373,-1.4373,-1.4373,-1.4466,-1.4743,-1.4651,-1.4558,-1.5187,-1.5232,-1.5153,-1.5322,-1.5579,-1.592,-1.638,-1.6785,-1.7111,-1.718,0.0,0.0,0.0,0.0,0.0,0.0,0.0,0.0,0.0,0.0,0.0,0.0,0.0,0.0,0.0,0.0,0.0,0.0,0.0,0.0,-1.9799,-2.0299,-2.0562,-2.0562,-2.0562,-2.0612,-2.0699,-2.0699,-2.0498,-2.0131,-2.0204,-1.9854,-1.9156,-1.9349,-1.9421,-1.9441,-1.9779,-2.0205,-2.0708,-2.1188,-2.1483,-2.1691,-2.2324,-2.2564,-2.2597,-2.2892,-2.3001,-2.3023,0.0,0.0,0.0,0.0,0.0,0.0,0.0,0.0,0.0,-1.3563,0.0,0.0,0.0,0.0,-1.253,-1.253,-1.2384,-1.2147,-1.181,-1.194,-1.194,-1.176,-1.1267,-1.1124,-1.1326,-1.0769,-1.0667,-1.1023,-1.0667,-1.1044,-1.2114,-1.2522,-1.3109,-1.398,-1.53,-1.5577,-1.4997,-1.4997,-1.4552,-1.3848,-1.3848,-1.3755,-1.3631,-1.3893,-1.3851,-1.3784,-1.3999,-1.409,-1.4089,-1.4409,-1.4408,-1.4312,-1.4522,-1.4504,-1.4466,-1.4789,-1.4651,-1.4466,-1.4789,-1.5108,-1.5277,-1.5153,-1.5579,-1.6064,-1.6238,-1.6566,-1.6892,-1.6927,0.0,0.0,0.0,0.0,0.0,0.0,0.0,0.0,0.0,0.0,0.0,0.0,0.0,0.0,0.0,0.0,0.0,0.0,0.0,0.0,-1.9642,-2.0137,-2.041,-2.041,-2.0461,-2.0562,-2.0612,-2.0662,-2.0498,-2.0118,-2.0227,-1.9763,-1.8855,-1.9137,-1.9149,-1.896,-1.9277,-1.979,-2.0413,-2.0729,-2.0959,-2.1188,-2.1996,-2.2313,-2.2379,-2.2826,-2.3001,-2.3001,0.0,0.0,0.0,0.0,0.0,0.0,0.0,0.0,-1.2967,-1.3467,0.0,0.0,0.0,0.0,0.0,-1.1959,-1.156,-1.1267,-1.1276,-1.082,-1.0777,-1.1267,-1.0769,-1.0718,-1.1276,-1.0769,-1.0522,-1.0522,-1.0522,-1.0645,-1.1032,-1.2158,-1.2881,-1.3331,-1.4483,-1.4976,-1.4956,-1.4976,-1.4707,-1.4283,-1.4283,-1.4024,-1.3683,-1.4117,-1.4014,-1.3693,-1.4128,-1.4063,-1.3978,-1.4891,-1.4647,-1.4116,-1.4688,-1.466,-1.4373,-1.4373,-1.4373,-1.4373,0.0,0.0,0.0,-1.5232,-1.5812,-1.638,-1.592,0.0,-1.5964,0.0,0.0,0.0,0.0,0.0,0.0,0.0,0.0,0.0,0.0,0.0,0.0,0.0,0.0,0.0,0.0,0.0,0.0,0.0,0.0,-1.8879,-1.9336,-1.9912,-2.0182,-2.0182,-2.041,-2.0511,-2.0511,-2.0612,-2.0699,-2.0712,-2.0118,-1.9552,-1.9011,-1.8899,-1.8532,-1.8054,-1.8982,-1.9921,-2.0884,-2.0895,-2.1112,-2.1592,-2.2095,-2.2302,-2.2357,-2.2826,-2.3001,-2.3001,0.0,0.0,0.0,0.0,0.0,-1.3025,-1.289,-1.2745,-1.2598,0.0,0.0,0.0,-1.2246,-1.181,-1.1318,-1.0964,-1.1175,-1.1124,-1.0777,-1.0972,-1.0972,-1.0718,-1.0573,-1.0573,-1.0718,-1.0573,-1.0522,-1.0522,-1.0522,-1.0775,-1.1225,-1.1861,-1.2469,-1.2984,-1.4033,-1.4314,-1.4014,-1.4355,-1.4231,-1.3807,-1.3807,-1.3931,-1.4097,-1.389,-1.3931,-1.4086,-1.3879,-1.399,-1.4366,-1.4629,-1.4595,-1.4488,-1.4398,-1.4388,-1.4373,-1.4373,-1.4373,-1.4373,-1.4373,0.0,0.0,0.0,0.0,0.0,0.0,0.0,0.0,0.0,0.0,0.0,0.0,0.0,0.0,0.0,0.0,0.0,0.0,0.0,0.0,0.0,0.0,0.0,0.0,0.0,0.0,0.0,-1.8074,-1.8703,-1.881,-1.9621,-2.0042,-2.0042,-2.0182,-2.0347,-2.0511,-2.0612,-2.0699,-2.0699,-2.0549,-2.0118,-1.9552,-1.9131,-1.8806,-1.8543,-1.8438,-1.8938,-1.9845,-2.0194,-2.0424,-2.0631,-2.1461,-2.1789,-2.1887,-2.2706,-2.3001,-2.3001,0.0,0.0,0.0,0.0,0.0,-1.2538,-1.2507,-1.2365,-1.22,0.0,0.0,0.0,-1.141,-1.1116,-1.082,-1.0522,-1.0769,-1.082,-1.0522,-1.0769,-1.082,-1.0522,-1.0522,-1.0522,-1.0522,-1.0522,-1.0522,-1.0522,-1.0522,-1.0769,-1.1318,-1.176,-1.2295,-1.2832,-1.3646,-1.3869,-1.3631,-1.39,-1.3859,-1.3631,-1.3828,-1.3952,-1.4035,-1.4148,-1.4117,-1.4035,-1.4148,-1.4291,-1.4476,-1.4862,-1.5101,-1.513,-1.4832,-1.4639,-1.4547,-1.4679,-1.4537,-1.4326,-1.4373,-1.4743,-1.5187,-1.5656,0.0,0.0,-1.6484,-1.6312,0.0,0.0,0.0,0.0,0.0,0.0,0.0,0.0,0.0,0.0,0.0,0.0,0.0,0.0,0.0,0.0,0.0,0.0,0.0,0.0,-1.8162,-1.869,-1.9101,-1.9636,-1.9926,-1.9926,-2.0029,-2.0195,-2.0309,-2.0511,-2.0612,-2.0612,-2.0662,-2.0385,-1.9798,-1.95,-1.9024,-1.8496,-1.8396,-1.864,-1.9146,-1.9637,-1.99,-2.0162,-2.0981,-2.1286,-2.1407,-2.2357,-2.2717,-2.2739,0.0,0.0,-1.0775,-1.1364,-1.1528,-1.1738,-1.2165,-1.1922,-1.1696,0.0,-1.1401,-1.1023,-1.0565,-1.0522,-1.0522,-1.0522,-1.0522,-1.0522,-1.0522,-1.0522,-1.0522,-1.0522,-1.0522,-1.0522,-1.0522,-1.0522,-1.0522,-1.0522,-1.0573,-1.082,-1.1318,-1.1859,-1.2335,-1.2812,-1.3362,-1.3621,-1.3621,-1.3621,-1.3621,-1.3652,-1.4066,-1.4045,-1.3848,-1.4573,-1.4397,-1.3859,-1.4583,-1.4614,-1.4438,-1.5318,-1.5758,-1.5836,-1.55,-1.5095,-1.4733,-1.5023,-1.4703,-1.4233,-1.4392,-1.4741,-1.5142,-1.5623,-1.6064,0.0,-1.5776,-1.572,-1.5588,0.0,0.0,0.0,0.0,0.0,0.0,0.0,0.0,0.0,0.0,0.0,0.0,0.0,0.0,0.0,0.0,-1.6876,-1.7224,-1.8215,-1.8405,-1.8877,-1.9748,-1.9798,-1.9798,-1.9798,-1.9926,-1.999,-1.999,-2.036,-2.0511,-2.0511,-2.0662,-2.0435,-1.9901,-1.985,-1.9267,-1.8278,-1.8575,-1.8723,-1.8764,-1.9135,-1.9659,-2.0129,-2.0675,-2.0928,-2.1037,-2.1898,-2.2269,-2.2379,0.0,-1.0097,-1.0643,-1.0783,-1.1141,-1.1336,-1.1005,-1.1021,-1.0953,-1.0624,-1.0616,-1.0624,-1.0522,-1.0522,-1.0522,-1.0522,-1.0522,-1.0522,-1.0522,-1.0522,-1.0522,-1.0522,-1.0522,-1.0522,-1.0522,-1.0522,-1.0522,-1.0522,-1.0922,-1.1226,-1.1326,-1.2236,-1.2716,-1.2812,-1.3362,-1.3621,-1.3621,-1.3621,-1.3621,-1.3621,-1.3714,-1.4138,-1.4666,-1.4097,-1.4242,-1.4656,-1.4086,-1.4066,-1.4386,-1.4945,-1.5487,-1.5836,-1.5363,-1.5004,-1.4807,-1.5231,-1.4827,-1.4309,-1.4698,-1.4668,-1.4651,-1.5096,-1.5501,0.0,-1.6095,-1.6411,-1.6466,0.0,0.0,0.0,0.0,0.0,0.0,0.0,0.0,0.0,0.0,0.0,0.0,0.0,0.0,0.0,0.0,-1.6663,-1.6854,-1.7534,-1.8415,-1.9133,-1.9773,-1.9798,-1.9798,-1.9798,-1.9926,-1.999,-1.999,-2.036,-2.0511,-2.0511,-2.0662,-2.0649,-2.0498,-2.0016,-1.9695,-1.9436,-1.8576,-1.8429,-1.8758,-1.8802,-1.9353,-2.0129,-2.0675,-2.0928,-2.1005,-2.1516,-2.1985,-2.2335,-0.9496,-0.9811,-1.0177,-1.0467,-1.0693,-1.0842,-1.0656,-1.0709,-1.0601,-1.0177,-1.0205,-1.0257,-1.0257,-1.0316,-1.0419,-1.0419,-1.0419,-1.0419,-1.0419,-1.0419,-1.0419,-1.0419,-1.047,-1.0522,-1.0522,-1.0522,-1.0522,-1.0522,-1.0769,-1.1167,-1.166,-1.2197,-1.2677,-1.3208,-1.3467,-1.3621,-1.3621,-1.3621,-1.3745,-1.3941,-1.3714,-1.4035,-1.4624,-1.4397,-1.4449,-1.4624,-1.4386,-1.4449,-1.4759,-1.5452,-1.5901,-1.6102,-1.5972,-1.5584,-1.5258,-1.5648,-1.5265,-1.4701,-1.4761,-1.486,-1.4888,-1.4901,-1.5188,0.0,0.0,-1.5788,-1.5932,-1.5322,0.0,0.0,0.0,0.0,0.0,0.0,0.0,0.0,0.0,0.0,0.0,0.0,0.0,0.0,0.0,-1.6522,-1.6873,-1.7727,-1.8555,-1.9246,-1.9773,-1.9798,-1.9798,-1.9798,-1.9862,-1.9926,-1.999,-2.0246,-2.041,-2.0511,-2.0662,-2.0699,-2.0712,-2.0385,-2.0067,-1.9747,-1.9214,-1.8873,-1.884,-1.9003,-1.936,-1.9834,-2.0314,-2.05,-2.0587,-2.1319,-2.1745,-2.2018,-0.9563,-0.9614,-0.9754,-1.018,-1.0232,-1.0279,-1.0386,-1.0447,-1.0348,-1.0037,-1.0052,-1.0098,-1.0098,-1.0254,-1.0337,-1.0407,-1.0343,-1.0296,-1.0306,-1.0304,-1.0316,-1.0316,-1.0419,-1.047,-1.047,-1.0573,-1.0565,-1.047,-1.0761,-1.1259,-1.1859,-1.2157,-1.2735,-1.3467,-1.3563,-1.3621,-1.3621,-1.3621,-1.389,-1.4273,-1.3807,-1.3952,-1.4469,-1.4656,-1.4552,-1.4355,-1.4728,-1.4976,-1.5245,-1.6001,-1.6301,-1.6431,-1.6524,-1.6165,-1.5756,-1.6058,-1.5627,-1.5049,-1.4951,-1.5033,-1.5049,-1.4763,0.0,-1.5107,0.0,0.0,0.0,0.0,0.0,0.0,-1.5424,0.0,0.0,0.0,0.0,0.0,0.0,0.0,0.0,0.0,0.0,0.0,0.0,-1.6622,-1.7061,-1.7978,-1.8656,-1.9208,-1.9623,-1.9748,-1.9798,-1.9798,-1.9798,-1.9862,-1.999,-2.0131,-2.0296,-2.0511,-2.0662,-2.0699,-2.0699,-2.0699,-2.0435,-1.9965,-1.985,-1.947,-1.9027,-1.9264,-1.9362,-1.9456,-1.9921,-2.0205,-2.0369,-2.1092,-2.1432,-2.1746,-0.9607,-0.9614,-0.9629,-0.9665,-0.9665,-0.9717,-0.9717,-0.9836,-0.9941,-1.0007,-1.0257,-1.0447,-1.0447,-1.0447,-1.0623,-1.0864,-1.0402,-1.018,-1.0486,-1.0384,-1.0316,-1.0316,-1.0419,-1.0419,-1.0324,-1.0922,-1.0922,-1.0316,-1.1792,-1.2138,-1.1418,-1.2783,-1.3218,-1.2909,-1.3372,-1.3621,-1.3621,-1.3621,-1.389,-1.4273,-1.3807,-1.4138,0.0,-1.4066,-1.3993,-1.4314,-1.4366,-1.4914,-1.5628,0.0,-1.6042,-1.6384,0.0,-1.6119,-1.5763,-1.6233,-1.5508,-1.4765,-1.5552,-1.4993,0.0,0.0,-1.4638,0.0,0.0,0.0,-1.57,-1.5656,0.0,-1.6392,-1.6504,0.0,0.0,0.0,0.0,0.0,0.0,0.0,0.0,0.0,0.0,0.0,0.0,0.0,-1.7338,-1.7463,-1.8442,-1.9008,-1.912,-1.9547,-1.9798,-1.9798,-1.9798,-1.9862,-1.999,-2.0131,-2.0296,-2.0511,-2.0662,-2.0699,-2.0699,-2.0699,-2.0649,-2.0549,-2.0016,-1.9784,-1.9611,-1.9116,-1.9136,-1.9516,-1.9907,-2.0453,-2.0955,-2.0456,-2.0941,-2.1697,-0.9614,-0.9614,-0.9614,-0.9614,-0.9614,-0.9614,-0.9681,-0.9903,-1.0015,-0.9807,-1.0067,-1.0275,-1.0275,-1.0337,-1.0527,-1.085,-1.0459,-1.0249,-1.0391,-1.0144,-1.0007,-1.0007,-1.0154,-1.0154,-1.011,-1.0411,-1.0565,-1.0675,-1.136,-1.181,-1.2026,-1.2657,-1.2987,-1.3064,-1.3266,-1.3409,-1.3467,-1.3467,-1.3782,-1.4273,0.0,-1.4014,0.0,-1.4169,-1.4304,-1.4707,-1.4707,-1.4956,-1.537,0.0,-1.6042,0.0,0.0,0.0,0.0,-1.5597,-1.5226,-1.4841,0.0,0.0,0.0,0.0,0.0,0.0,-1.4439,0.0,-1.549,0.0,0.0,0.0,0.0,0.0,0.0,0.0,-1.662,0.0,0.0,0.0,0.0,0.0,0.0,0.0,0.0,0.0,0.0,0.0,0.0,-1.8694,-1.8958,-1.9522,-1.9798,-1.9798,-1.9798,-1.9914,-2.0131,-2.0182,-2.0334,-2.0612,-2.0662,-2.0699,-2.0699,-2.0699,-2.0699,-2.0712,-2.0435,-2.0118,-1.9797,-1.9461,-1.9204,-1.9113,-1.9519,-2.0262,-2.1042,-2.0709,-2.1118,-2.1761,-0.9614,-0.9614,-0.9614,-0.9614,-0.9614,-0.9621,-0.9732,-0.994,-1.0036,-0.9768,-1.0031,-1.0265,-1.0353,-1.0512,-1.0723,-1.1004,-1.0736,-1.0457,-1.0368,-1.0119,-0.9896,-0.9799,-0.9947,-0.9999,-0.9947,-1.0249,-1.0557,-1.082,-1.1309,-1.1859,-1.248,-1.2618,-1.289,-1.3218,-1.3218,-1.3337,-1.3565,-1.3555,-1.3918,-1.4398,-1.3993,-1.3931,-1.4117,-1.4117,-1.448,-1.4976,-1.4852,-1.4976,-1.5266,-1.5815,-1.5866,0.0,-1.5535,0.0,-1.5784,0.0,0.0,-1.5111,-1.478,0.0,0.0,0.0,0.0,0.0,0.0,0.0,0.0,0.0,0.0,0.0,0.0,0.0,-1.6522,-1.6522,0.0,-1.6522,0.0,0.0,0.0,0.0,0.0,0.0,0.0,0.0,0.0,0.0,-1.7664,0.0,-1.8769,-1.9309,-1.966,-1.9798,-1.9862,-1.9965,-2.0182,-2.0233,-2.0448,-2.0699,-2.0699,-2.0599,-2.0448,-2.0599,-2.0599,-2.0435,-2.0649,-2.0435,-2.0042,-1.9801,-1.9557,-1.9282,-1.9358,-2.0121,-2.1123,-2.0808,-2.1096,-2.1578,-0.9614,-0.9614,-0.9614,-0.9614,-0.9614,-0.9614,-0.9614,-0.9621,-0.9738,-1.0046,-1.0368,-1.0697,-1.1011,-1.1387,-1.1578,-1.1593,-1.1291,-1.0968,-1.0594,-1.0398,-1.0134,-0.9814,-0.9947,-0.9947,-0.9799,-1.0947,-1.125,-1.06,-1.2276,-1.289,-1.2529,-1.2939,-1.317,-1.3218,-1.3218,-1.3469,-1.3902,-1.4033,-1.4338,-1.4768,-1.4419,-1.4024,-1.3641,0.0,-1.421,-1.4945,-1.449,0.0,0.0,-1.5183,-1.5328,0.0,0.0,0.0,0.0,0.0,0.0,0.0,0.0,0.0,0.0,-1.4407,0.0,0.0,0.0,0.0,-1.4558,0.0,0.0,0.0,-1.6423,-1.6522,-1.6522,-1.6522,-1.6522,0.0,0.0,0.0,0.0,0.0,0.0,0.0,0.0,0.0,0.0,-1.6547,-1.7087,-1.7652,-1.8204,-1.8756,-1.9284,-1.9786,-1.9926,-2.0042,-2.0182,-2.0398,-2.0562,-2.0699,-2.0699,-2.0385,-1.985,-2.0435,-2.0385,-1.985,-2.0448,-2.0712,-2.0649,-2.0029,-2.0032,-2.0353,-1.9727,-2.0203,-2.1211,-2.0426,-2.054,-2.1031,-0.9614,-0.9614,-0.9614,-0.9614,-0.9614,-0.9687,-0.9899,-1.0119,-1.0455,-1.0997,-1.1348,-1.167,-1.1992,-1.2131,-1.2109,-1.1889,-1.1582,-1.1165,-1.0624,-1.0343,-1.0019,-0.9688,-0.9725,-0.988,-1.0198,-1.06,-1.1057,-1.1569,-1.2157,-1.2559,-1.2783,-1.292,-1.3007,-1.3007,-1.3007,-1.3154,-1.3372,-1.3691,-1.3821,-1.376,0.0,-1.3649,-1.3621,0.0,0.0,-1.4562,-1.4707,-1.4966,0.0,-1.5401,-1.5556,-1.5556,-1.478,-1.5173,-1.5773,-1.4997,-1.4769,0.0,0.0,0.0,-1.45,-1.4345,0.0,0.0,0.0,0.0,0.0,0.0,0.0,0.0,0.0,-1.6522,-1.6522,-1.6522,-1.6522,-1.6522,0.0,0.0,0.0,0.0,0.0,0.0,0.0,0.0,0.0,-1.6409,-1.568,-1.5948,0.0,-1.853,-1.9058,-1.9284,-1.975,-2.0042,-2.0182,-2.041,-2.0562,-2.0699,-2.0699,-2.0599,-2.0385,-2.0169,-2.022,-2.0385,-2.0182,-2.0334,-2.0649,-2.0067,-2.0137,-2.054,-1.983,-1.9989,-2.0679,-2.0275,-2.0506,-2.1053,-0.9636,-0.9614,-0.9614,-0.9614,-0.9614,-0.9724,-1.0053,0.0,0.0,0.0,-1.2006,0.0,-1.2658,0.0,-1.2562,0.0,-1.1911,-1.145,-1.0799,-1.0346,-0.9958,-0.9629,-0.9614,-0.9769,-1.0087,-1.0498,-1.1057,-1.1769,-1.2175,-1.2578,-1.2881,-1.2881,-1.2881,-1.2881,-1.2881,-1.3018,-1.3283,-1.3769,-1.374,-1.34,0.0,-1.356,0.0,0.0,-1.39,-1.4324,0.0,-1.4614,-1.4769,-1.4904,-1.5059,-1.509,-1.449,-1.4945,-1.5566,-1.4976,-1.4914,-1.507,-1.5204,-1.5152,0.0,-1.4635,-1.4676,0.0,-1.4451,0.0,0.0,0.0,0.0,0.0,0.0,-1.6163,-1.625,-1.625,-1.638,-1.6522,0.0,-1.6522,0.0,0.0,0.0,0.0,0.0,0.0,-1.4951,-1.6409,-1.553,-1.5683,0.0,0.0,-1.8819,-1.897,-1.9699,-2.0131,-2.0182,-2.0448,-2.0612,-2.0699,-2.0699,-2.0599,-2.0385,-2.0169,-2.0233,-2.0385,-2.0169,-2.0334,-2.0649,-2.0283,-2.0462,-2.0929,-2.039,-2.0511,-2.0959,-2.0328,-2.0324,-2.0604,-0.968,-0.9629,-0.9636,-0.9636,-0.9629,0.0,0.0,0.0,-1.1319,0.0,-1.2365,-1.2694,-1.3023,-1.306,-1.2914,-1.2555,-1.2241,-1.1772,-1.1092,-1.047,-0.9972,-0.9629,-0.9614,-0.9614,-0.9666,-1.0694,-1.1209,-1.1301,-1.2372,-1.2881,-1.2881,-1.2881,-1.2881,-1.2881,-1.2881,-1.3105,-1.3506,-1.4123,-1.4136,-1.3709,-1.3547,-1.3705,-1.4102,-1.379,0.0,-1.4283,-1.3838,-1.3983,-1.4304,-1.3838,-1.4003,-1.4397,-1.4324,-1.4956,-1.5722,-1.5701,-1.6001,-1.6249,-1.5835,-1.6022,-1.6136,-1.5245,0.0,0.0,0.0,0.0,-1.4356,0.0,0.0,0.0,0.0,-1.549,-1.5788,-1.5788,-1.6194,-1.6479,-1.6466,-1.6479,-1.6522,0.0,0.0,0.0,0.0,-1.6421,-1.6396,-1.6509,-1.6421,-1.6635,0.0,0.0,0.0,-1.892,-1.9787,-2.0182,-2.0182,-2.0549,-2.0699,-2.0699,-2.0699,-2.0385,-1.985,-2.0385,-2.0334,-1.985,-2.0385,-2.0649,-2.0662,-2.0738,-2.1041,-2.1551,-2.1445,-2.1788,-2.2058,-2.0658,-2.0085,-1.99,-0.968,-0.9811,-0.9972,0.0,-0.9775,-0.9885,0.0,0.0,0.0,0.0,-1.3038,-1.3367,-1.3697,-1.3733,-1.3404,-1.2592,-1.2445,0.0,0.0,0.0,0.0,-0.9636,-0.9614,-0.9976,-1.0795,-1.1049,-1.161,-1.2471,-1.2783,-1.2881,-1.2881,-1.2881,-1.2881,-1.2881,-1.2881,-1.2939,-1.3096,-1.388,-1.4241,-1.426,-1.4013,-1.4041,0.0,0.0,-1.4718,-1.48,-1.4687,-1.4945,-1.5266,-1.48,-1.5183,-1.567,-1.4635,-1.5183,-1.6136,-1.5784,-1.5773,-1.5918,-1.6146,-1.6042,-1.5804,-1.5566,-1.5339,-1.5111,0.0,0.0,0.0,0.0,0.0,0.0,0.0,0.0,-1.5788,-1.5788,-1.6194,-1.638,-1.602,-1.6293,0.0,-1.6522,0.0,0.0,0.0,-1.5001,-1.4713,-1.6396,-1.4963,-1.4813,0.0,0.0,0.0,-1.8405,-1.9584,-2.0182,-2.0182,-2.0549,-2.0699,-2.0699,-2.0699,-2.0599,-2.0448,-2.0169,-1.9965,-1.9798,-1.9952,-2.0016,-2.0105,-2.0952,-2.1642,-2.2176,-2.2027,-2.2233,-2.2411,-2.1174,-2.0859,-2.1073,-0.9892,-1.0016,-1.025,-1.0485,0.0,0.0,-1.1202,-1.1406,0.0,-1.2877,-1.3294,0.0,-1.355,-1.3558,-1.3221,-1.2387,-1.2182,0.0,-1.0653,0.0,0.0,-0.9636,-0.9829,-1.0241,-1.0854,-1.136,-1.1918,-1.2529,-1.2783,-1.2881,-1.2881,-1.2881,-1.2881,-1.2881,-1.2881,-1.2881,-1.293,-1.3584,-1.392,-1.4066,-1.4265,0.0,0.0,-1.4842,-1.5245,-1.5577,-1.537,-1.5339,-1.5318,-1.4852,-1.5183,-1.5639,-1.4852,-1.5287,-1.6063,-1.6011,-1.5991,-1.6042,-1.6312,-1.6187,-1.5991,-1.5991,-1.5794,-1.5546,-1.5339,-1.5153,-1.4996,0.0,0.0,0.0,0.0,0.0,0.0,-1.5788,-1.602,-1.6107,-1.5832,-1.6194,0.0,0.0,-1.6522,0.0,0.0,-1.5352,-1.5151,-1.6421,-1.5339,0.0,0.0,0.0,0.0,-1.8204,-1.9749,-2.0476,-2.0182,-2.0796,-2.0948,-2.0699,-2.0699,-2.0699,-2.0712,-2.0334,-2.0067,-1.9798,-2.0067,-2.0067,-1.99,-2.1056,-2.1811,-2.2315,-2.2636,-2.2905,-2.3009,-2.2194,-2.2027,-2.209,-1.0228,-1.0309,-1.0629,0.0,0.0,0.0,0.0,-1.1926,0.0,-1.2928,0.0,-1.3323,-1.3038,-1.2972,-1.2701,-1.2022,0.0,-1.135,-1.0631,-1.0287,-0.9958,-0.9732,-1.0138,-1.0454,-1.0608,-1.1569,-1.2126,-1.2175,-1.2676,-1.2881,-1.2881,-1.2881,-1.2881,-1.2881,-1.2881,-1.291,-1.2988,-1.335,-1.3586,-1.3726,-1.4413,-1.47,-1.4763,-1.5046,-1.568,-1.6332,-1.5918,-1.5515,-1.5101,-1.4573,-1.4749,-1.5152,-1.5038,-1.5359,-1.5856,-1.626,-1.6384,-1.6384,-1.6384,-1.6384,-1.6384,-1.6384,-1.6332,-1.6198,-1.5856,-1.568,-1.5504,-1.5163,-1.4676,0.0,0.0,0.0,0.0,-1.5567,-1.5656,0.0,0.0,0.0,0.0,0.0,0.0,0.0,0.0,0.0,0.0,0.0,0.0,0.0,0.0,0.0,0.0,0.0,-1.9978,0.0,-2.0348,0.0,-2.1185,-2.0817,-2.0738,-2.0699,-2.0699,-2.0699,-2.0385,-1.985,-2.0334,-2.0233,-1.9797,-2.0977,-2.1794,-2.2369,-2.3244,-2.362,-2.3675,-2.3393,-2.3292,-2.3214,-1.0565,-1.0953,-1.1336,0.0,0.0,-1.2043,-1.2314,-1.2401,-1.2577,-1.2958,-1.306,-1.3075,-1.3016,-1.2767,-1.2453,-1.2,-1.1743,0.0,0.0,0.0,0.0,-1.0257,-1.0352,-1.0854,-1.1769,-1.1977,-1.2323,-1.2783,-1.2832,-1.2881,-1.2881,-1.2881,-1.2881,-1.2881,-1.2881,-1.3076,-1.3398,-1.3588,0.0,-1.4485,-1.5026,-1.5382,-1.5553,-1.5991,-1.6239,-1.6363,-1.6291,-1.6208,-1.6011,-1.5163,-1.5442,-1.6001,-1.5235,-1.5577,-1.627,-1.6353,-1.6384,-1.6384,-1.6384,-1.6384,-1.6384,-1.6384,-1.6094,-1.5887,-1.6187,-1.567,-1.5204,-1.5504,-1.4894,-1.4304,-1.4304,0.0,0.0,0.0,0.0,0.0,0.0,0.0,0.0,0.0,0.0,-1.6522,0.0,0.0,0.0,0.0,0.0,0.0,0.0,0.0,0.0,0.0,0.0,0.0,0.0,0.0,0.0,-2.1355,-2.0935,-2.0699,-2.0699,-2.0699,-2.0385,-1.9811,-1.9901,-1.9656,-1.9271,-2.074,-2.216,-2.3346,-2.3386,-2.3682,-2.4101,-2.3941,-2.4414,-2.5036,-1.1589,-1.1575,-1.1681,-1.1794,0.0,0.0,0.0,-1.2775,0.0,-1.276,-1.276,-1.2628,-1.2292,-1.2262,-1.2006,-1.1341,-1.1297,-1.096,-1.0141,-1.0354,-1.0485,-1.0419,-1.0956,-1.1519,-1.2076,-1.2372,-1.2627,-1.2881,-1.2881,-1.2881,-1.2881,-1.2881,-1.2881,-1.2891,-1.3105,-1.332,0.0,0.0,0.0,-1.4583,-1.5366,-1.5609,-1.5677,-1.6198,-1.6384,-1.6384,-1.6384,-1.6384,-1.627,-1.5587,-1.5815,-1.626,-1.5577,-1.5825,-1.6384,-1.6384,-1.6384,-1.6384,-1.6384,-1.6384,-1.6384,-1.6384,-1.6208,-1.6105,-1.6332,-1.6032,-1.5773,-1.6001,-1.5308,-1.4622,-1.4376,-1.4148,0.0,0.0,0.0,0.0,0.0,0.0,-1.5534,0.0,0.0,0.0,0.0,0.0,0.0,0.0,0.0,0.0,0.0,0.0,0.0,0.0,0.0,0.0,0.0,0.0,0.0,-2.0965,-2.0742,-2.0612,-2.0699,-2.0699,-2.0385,-1.9798,-1.9798,-1.9596,-1.9347,-2.0811,-2.2209,-2.345,-2.333,-2.3435,-2.3638,-2.3891,-2.4226,-2.459,-1.2577,-1.2211,0.0,0.0,-1.276,0.0,-1.2994,-1.3009,-1.2914,-1.2658,-1.2504,-1.2197,-1.1689,-1.1848,-1.1611,-1.066,-1.0871,-1.0706,-0.9918,-1.0469,-1.0777,-1.0769,-1.1619,-1.2175,-1.2283,-1.2676,-1.2881,0.0,0.0,-1.3018,-1.3018,-1.3018,-1.3018,-1.3027,0.0,0.0,0.0,0.0,-1.471,-1.469,-1.5535,-1.5816,-1.5756,-1.6239,-1.6384,-1.6384,-1.6384,-1.6384,-1.6322,-1.596,-1.6073,-1.6301,-1.5835,-1.6011,-1.6363,-1.626,-1.6301,-1.6363,-1.626,-1.6301,-1.6384,-1.6384,-1.6384,-1.6384,-1.6384,-1.6301,-1.626,-1.6363,-1.5639,-1.4852,-1.4451,-1.3968,0.0,0.0,0.0,0.0,0.0,0.0,0.0,0.0,0.0,0.0,-1.6466,0.0,0.0,0.0,0.0,0.0,0.0,0.0,0.0,0.0,0.0,-2.0092,-2.0219,0.0,-2.0784,0.0,-2.0642,-2.0693,-2.0794,-2.0759,-2.054,-2.0202,-1.9815,-1.957,-1.958,-2.0641,-2.1837,-2.2896,-2.2763,-2.2689,-2.2763,-2.3318,-2.3454,-2.3418,0.0,0.0,0.0,0.0,0.0,0.0,-1.3009,-1.3009,-1.2994,-1.2965,-1.2445,-1.1948,-1.1604,-1.1798,-1.1588,-1.0674,-1.0776,-1.0895,-1.0792,-1.0593,-1.0896,-1.1877,-1.2026,-1.2332,-1.2832,-1.2881,-1.2881,0.0,0.0,-1.3447,-1.3447,-1.3447,-1.3447,0.0,0.0,0.0,0.0,-1.458,-1.4978,-1.5265,-1.5713,-1.6066,-1.6312,-1.6363,-1.6384,-1.6384,-1.6384,-1.6384,-1.6374,-1.6332,-1.6343,-1.6301,-1.5835,-1.6011,-1.6301,-1.5877,-1.6053,-1.6291,-1.5866,-1.6063,-1.6384,-1.6384,-1.6384,-1.6384,-1.6384,-1.6053,-1.5877,-1.6291,-1.5639,-1.4842,-1.4385,-1.39,-1.3621,0.0,0.0,0.0,0.0,0.0,-1.4651,-1.5096,0.0,0.0,0.0,0.0,0.0,0.0,0.0,0.0,0.0,0.0,0.0,-1.8204,0.0,-2.0153,-2.083,-2.0346,0.0,-2.1041,-2.1014,-2.1027,-2.1053,-2.0914,-2.1194,-2.1593,-1.9944,-1.9455,-1.9738,-1.9772,-2.0364,-2.1313,-2.1313,-2.1313,-2.1371,-2.1922,-2.2066,-2.224,0.0,0.0,0.0,0.0,0.0,0.0,0.0,-1.284,-1.265,-1.2445,-1.2197,-1.1911,-1.1659,-1.169,-1.1688,-1.166,-1.141,-1.1153,-1.1077,-1.1285,-1.1619,-1.2076,-1.2431,-1.2676,-1.2881,-1.2881,-1.2881,0.0,0.0,0.0,0.0,0.0,0.0,0.0,0.0,-1.4365,-1.4551,-1.498,-1.528,-1.5538,-1.5718,-1.5961,-1.6239,-1.6239,-1.6306,-1.6384,-1.6384,-1.6384,-1.6384,-1.6384,-1.6384,-1.6353,-1.6156,-1.6042,-1.5929,-1.5742,-1.5815,-1.5929,-1.5742,-1.6022,-1.6312,-1.6032,-1.6177,-1.6301,-1.6022,-1.5815,-1.5742,-1.5929,-1.5225,-1.4521,-1.4335,-1.3931,-1.3621,0.0,0.0,0.0,0.0,0.0,0.0,-1.4605,0.0,-1.5579,0.0,0.0,0.0,0.0,0.0,0.0,0.0,0.0,0.0,-1.8191,0.0,-1.9444,-1.9781,-1.982,-1.9924,-1.998,-2.0673,-2.1011,-2.1077,-2.0983,-2.0653,-2.0111,-1.932,-1.9467,-2.0342,-2.0046,-2.0613,-2.1678,-2.125,-2.1123,-2.1158,-2.1342,-2.1538,-2.1709,-1.3542,0.0,-1.3258,0.0,-1.3287,-1.3009,-1.3009,-1.265,-1.2358,-1.2318,-1.2198,-1.2019,-1.1759,-1.1935,-1.2091,-1.2236,-1.185,-1.1584,-1.1486,-1.1868,-1.2175,-1.2332,-1.2676,0.0,-1.2881,-1.2881,-1.2881,-1.2881,-1.3428,0.0,0.0,0.0,0.0,0.0,-1.4648,-1.4853,-1.499,-1.5283,-1.5536,-1.5672,-1.5672,-1.5846,-1.6066,-1.6066,-1.6134,-1.6259,-1.6316,-1.6306,-1.6316,-1.6374,-1.6291,-1.6177,-1.6177,-1.5949,-1.5639,-1.5359,-1.538,-1.5452,-1.5318,-1.5618,-1.5898,-1.5566,-1.5732,-1.5918,-1.5732,-1.5473,-1.5318,-1.5463,-1.4966,-1.4511,-1.4511,-1.4014,-1.3621,-1.3621,0.0,0.0,0.0,0.0,0.0,-1.4512,-1.488,-1.5277,-1.5744,-1.6107,0.0,0.0,0.0,0.0,0.0,0.0,0.0,0.0,0.0,0.0,0.0,-1.9436,-1.9679,-1.9376,-2.0316,-2.1004,-2.1453,-2.1297,-2.0559,-1.9418,-1.9432,-1.9916,-2.0595,-2.0475,-2.0921,-2.1741,-2.1313,-2.1123,-2.1123,-2.1123,-2.1127,-2.1144,-1.3608,-1.3563,-1.3594,-1.3923,-1.344,-1.3009,-1.3009,-1.2453,-1.2223,-1.2908,-1.2672,-1.2393,-1.2,-1.2677,-1.2851,-1.1964,-1.2001,-1.2085,-1.2076,-1.2076,-1.2323,0.0,0.0,-1.2881,-1.2881,-1.2881,-1.2881,-1.2881,0.0,0.0,-1.4077,0.0,-1.4775,-1.4775,-1.4785,-1.501,-1.54,-1.541,-1.5536,-1.5672,-1.5672,-1.5798,-1.5914,-1.5914,-1.5914,-1.5914,-1.6066,-1.6114,-1.6114,-1.6316,-1.6073,-1.5701,-1.5701,-1.5691,-1.5504,-1.4593,-1.4645,-1.4904,-1.4449,-1.4666,-1.5007,-1.5007,-1.5007,-1.5132,-1.5587,-1.4976,-1.4449,-1.4914,-1.4997,-1.4987,-1.4987,-1.4242,-1.3621,-1.3621,0.0,0.0,0.0,0.0,0.0,-1.4971,-1.5108,-1.5277,-1.5744,0.0,0.0,0.0,0.0,0.0,0.0,0.0,0.0,-1.8094,-1.9191,0.0,-1.8147,-1.9214,-1.9825,-1.9768,-2.0253,-2.1128,-2.2309,-2.2165,-2.1445,-2.0327,-2.0831,-2.0774,-2.035,-2.0854,-2.1123,-2.1123,-2.1123,-2.1123,-2.1123,-2.1123,-2.0688,-2.0249,-1.355,-1.3565,-1.3455,-1.3338,-1.3148,-1.2855,-1.2409,-1.2553,-1.2702,-1.2648,-1.338,-1.3811,-1.3696,-1.3438,-1.3086,0.0,-1.2605,-1.2627,0.0,-1.2627,-1.2725,-1.2881,-1.2881,-1.2881,-1.2881,-1.2881,-1.2881,-1.2881,0.0,0.0,0.0,-1.4717,-1.4941,-1.5205,-1.4912,-1.4863,-1.498,-1.498,-1.5047,-1.5113,-1.5113,-1.517,-1.5253,-1.4964,-1.5008,-1.5161,-1.5205,-1.526,-1.5378,-1.5432,-1.5339,-1.5163,-1.4852,-1.4749,-1.4687,-1.4397,-1.4417,-1.449,-1.4345,-1.4645,-1.4925,-1.4604,-1.4759,-1.5038,-1.5183,-1.4987,-1.4821,-1.4966,-1.449,-1.4252,-1.4883,-1.4242,-1.3621,-1.3621,-1.3621,0.0,0.0,0.0,0.0,-1.4035,-1.4419,-1.4697,0.0,-1.513,0.0,0.0,0.0,0.0,0.0,0.0,0.0,0.0,-1.942,0.0,-1.8093,-1.9214,-1.9601,-1.92,-2.0082,-2.0854,-2.1504,-2.162,-2.1131,-2.0176,-1.9998,-2.002,-2.0209,-2.0353,-2.0677,-2.1123,-2.1123,-2.1123,-2.1123,-2.1123,-2.1149,-2.1337,-1.3143,-1.3142,-1.3067,-1.2862,-1.2723,-1.2504,-1.2029,-1.2488,-1.2821,-1.285,-1.3795,-1.4468,-1.4335,-1.3886,0.0,-1.3367,-1.3066,-1.2881,-1.2881,-1.2881,-1.2881,-1.2881,-1.2881,-1.2881,-1.2881,0.0,0.0,-1.2881,-1.3301,-1.3857,-1.4541,-1.4541,-1.4678,-1.4922,-1.4658,-1.4541,-1.4551,-1.4717,-1.4785,-1.4785,-1.4785,-1.4897,-1.4968,-1.4532,-1.4523,-1.4672,-1.4777,-1.4829,-1.4934,-1.4997,-1.4883,-1.4687,-1.4397,-1.419,-1.4045,-1.4045,-1.4045,-1.4045,-1.4045,-1.4252,-1.4407,-1.4117,-1.4262,-1.448,-1.448,-1.4883,-1.5163,-1.4811,-1.4273,-1.4045,-1.4635,-1.4128,-1.3621,-1.3621,-1.3621,-1.3621,-1.3621,0.0,0.0,0.0,0.0,0.0,0.0,-1.4818,0.0,0.0,0.0,0.0,0.0,0.0,0.0,-1.8624,-1.9418,0.0,-1.7722,-1.909,-1.9679,-1.9483,-2.0594,-2.1247,-2.1479,-2.141,-2.1198,-2.0835,-2.0517,-2.0563,-2.0858,-2.0858,-2.1112,-2.1428,-2.1187,-2.125,-2.1502,-2.1502,-2.1637,-2.1981,-1.2627,-1.2586,0.0,0.0,-1.2292,0.0,-1.2064,-1.2343,-1.281,-1.3502,-1.4145,-1.4438,-1.416,-1.4068,-1.4038,-1.4038,0.0,0.0,0.0,-1.2881,-1.2881,-1.2881,-1.2881,0.0,-1.2881,-1.2881,-1.2881,-1.2881,-1.3271,-1.3682,-1.4038,-1.4038,-1.4048,-1.4077,-1.4048,-1.4038,-1.4068,-1.4521,-1.4697,-1.4697,-1.4697,-1.4753,-1.4879,-1.438,-1.4265,-1.4433,-1.4633,-1.4685,-1.4737,-1.4852,-1.4614,-1.4252,-1.4252,-1.3962,-1.3621,-1.3621,-1.3621,-1.3621,-1.3621,-1.3621,-1.3621,-1.3621,-1.3662,-1.3703,-1.3672,-1.4687,-1.539,-1.449,-1.4283,-1.4273,-1.4304,-1.3931,-1.3621,-1.3621,-1.3621,-1.3621,-1.3621,0.0,0.0,0.0,0.0,0.0,0.0,-1.4757,-1.5024,0.0,0.0,0.0,0.0,0.0,-1.8736,-1.8182,-1.9259,-1.8963,-1.7137,-1.8874,-2.0003,-2.0427,-2.1604,-2.2113,-2.1978,-2.1502,-2.1553,-2.2039,-2.2113,-2.2039,-2.2039,-2.2113,-2.2101,-2.2051,-2.1428,-2.1616,-2.2175,-2.2175,-2.2175,-2.2237,0.0,0.0,-1.3068,-1.242,-1.2772,-1.3027,-1.2739,-1.2728,-1.3143,-1.4145,-1.4552,-1.4685,-1.4658,-1.4043,-1.3652,-1.3652,-1.3184,-1.2881,-1.2881,-1.2881,-1.2881,-1.2881,-1.2881,-1.2881,-1.2881,-1.2881,-1.2881,-1.2881,-1.2978,-1.3242,-1.3652,-1.3652,-1.3828,-1.4068,-1.3799,-1.3652,-1.3662,-1.3769,-1.3809,-1.3809,-1.3809,-1.3809,-1.3821,-1.339,-1.3333,-1.3432,-1.3481,-1.3609,-1.3736,-1.3785,-1.3772,-1.3776,-1.3776,-1.3703,-1.3621,-1.3621,-1.3621,-1.3621,-1.3621,-1.3621,-1.3621,-1.3621,-1.4148,-1.4573,-1.4221,-1.4676,-1.4997,-1.4428,-1.4024,-1.389,-1.4242,-1.3931,-1.3621,-1.3621,-1.3621,-1.3621,-1.3621,-1.3621,0.0,0.0,-1.4125,-1.4335,-1.4335,-1.4715,-1.4977,0.0,0.0,0.0,0.0,0.0,-1.8786,-1.8622,-1.9749,-1.9668,-1.8251,-1.9622,-2.0299,-2.0316,-2.2068,-2.231,-2.1376,-2.2261,-2.2125,-2.1376,-2.1865,-2.1803,-2.1376,-2.1865,-2.2101,-2.2113,-2.2506,-2.2689,-2.2884,-2.2884,-2.2884,-2.2884,-1.227,-1.2691,-1.2805,-1.2085,-1.2781,-1.3523,-1.3467,-1.3381,-1.3526,-1.4118,-1.4354,-1.4414,-1.4219,-1.3789,-1.3428,-1.3242,-1.3018,-1.2881,-1.2881,-1.2881,-1.2881,-1.2881,-1.2881,-1.2881,-1.2881,-1.2881,-1.2881,-1.2881,-1.2881,-1.2998,-1.3223,-1.3223,-1.334,-1.3555,-1.332,-1.3223,-1.3232,-1.3428,-1.3506,-1.3506,-1.3506,-1.3557,-1.3568,-1.3175,-1.3104,-1.3258,-1.3306,-1.3392,-1.3515,-1.3515,-1.3515,-1.3621,-1.3621,-1.3621,-1.3621,-1.3621,-1.3621,-1.3621,-1.3621,-1.3621,-1.3621,-1.3621,-1.4314,-1.4821,-1.4148,-1.4511,-1.4811,-1.4128,-1.3796,-1.3693,-1.3941,-1.3786,-1.3621,-1.3621,-1.3621,-1.3621,-1.3621,-1.3796,0.0,-1.3931,-1.4335,-1.4624,-1.4624,-1.5038,-1.5308,-1.5308,0.0,0.0,-1.7094,-1.8246,-1.8841,-1.8684,-1.9599,-1.9556,-1.8499,-1.9929,-2.074,-2.1014,-2.204,-2.2303,-2.2002,-2.2433,-2.2249,-2.1616,-2.2249,-2.2187,-2.1616,-2.1928,-2.2101,-2.2113,-2.2187,-2.2384,-2.2616,-2.2616,-2.2811,-2.3078,-1.1911,-1.2288,-1.2488,-1.1974,-1.2951,-1.3863,-1.4043,-1.3996,-1.3893,-1.3829,-1.3917,-1.3906,-1.3545,-1.3447,-1.3271,-1.291,-1.2881,-1.2881,-1.2881,-1.2881,-1.2881,-1.2881,-1.2881,-1.2881,-1.2881,-1.2881,-1.2881,-1.2881,-1.2881,-1.2881,-1.2881,-1.2939,-1.2939,-1.2881,-1.2949,-1.2939,-1.29,-1.3262,-1.3408,-1.3408,-1.3408,-1.3469,-1.3581,-1.3282,-1.3276,-1.3372,-1.3515,-1.3515,-1.3515,-1.3563,-1.3563,-1.3621,-1.3621,-1.3621,-1.3621,-1.3621,-1.3621,-1.3621,-1.3621,-1.3621,-1.3631,-1.3703,-1.4314,-1.4687,-1.39,-1.4324,-1.4656,-1.3796,-1.3621,-1.3621,-1.3621,-1.3621,-1.3621,-1.3621,-1.3621,-1.3621,-1.3621,0.0,-1.4304,-1.4304,-1.478,-1.5101,-1.5101,-1.5515,-1.5815,-1.5887,-1.6974,0.0,0.0,-1.8402,-1.8963,-1.866,-1.9315,-1.9408,-1.8877,-2.0124,-2.1163,-2.1827,-2.1812,-2.2254,-2.2944,-2.2482,-2.2175,-2.2163,-2.2811,-2.275,-2.2237,-2.2237,-2.2237,-2.2175,-2.1628,-2.1753,-2.2237,-2.2237,-2.2616,-2.3078,-1.1626,-1.2567,-1.3312,-1.3235,-1.4264,-1.4858,-1.4204,-1.4298,-1.4388,-1.4115,-1.3762,-1.3584,-1.3516,-1.3193,-1.2949,-1.2891,-1.2881,-1.2881,-1.2881,-1.2881,-1.2881,-1.2881,-1.2881,-1.2881,-1.2881,-1.2881,-1.2881,-1.2881,-1.2881,-1.2881,-1.2891,-1.3242,-1.3223,-1.29,-1.3252,-1.3213,-1.2881,-1.2949,-1.2978,-1.2978,-1.2978,-1.3076,-1.3174,-1.3153,-1.3123,-1.3172,-1.3228,-1.3266,-1.3266,-1.3409,-1.3515,-1.3621,-1.3621,-1.3621,-1.3621,-1.3621,-1.3621,-1.3621,-1.3621,-1.3621,-1.3714,-1.4097,-1.4304,-1.4376,-1.4231,-1.4314,-1.4262,-1.3724,-1.3621,-1.3621,-1.3621,-1.3621,-1.3621,-1.3621,-1.3621,-1.3621,-1.3621,0.0,-1.4304,-1.4304,-1.5059,-1.5577,-1.5577,-1.6001,-1.6425,-1.6739,-1.6966,-1.745,-1.8133,-1.8744,-1.9069,-1.9055,-2.0084,-2.0718,-2.1015,-2.0891,-2.1163,-2.1827,-2.1945,-2.2123,-2.2298,-2.275,-2.2616,-2.2163,-2.2811,-2.3065,-2.2944,-2.2944,-2.2944,-2.2944,-2.2823,-2.2884,-2.2944,-2.2944,-2.3005,-2.3078,-1.1622,-1.2074,-1.2707,-1.3398,-1.4561,-1.5084,-1.4215,-1.4101,-1.4023,-1.3818,-1.3437,-1.3174,-1.3174,-1.2998,-1.2881,-1.2881,-1.2881,-1.2881,-1.2881,-1.2881,-1.2881,-1.2881,-1.2881,-1.2881,-1.2881,-1.2881,-1.2881,-1.2881,-1.2881,-1.2881,-1.2881,-1.3076,-1.3066,-1.2891,-1.3086,-1.3066,-1.2881,-1.2881,-1.2881,-1.2881,-1.2881,-1.2929,-1.2978,-1.3075,-1.3085,-1.3123,-1.318,-1.3218,-1.3218,-1.3362,-1.342,-1.3515,-1.3563,-1.3621,-1.3621,-1.3621,-1.3621,-1.3621,-1.3621,-1.3621,-1.3662,-1.3879,-1.4128,-1.4242,-1.3993,-1.4128,-1.4179,-1.3714,-1.3621,-1.3621,-1.3621,-1.3621,-1.3621,-1.3621,-1.3621,0.0,0.0,-1.4386,-1.4769,-1.5018,-1.5649,-1.6063,-1.6063,-1.6467,-1.6922,-1.7317,-1.7636,-1.8164,-1.9075,-1.9323,-1.9505,-1.9505,-1.9986,-2.0578,-2.1299,-2.0832,-2.0935,-2.162,-2.1504,-2.144,-2.1553,-2.2249,-2.2187,-2.1616,-2.2628,-2.2884,-2.2555,-2.2944,-2.3078,-2.3078,-2.3078,-2.3078,-2.3078,-2.3078,-2.3078,-2.3078,-1.1622,-1.1593,-1.1929,-1.2881,-1.4138,-1.4715,-1.3927,-1.3721,-1.3608,-1.3379,-1.3076,-1.2881,-1.2881,-1.2881,-1.2881,-1.2881,-1.2881,-1.2881,-1.2881,-1.2881,-1.2881,-1.2881,-1.2881,-1.2881,-1.2881,-1.2881,-1.2881,-1.2881,-1.2881,-1.2881,-1.2881,-1.2988,-1.2969,-1.2881,-1.2988,-1.2969,-1.2881,-1.2881,-1.2881,-1.2881,-1.2881,-1.2929,-1.2978,-1.3085,-1.3085,-1.3123,-1.3228,-1.3218,-1.3218,-1.3409,-1.3467,-1.3467,-1.3573,-1.3621,-1.3621,-1.3621,-1.3621,-1.3621,-1.3621,-1.3621,-1.3621,-1.3621,-1.389,-1.4055,-1.3693,-1.389,-1.4045,-1.3693,-1.3621,-1.3621,-1.3621,-1.3621,-1.3652,-1.3755,0.0,0.0,0.0,-1.4956,-1.5411,-1.5659,-1.6187,-1.6498,-1.6394,-1.6684,-1.7171,-1.7833,-1.8195,-1.8827,-1.9862,-1.9913,-1.9913,-1.9913,-1.982,-2.0203,-2.1104,-2.0555,-2.0618,-2.1315,-2.0826,-2.0786,-2.1135,-2.1616,-2.1616,-2.1187,-2.2372,-2.2555,-2.2163,-2.2811,-2.3078,-2.3078,-2.3078,-2.3078,-2.3078,-2.3078,-2.3078,-2.3078,-1.1622,-1.1624,-1.1655,-1.1713,-1.2908,-1.3628,-1.3077,-1.3314,-1.3369,-1.2978,-1.29,-1.2881,-1.2881,-1.2881,-1.2881,-1.2881,-1.2881,-1.2881,-1.2881,-1.2881,-1.2881,-1.2881,-1.2881,-1.2881,-1.2881,-1.2881,-1.2881,-1.2881,-1.2881,-1.2881,-1.2891,-1.3281,-1.3252,-1.29,-1.3281,-1.3242,-1.2881,-1.2881,-1.2881,-1.2881,-1.2881,-1.2978,-1.3085,-1.3085,-1.3085,-1.3123,-1.3334,-1.3314,-1.3266,-1.3515,-1.3573,-1.3573,-1.3621,-1.3621,-1.3621,-1.3621,-1.3621,-1.3621,-1.3621,-1.3621,-1.3621,-1.3621,-1.3641,-1.3662,-1.3621,-1.3641,-1.3662,-1.3621,-1.3621,-1.3621,-1.3621,-1.3621,-1.3755,-1.419,0.0,0.0,-1.4883,-1.5711,-1.6125,-1.5732,-1.6456,-1.6829,-1.6425,-1.6415,-1.6953,-1.8237,-1.8361,-1.8961,-2.0307,-2.0379,-2.0379,-2.0379,-1.9975,-2.0203,-2.1104,-2.0245,-2.0144,-2.0882,-2.0391,-2.0453,-2.1123,-2.1123,-2.1123,-2.1123,-2.1865,-2.2175,-2.2163,-2.2811,-2.3078,-2.3078,-2.3078,-2.3078,-2.3078,-2.3078,-2.3078,-2.3078,-1.163,-1.1608,-1.1626,-1.1615,-1.2474,-1.3138,-1.2916,-1.3046,-1.3066,-1.29,-1.2881,-1.2881,-1.2881,-1.2881,-1.2881,-1.2881,-1.2881,-1.2881,-1.2881,-1.2881,-1.2881,-1.2881,-1.2881,-1.2881,-1.2881,-1.2881,-1.2881,-1.2881,-1.2881,-1.2881,-1.2881,-1.3047,-1.3037,-1.2891,-1.3047,-1.3027,-1.2881,-1.2881,-1.2881,-1.2881,-1.2881,-1.2929,-1.2978,-1.2978,-1.3036,-1.3085,-1.3113,-1.3142,-1.3218,-1.3314,-1.342,-1.3515,-1.3563,-1.3621,-1.3621,-1.3621,-1.3621,-1.3621,-1.3621,-1.3621,-1.3621,-1.3621,-1.3621,-1.3621,-1.3621,-1.3621,-1.3621,-1.3621,-1.3838,-1.4045,-1.4045,-1.4283,-1.4531,-1.4707,0.0,-1.4997,-1.5753,-1.5908,-1.6094,-1.6477,-1.6591,-1.657,-1.6394,-1.6891,-1.7657,-1.8733,-1.9075,-1.9706,-2.0793,-2.0586,-2.042,-2.042,-1.9986,-2.0058,-2.0679,-2.0069,-1.9965,-2.016,-1.9684,-1.9743,-2.0277,-2.0434,-2.0651,-2.093,-2.1325,-2.1502,-2.1491,-2.1753,-2.2125,-2.2494,-2.2494,-2.275,-2.3078,-2.3078,-2.3078,-2.3078,-1.163,-1.16,-1.1671,-1.1958,-1.251,-1.2874,-1.292,-1.2881,-1.2881,-1.2881,-1.2881,-1.2881,-1.2881,-1.2881,-1.2881,-1.2881,-1.2881,-1.2881,-1.2881,-1.2881,-1.2881,-1.2881,-1.2881,-1.2881,-1.2881,-1.2881,-1.2881,-1.2881,-1.2881,-1.2881,-1.2881,-1.2881,-1.2881,-1.2881,-1.2881,-1.2881,-1.2881,-1.2881,-1.2881,-1.2881,-1.2881,-1.2881,-1.2881,-1.2881,-1.2978,-1.3027,-1.2978,-1.3065,-1.318,-1.317,-1.3266,-1.3362,-1.3467,-1.3467,-1.3467,-1.3467,-1.3515,-1.3515,-1.3515,-1.3573,-1.3652,-1.3796,-1.3838,-1.3838,-1.3838,-1.3941,-1.4014,-1.3859,-1.42,-1.4521,-1.4521,-1.478,-1.5049,-1.5194,-1.5339,-1.5649,-1.6291,-1.6353,-1.6456,-1.6798,-1.6684,-1.6643,-1.6788,-1.7367,-1.8226,-1.9406,-1.9789,-2.0245,-2.0866,-2.0731,-2.0503,-2.0224,-1.9913,-1.9903,-2.0213,-1.9768,-1.9609,-1.9609,-1.922,-1.9364,-1.9938,-2.0063,-2.0282,-2.0577,-2.0952,-2.0996,-2.0805,-2.0996,-2.1365,-2.1803,-2.2051,-2.2359,-2.2811,-2.3005,-2.3078,-2.3078,-1.163,-1.1623,-1.19,-1.28,-1.2911,-1.2919,-1.291,-1.2881,-1.2881,-1.2881,-1.2881,-1.2881,-1.2881,-1.2881,-1.2881,-1.2881,-1.2881,-1.2881,-1.2881,-1.2881,-1.2881,-1.2881,-1.2881,-1.2881,-1.2881,-1.2881,-1.2881,-1.2881,-1.2881,-1.2881,-1.2881,-1.2881,-1.2881,-1.2881,-1.2881,-1.2881,-1.2881,-1.2881,-1.2881,-1.2881,-1.2881,-1.2881,-1.2881,-1.2881,-1.2881,-1.2929,-1.3027,-1.3085,-1.3123,-1.318,-1.3218,-1.3218,-1.3218,-1.3218,-1.3218,-1.3218,-1.3314,-1.342,-1.342,-1.3515,-1.3724,-1.419,-1.4304,-1.4304,-1.4314,-1.4666,-1.4863,-1.4407,-1.4687,-1.5007,-1.5007,-1.5007,-1.5163,-1.5628,-1.6084,-1.6384,-1.6394,-1.716,-1.7388,-1.6498,-1.6777,-1.7162,-1.7626,-1.774,-1.8495,-2.0286,-2.042,-2.042,-2.042,-2.0855,-2.069,-1.9858,-1.9827,-1.9827,-1.9827,-1.9303,-1.9075,-1.9075,-1.9075,-1.9462,-2.0107,-2.0107,-2.0107,-2.0107,-2.0816,-2.0741,-2.0161,-2.0805,-2.1123,-2.1187,-2.1865,-2.2101,-2.2175,-2.2871,-2.3078,-2.3078,-1.3807,-1.2808,-1.2253,-1.4305,-1.3704,-1.3027,-1.3411,-1.3135,-1.2881,-1.2881,-1.2881,-1.2881,-1.2881,-1.2881,-1.2881,-1.2881,-1.2881,-1.2881,-1.2881,-1.2881,-1.2881,-1.2881,-1.2881,-1.2881,-1.2881,-1.2881,-1.2881,-1.2881,-1.2881,-1.2881,-1.2881,-1.2881,-1.2881,-1.2881,-1.2881,-1.2881,-1.2881,-1.2881,-1.2881,-1.2881,-1.2881,-1.2881,-1.2881,-1.2881,-1.2978,-1.3027,-1.2978,-1.3065,-1.319,-1.3152,-1.3142,-1.3218,-1.3218,-1.3218,-1.3218,-1.3218,-1.3218,-1.3266,-1.3362,-1.342,-1.358,-1.414,-1.4066,-1.3993,-1.4645,-1.4645,-1.4562,-1.4749,-1.5163,-1.5484,-1.5484,-1.5742,-1.6115,-1.656,-1.6487,-1.6601,-1.7243,-1.7015,-1.6922,-1.7284,-1.716,-1.7162,-1.7626,-1.8299,-1.9023,-1.9893,-2.0245,-2.042,-2.042,-2.0265,-1.9893,-1.9292,-1.9661,-1.9671,-1.9282,-1.9137,-1.9075,-1.9075,-1.9075,-1.9375,-1.9881,-1.9544,-1.9575,-1.987,-1.9732,-1.9846,-2.0107,-2.0291,-2.0921,-2.1803,-2.2039,-2.2372,-2.2811,-2.3005,-2.3078,-2.3078,-1.3718,-1.3023,-1.2554,-1.4024,-1.3516,-1.3027,-1.3352,-1.3106,-1.2881,-1.2881,-1.2881,-1.2881,-1.2881,-1.2881,-1.2881,-1.2881,-1.2881,-1.2881,-1.2881,-1.2881,-1.2881,-1.2881,-1.2881,-1.2881,-1.2881,-1.2881,-1.2881,-1.2881,-1.2881,-1.2881,-1.2881,-1.2881,-1.2881,-1.2881,-1.2881,-1.2881,-1.2881,-1.2881,-1.2881,-1.2881,-1.2881,-1.2881,-1.2881,-1.2881,-1.2929,-1.3027,-1.2929,-1.2968,-1.3094,-1.3017,-1.3065,-1.3094,-1.3094,-1.3094,-1.3094,-1.3142,-1.318,-1.3218,-1.3362,-1.342,-1.3628,-1.414,-1.4231,-1.4304,-1.4873,-1.507,-1.5152,-1.5245,-1.5639,-1.6011,-1.6187,-1.6312,-1.6529,-1.6915,-1.6819,-1.6767,-1.715,-1.687,-1.685,-1.7337,-1.7317,-1.7636,-1.8454,-1.9189,-1.9799,-2.0255,-2.0545,-2.0545,-2.0182,-2.0069,-1.981,-1.9354,-1.9682,-1.9624,-1.9344,-1.9158,-1.9198,-1.9462,-1.9198,-1.9544,-2.0266,-1.9722,-1.9677,-1.9931,-1.9645,-1.9584,-1.9715,-1.9715,-2.0344,-2.129,-2.129,-2.1865,-2.2689,-2.2689,-2.2884,-2.3078,-1.2078,-1.252,-1.2856,-1.2718,-1.2808,-1.2919,-1.2949,-1.29,-1.2881,-1.2881,-1.2881,-1.2881,-1.2881,-1.2881,-1.2881,-1.2881,-1.2881,-1.2881,-1.2881,-1.2881,-1.2881,-1.2881,-1.2881,-1.2881,-1.2881,-1.2881,-1.2881,-1.2881,-1.2881,-1.2881,-1.2881,-1.2881,-1.2881,-1.2881,-1.2881,-1.2881,-1.2881,-1.2881,-1.2881,-1.2881,-1.2881,-1.2881,-1.2881,-1.2881,-1.2881,-1.2881,-1.2881,-1.2881,-1.2881,-1.2881,-1.2881,-1.2881,-1.2881,-1.2881,-1.2929,-1.3085,-1.3152,-1.3218,-1.3362,-1.3467,-1.3676,-1.419,-1.4656,-1.5007,-1.5049,-1.5711,-1.6208,-1.5825,-1.6115,-1.656,-1.6915,-1.6746,-1.6632,-1.6977,-1.7007,-1.6842,-1.6498,-1.6788,-1.6997,-1.7038,-1.7482,-1.8361,-1.9702,-2.0162,-2.0596,-2.1021,-2.101,-2.0638,-1.9869,-2.01,-2.012,-1.9775,-1.9765,-1.9765,-1.9765,-1.9282,-1.9396,-1.9977,-1.9396,-1.9715,-2.0869,-2.0355,-2.0096,-2.0096,-2.0161,-1.9911,-1.9386,-1.9386,-1.9781,-2.0355,-2.0355,-2.1101,-2.2175,-2.2175,-2.2555,-2.3078,-1.2121,-1.2369,-1.2736,-1.3231,-1.3103,-1.3018,-1.332,-1.3096,-1.2881,-1.2881,-1.2881,-1.2881,-1.2881,-1.2881,-1.2881,-1.2881,-1.2881,-1.2881,-1.2881,-1.2881,-1.2881,-1.2881,-1.2881,-1.2881,-1.2881,-1.2881,-1.2881,-1.2881,-1.2881,-1.2881,-1.2881,-1.2881,-1.2881,-1.2881,-1.2881,-1.2881,-1.2881,-1.2881,-1.2881,-1.2881,-1.2881,-1.2881,-1.2881,-1.2881,-1.2881,-1.2881,-1.2881,-1.2881,-1.2881,-1.2881,-1.2881,-1.2881,-1.2881,-1.2881,-1.2929,-1.3085,-1.3027,-1.3017,-1.3324,-1.3314,-1.3473,-1.414,-1.4656,-1.509,-1.5452,-1.5701,-1.5918,-1.6177,-1.6591,-1.6933,-1.6966,-1.7264,-1.7471,-1.7503,-1.7224,-1.6946,-1.6853,-1.6925,-1.7121,-1.7472,-1.8299,-1.9034,-1.9696,-2.0162,-2.0462,-2.0565,-2.0255,-1.9965,-1.9837,-1.951,-1.9313,-1.922,-1.922,-1.922,-1.922,-1.9116,-1.9198,-1.933,-1.9198,-1.9264,-1.9528,-1.9911,-2.0096,-2.0096,-2.0677,-2.1112,-2.1479,-2.1479,-2.1854,-2.2445,-2.2445,-2.2628,-2.2871,-2.2871,-2.3005,-2.3078,-1.2264,-1.2471,-1.2704,-1.3034,-1.2988,-1.2959,-1.3174,-1.3027,-1.2881,-1.2881,-1.2881,-1.2881,-1.2881,-1.2881,-1.2881,-1.2881,-1.2881,-1.2881,-1.2881,-1.2881,-1.2881,-1.2881,-1.2881,-1.2881,-1.2881,-1.2881,-1.2881,-1.2881,-1.2881,-1.2881,-1.2881,-1.2881,-1.2881,-1.2881,-1.2881,-1.2881,-1.2881,-1.2881,-1.2881,-1.2881,-1.2881,-1.2881,-1.2881,-1.2881,-1.2881,-1.2881,-1.2881,-1.2881,-1.2881,-1.2881,-1.2881,-1.2881,-1.2881,-1.2881,-1.2929,-1.3085,-1.3027,-1.3027,-1.3228,-1.3427,-1.361,-1.4002,-1.4614,-1.5229,-1.5628,-1.5856,-1.6146,-1.6601,-1.6881,-1.7121,-1.7605,-1.7533,-1.742,-1.7637,-1.7171,-1.6798,-1.6956,-1.7172,-1.7482,-1.7988,-1.8847,-1.9582,-2.0027,-2.0286,-2.0338,-2.012,-1.9893,-1.9734,-1.9505,-1.9199,-1.9075,-1.9075,-1.9075,-1.9075,-1.9075,-1.9075,-1.9075,-1.9075,-1.9075,-1.9264,-1.9584,-1.9584,-1.9649,-1.9649,-1.9966,-2.0537,-2.1175,-2.1175,-2.1741,-2.2555,-2.2261,-2.2567,-2.3078,-2.275,-2.2811,-2.3078,-1.2431,-1.2578,-1.2676,-1.2676,-1.2832,-1.2881,-1.2881,-1.2881,-1.2881,-1.2881,-1.2881,-1.2881,-1.2881,-1.2881,-1.2881,-1.2881,-1.2881,-1.2881,-1.2881,-1.2881,-1.2881,-1.2881,-1.2881,-1.2881,-1.2881,-1.2881,-1.2881,-1.2881,-1.2881,-1.2881,-1.2881,-1.2881,-1.2881,-1.2881,-1.2881,-1.2881,-1.2881,-1.2881,-1.2881,-1.2881,-1.2881,-1.2881,-1.2881,-1.2881,-1.2881,-1.2881,-1.2881,-1.2881,-1.2881,-1.2881,-1.2881,-1.2881,-1.2881,-1.2881,-1.2929,-1.3085,-1.3085,-1.3095,-1.328,-1.3581,-1.3912,-1.4072,-1.4653,-1.526,-1.5673,-1.6038,-1.644,-1.6894,-1.7049,-1.7409,-1.8226,-1.7771,-1.7307,-1.7626,-1.7036,-1.6622,-1.6925,-1.7379,-1.7895,-1.833,-1.9199,-1.9903,-2.0276,-2.0307,-2.0131,-1.9675,-1.9713,-1.9479,-1.9085,-1.9075,-1.9075,-1.9075,-1.9075,-1.9075,-1.9075,-1.9075,-1.9075,-1.9075,-1.9075,-1.9396,-1.9911,-1.9452,-1.9264,-1.9264,-1.9396,-1.9781,-2.0291,-2.0291,-2.0921,-2.1865,-2.1439,-2.1939,-2.2884,-2.2433,-2.2616,-2.3078,-1.2323,-1.2529,-1.2676,-1.2676,-1.2832,-1.2881,-1.2881,-1.2881,-1.2881,-1.2881,-1.2881,-1.2881,-1.2881,-1.2881,-1.2881,-1.2881,-1.2881,-1.2881,-1.2881,-1.2881,-1.2881,-1.2881,-1.2881,-1.2881,-1.2881,-1.2881,-1.2881,-1.2881,-1.2881,-1.2881,-1.2881,-1.2881,-1.2881,-1.2881,-1.2881,-1.2881,-1.2881,-1.2881,-1.2881,-1.2881,-1.2881,-1.2881,-1.2881,-1.2881,-1.2881,-1.2881,-1.2881,-1.2881,-1.2881,-1.2881,-1.2881,-1.2881,-1.2881,-1.2881,-1.2929,-1.3085,-1.3027,-1.3067,-1.3631,-1.3781,-1.3949,-1.4824,-1.5104,-1.5295,-1.579,-1.6026,-1.6246,-1.6755,-1.7236,-1.7792,-1.8288,-1.8278,-1.8102,-1.7781,-1.7234,-1.6915,-1.6977,-1.7379,-1.7895,-1.833,-1.9199,-1.9858,-1.9851,-1.9851,-1.9655,-1.9199,-1.9158,-1.9137,-1.9075,-1.9075,-1.9075,-1.9075,-1.9075,-1.9075,-1.9075,-1.9075,-1.9075,-1.9075,-1.9075,-1.9142,-1.9264,-1.9715,-1.9966,-1.9977,-2.0549,-2.0869,-2.0933,-2.0933,-2.106,-2.1313,-2.1803,-2.2051,-2.2298,-2.275,-2.3005,-2.3078,-1.248,-1.2627,-1.2725,-1.2783,-1.2881,-1.2881,-1.2881,-1.2881,-1.2881,-1.2881,-1.2881,-1.2881,-1.2881,-1.2881,-1.2881,-1.2881,-1.2881,-1.2881,-1.2881,-1.2881,-1.2881,-1.2881,-1.2881,-1.2881,-1.2881,-1.2881,-1.2881,-1.2881,-1.2881,-1.2881,-1.2881,-1.2881,-1.2881,-1.2881,-1.2881,-1.2881,-1.2881,-1.2881,-1.2881,-1.2881,-1.2881,-1.2881,-1.2881,-1.2881,-1.2881,-1.2881,-1.2881,-1.2881,-1.2881,-1.2881,-1.2881,-1.2881,-1.2881,-1.2881,-1.2929,-1.2978,-1.2929,-1.3027,-1.355,-1.3785,-1.4119,-1.4804,-1.514,-1.5367,-1.5555,-1.572,-1.6153,-1.7032,-1.74,-1.7811,-1.864,-1.8557,-1.8237,-1.7802,-1.7503,-1.7368,-1.7368,-1.803,-1.8651,-1.9162,-1.9349,-1.9375,-1.9375,-1.9375,-1.9292,-1.9152,-1.9075,-1.9075,-1.9075,-1.9075,-1.9075,-1.9075,-1.9075,-1.9075,-1.9075,-1.9075,-1.9075,-1.9075,-1.9075,-1.9075,-1.9131,-1.9396,-1.9518,-1.9584,-1.9846,-2.0226,-2.0549,-2.0549,-2.0741,-2.1123,-2.1439,-2.1553,-2.1553,-2.1877,-2.2002,-2.2002]},{"header":{"parameterUnit":"m.s-1","parameterCategory":1,"la1":30.6,"la2":28.766,"lo1":-90.7593,"lo2":-88.6598,"dy":0.0162,"dx":0.0183,"nx":116,"ny":114,"refTime":"2023-06-05T18:00:00:Z","depth":0,"parameterNumber":3,"parameterNumberName":"V-component_of_WINDS"},"data":[0.0,0.0,0.0,0.0,0.0,0.0,0.0,0.0,0.0,0.0,0.0,0.0,0.0,0.0,0.0,0.0,0.0,0.0,0.0,0.0,0.0,0.0,0.0,0.0,0.0,0.0,0.0,0.0,0.0,0.0,0.0,0.0,0.0,0.0,0.0,0.0,0.0,0.0,0.0,0.0,0.0,0.0,0.0,0.0,0.0,0.0,0.0,0.0,0.0,0.0,0.0,0.0,0.0,0.0,0.0,0.0,0.0,0.0,0.0,0.0,0.0,0.0,0.0,0.0,0.0,0.0,0.0,0.0,0.0,0.0,0.0,0.0,0.0,0.0,0.0,0.0,0.0,0.0,0.0,0.0,0.0,0.0,0.0,0.0,0.0,0.0,0.0,0.0,0.0,0.0,0.0,0.0,0.0,0.0,0.0,0.0,0.0,0.0,0.0,0.0,0.0,0.0,0.0,0.0,0.0,0.0,0.0,0.0,0.0,0.0,0.0,0.0,0.0,0.0,0.0,0.0,0.0,0.0,0.0,0.0,0.0,0.0,0.0,0.0,0.0,0.0,0.0,0.0,0.0,0.0,0.0,0.0,0.0,0.0,0.0,0.0,0.0,0.0,0.0,0.0,0.0,0.0,0.0,0.0,0.0,0.0,0.0,0.0,0.0,0.0,0.0,0.0,0.0,0.0,0.0,0.0,0.0,0.0,0.0,0.0,0.0,0.0,0.0,0.0,0.0,0.0,0.0,0.0,0.0,0.0,0.0,0.0,0.0,0.0,0.0,0.0,0.0,0.0,0.0,0.0,0.0,0.0,0.0,0.0,0.0,0.0,0.0,0.0,0.0,0.0,0.0,0.0,0.0,0.0,0.0,0.0,0.0,0.0,0.0,0.0,0.0,0.0,0.0,0.0,0.0,0.0,0.0,0.0,0.0,0.0,0.0,0.0,0.0,0.0,0.0,0.0,0.0,0.0,0.0,0.0,0.0,0.0,0.0,0.0,0.0,0.0,0.0,0.0,0.0,0.0,0.0,0.0,0.0,0.0,0.0,0.0,0.0,0.0,0.0,0.0,0.0,0.0,0.0,0.0,0.0,0.0,0.0,0.0,0.0,0.0,0.0,0.0,0.0,0.0,0.0,0.0,0.0,0.0,0.0,0.0,0.0,0.0,0.0,0.0,0.0,0.0,0.0,0.0,0.0,0.0,0.0,0.0,0.0,0.0,0.0,0.0,0.0,0.0,0.0,0.0,0.0,0.0,0.0,0.0,0.0,0.0,0.0,0.0,0.0,0.0,0.0,0.0,0.0,0.0,0.0,0.0,0.0,0.0,0.0,0.0,0.0,0.0,0.0,0.0,0.0,0.0,0.0,0.0,0.0,0.0,0.0,0.0,0.0,0.0,0.0,0.0,0.0,0.0,0.0,0.0,0.0,0.0,0.0,0.0,0.0,0.0,0.0,0.0,0.0,0.0,0.0,0.0,0.0,0.0,0.0,0.0,0.0,0.0,0.0,0.0,0.0,0.0,0.0,0.0,0.0,0.0,0.0,0.0,0.0,0.0,0.0,0.0,0.0,0.0,0.0,0.0,0.0,0.0,0.0,0.0,0.0,0.0,0.0,0.0,0.0,0.0,0.0,0.0,0.0,0.0,0.0,0.0,0.0,0.0,0.0,0.0,0.0,0.0,0.0,0.0,0.0,0.0,0.0,0.0,0.0,0.0,0.0,0.0,0.0,0.0,0.0,0.0,0.0,0.0,0.0,0.0,0.0,0.0,0.0,0.0,0.0,0.0,0.0,0.0,0.0,0.0,0.0,0.0,0.0,0.0,0.0,0.0,0.0,0.0,0.0,0.0,0.0,0.0,0.0,0.0,0.0,0.0,0.0,0.0,0.0,0.0,0.0,0.0,0.0,0.0,0.0,0.0,0.0,0.0,0.0,0.0,0.0,0.0,0.0,0.0,0.0,0.0,0.0,0.0,0.0,0.0,0.0,0.0,0.0,0.0,0.0,0.0,0.0,0.0,0.0,0.0,0.0,0.0,0.0,0.0,0.0,0.0,0.0,0.0,0.0,0.0,0.0,0.0,0.0,0.0,0.0,0.0,0.0,0.0,0.0,0.0,0.0,0.0,0.0,0.0,0.0,0.0,0.0,0.0,0.0,0.0,0.0,0.0,0.0,0.0,0.0,0.0,0.0,0.0,0.0,0.0,0.0,0.0,0.0,0.0,0.0,0.0,0.0,0.0,0.0,0.0,0.0,0.0,0.0,0.0,0.0,0.0,0.0,0.0,0.0,0.0,0.0,0.0,0.0,0.0,0.0,0.0,0.0,0.0,0.0,0.0,0.0,0.0,0.0,0.0,0.0,0.0,0.0,0.0,0.0,0.0,0.0,0.0,0.0,0.0,0.0,0.0,0.0,0.0,0.0,0.0,0.0,0.0,0.0,0.0,0.0,0.0,0.0,0.0,0.0,0.0,0.0,0.0,0.0,0.0,0.0,0.0,0.0,0.0,0.0,0.0,0.0,0.0,0.0,0.0,0.0,0.0,0.0,0.0,0.0,0.0,0.0,0.0,0.0,0.0,0.0,0.0,0.0,0.0,0.0,0.0,0.0,0.0,0.0,0.0,0.0,0.0,0.0,0.0,0.0,0.0,0.0,0.0,0.0,0.0,0.0,0.0,0.0,0.0,0.0,0.0,0.0,0.0,0.0,0.0,0.0,0.0,0.0,0.0,0.0,0.0,0.0,0.0,0.0,0.0,0.0,0.0,0.0,0.0,0.0,0.0,0.0,0.0,0.0,0.0,0.0,0.0,0.0,0.0,0.0,0.0,0.0,0.0,0.0,0.0,0.0,0.0,0.0,0.0,0.0,0.0,0.0,0.0,0.0,0.0,0.0,0.0,0.0,0.0,0.0,0.0,0.0,0.0,0.0,0.0,0.0,0.0,0.0,0.0,0.0,0.0,0.0,0.0,0.0,0.0,0.0,0.0,0.0,0.0,0.0,0.0,0.0,0.0,0.0,0.0,0.0,0.0,0.0,0.0,0.0,0.0,0.0,0.0,0.0,0.0,0.0,0.0,0.0,0.0,0.0,0.0,0.0,0.0,0.0,0.0,0.0,0.0,0.0,0.0,0.0,0.0,0.0,0.0,0.0,0.0,0.0,0.0,0.0,0.0,0.0,0.0,0.0,0.0,0.0,0.0,0.0,0.0,0.0,0.0,0.0,0.0,0.0,0.0,0.0,0.0,0.0,0.0,0.0,0.0,0.0,0.0,0.0,0.0,0.0,0.0,0.0,0.0,0.0,0.0,0.0,0.0,0.0,0.0,0.0,0.0,0.0,0.0,0.0,0.0,0.0,0.0,0.0,0.0,0.0,0.0,0.0,0.0,0.0,0.0,0.0,0.0,0.0,0.0,0.0,0.0,0.0,0.0,0.0,0.0,0.0,0.0,0.0,0.0,0.0,0.0,0.0,0.0,0.0,0.0,0.0,0.0,0.0,0.0,0.0,0.0,0.0,0.0,0.0,0.0,0.0,0.0,0.0,0.0,0.0,0.0,0.0,0.0,0.0,0.0,0.0,0.0,0.0,0.0,0.0,0.0,0.0,0.0,0.0,0.0,0.0,0.0,0.0,0.0,0.0,0.0,0.0,0.0,0.0,0.0,0.0,0.0,0.0,0.0,0.0,0.0,0.0,0.0,0.0,0.0,0.0,0.0,0.0,0.0,0.0,0.0,0.0,0.0,0.0,0.0,0.0,0.0,0.0,0.0,0.0,0.0,0.0,0.0,0.0,0.0,0.0,0.0,0.0,0.0,0.0,0.0,0.0,0.0,0.0,0.0,0.0,0.0,0.0,0.0,0.0,0.0,0.0,0.0,0.0,0.0,0.0,0.0,0.0,0.0,0.0,0.0,0.0,0.0,0.0,0.0,0.0,0.0,0.0,0.0,0.0,0.0,0.0,0.0,0.0,0.0,0.0,0.0,0.0,0.0,0.0,0.0,0.0,0.0,0.0,0.0,0.0,0.0,0.0,0.0,0.0,0.0,0.0,0.0,0.0,0.0,0.0,0.0,0.0,0.0,0.0,0.0,0.0,0.0,0.0,0.0,0.0,0.0,0.0,0.0,0.0,0.0,0.0,0.0,0.0,0.0,0.0,0.0,0.0,0.0,0.0,0.0,0.0,0.0,0.0,0.0,0.0,0.0,0.0,0.0,0.0,0.0,0.0,0.0,0.0,0.0,0.0,0.0,0.0,0.0,0.0,0.0,0.0,0.0,0.0,0.0,0.0,0.0,0.0,0.0,0.0,0.0,0.0,0.0,0.0,0.0,0.0,0.0,0.0,0.0,0.0,0.0,0.0,0.0,0.0,0.0,0.0,0.0,0.0,0.0,0.0,0.0,0.0,0.0,0.0,0.0,0.0,0.0,0.0,0.0,0.0,0.0,0.0,0.0,0.0,0.0,0.0,0.0,0.0,0.0,0.0,0.0,0.0,0.0,0.0,0.0,0.0,0.0,0.0,0.0,0.0,0.0,0.0,0.0,0.0,0.0,0.0,0.0,0.0,0.0,0.0,0.0,0.0,0.0,0.0,0.0,0.0,0.0,0.0,0.0,0.0,0.0,0.0,0.0,0.0,0.0,0.0,0.0,0.0,0.0,0.0,0.0,0.0,0.0,0.0,0.0,0.0,0.0,0.0,0.0,0.0,0.0,0.0,0.0,0.0,0.0,0.0,0.0,0.0,0.0,0.0,0.0,0.0,0.0,0.0,0.0,0.0,0.0,0.0,0.0,0.0,0.0,0.0,0.0,0.0,0.0,0.0,0.0,0.0,0.0,0.0,0.0,0.0,0.0,0.0,0.0,0.0,0.0,0.0,0.0,0.0,0.0,0.0,0.0,0.0,0.0,0.0,0.0,0.0,0.0,0.0,0.0,0.0,0.0,0.0,0.0,0.0,0.0,0.0,0.0,0.0,0.0,0.0,0.0,0.0,0.0,0.0,0.0,0.0,0.0,0.0,0.0,0.0,0.0,0.0,0.0,0.0,0.0,0.0,0.0,0.0,0.0,0.0,0.0,0.0,0.0,0.0,0.0,0.0,0.0,0.0,0.0,0.0,0.0,0.0,0.0,0.0,0.0,0.0,0.0,0.0,0.0,0.0,0.0,0.0,0.0,0.0,0.0,0.0,0.0,0.0,0.0,0.0,0.0,0.0,0.0,0.0,0.0,0.0,0.0,0.0,0.0,0.0,0.0,0.0,0.0,0.0,0.0,0.0,0.0,0.0,0.0,0.0,0.0,0.0,0.0,0.0,0.0,0.0,0.0,0.0,0.0,0.0,0.0,0.0,0.0,0.0,0.0,0.0,0.0,0.0,0.0,0.0,0.0,0.0,0.0,0.0,0.0,0.0,0.0,0.0,0.0,0.0,0.0,0.0,0.0,0.0,0.0,0.0,0.0,0.0,0.0,0.0,0.0,0.0,0.0,0.0,0.0,0.0,0.0,0.0,0.0,0.0,0.0,0.0,0.0,0.0,0.0,0.0,0.0,0.0,0.0,0.0,0.0,0.0,0.0,0.0,0.0,0.0,0.0,0.0,0.0,0.0,0.0,0.0,0.0,0.0,0.0,0.0,0.0,0.0,0.0,0.0,0.0,0.0,0.0,0.0,0.0,0.0,0.0,0.0,0.0,0.0,0.0,0.0,0.0,0.0,0.0,0.0,0.0,0.0,0.0,0.0,0.0,0.0,0.0,0.0,0.0,0.0,0.0,0.0,0.0,0.0,0.0,0.0,0.0,0.0,0.0,0.0,0.0,0.0,0.0,0.0,0.0,0.0,0.0,0.0,0.0,0.0,0.0,0.0,0.0,0.0,0.0,0.0,0.0,0.0,0.0,0.0,0.0,0.0,0.0,0.0,0.0,0.0,0.0,0.0,0.0,0.0,0.0,0.0,0.0,0.0,0.0,0.0,0.0,0.0,0.0,0.0,0.0,0.0,0.0,0.0,0.0,0.0,0.0,0.0,0.0,0.0,0.0,0.0,0.0,0.0,0.0,0.0,0.0,0.0,0.0,0.0,0.0,0.0,0.0,0.0,0.0,0.0,0.0,0.0,0.0,0.0,0.0,0.0,0.0,-2.0818,0.0,0.0,0.0,0.0,0.0,0.0,0.0,0.0,0.0,0.0,0.0,0.0,0.0,0.0,0.0,0.0,0.0,0.0,0.0,0.0,0.0,0.0,0.0,0.0,0.0,0.0,0.0,0.0,0.0,0.0,0.0,0.0,0.0,0.0,0.0,0.0,0.0,0.0,-1.7381,-1.6219,-1.6633,-1.8507,-1.8918,-1.9164,-1.9298,0.0,0.0,0.0,0.0,0.0,0.0,0.0,0.0,0.0,0.0,0.0,0.0,0.0,0.0,0.0,0.0,0.0,0.0,0.0,0.0,0.0,0.0,0.0,0.0,0.0,0.0,0.0,0.0,0.0,0.0,0.0,0.0,0.0,0.0,0.0,0.0,0.0,0.0,0.0,0.0,0.0,0.0,0.0,0.0,0.0,0.0,0.0,0.0,0.0,0.0,0.0,0.0,0.0,0.0,0.0,0.0,0.0,0.0,0.0,0.0,0.0,0.0,0.0,0.0,0.0,0.0,0.0,0.0,0.0,0.0,0.0,-2.1934,0.0,0.0,0.0,0.0,0.0,0.0,0.0,0.0,0.0,0.0,0.0,0.0,0.0,0.0,0.0,0.0,0.0,0.0,0.0,0.0,0.0,0.0,0.0,-1.9694,-1.9668,-1.9623,-1.8968,-1.8503,0.0,0.0,0.0,0.0,0.0,0.0,-1.8306,-1.6576,-1.6378,-1.7844,-1.6893,-1.7306,-1.9018,-1.996,-1.9926,-1.9098,-1.9665,0.0,0.0,0.0,0.0,0.0,0.0,0.0,0.0,0.0,0.0,0.0,0.0,0.0,0.0,0.0,0.0,0.0,0.0,0.0,0.0,0.0,0.0,0.0,0.0,0.0,0.0,0.0,0.0,0.0,0.0,0.0,0.0,0.0,0.0,0.0,0.0,0.0,0.0,0.0,0.0,0.0,0.0,0.0,0.0,0.0,0.0,0.0,0.0,0.0,0.0,0.0,0.0,0.0,0.0,0.0,0.0,0.0,0.0,0.0,0.0,0.0,0.0,0.0,-2.794,-2.8597,-2.8423,-2.9187,-2.9329,-2.8773,-2.5962,-2.4919,-2.5031,0.0,0.0,0.0,0.0,0.0,0.0,0.0,0.0,0.0,0.0,0.0,0.0,0.0,0.0,0.0,0.0,0.0,0.0,0.0,0.0,0.0,0.0,-1.9311,-1.928,-1.9264,-1.9198,-1.9143,-1.907,0.0,0.0,0.0,0.0,0.0,-1.7154,-1.6858,-1.7146,-1.8071,-1.9442,-2.0556,-2.1448,-2.1817,-2.151,-2.0586,-2.0113,-2.0188,-2.0639,0.0,0.0,0.0,0.0,0.0,0.0,0.0,0.0,0.0,0.0,0.0,0.0,0.0,0.0,0.0,0.0,0.0,0.0,0.0,0.0,0.0,0.0,0.0,0.0,0.0,0.0,0.0,0.0,0.0,0.0,0.0,0.0,0.0,0.0,0.0,0.0,0.0,0.0,0.0,0.0,0.0,-1.8782,-1.8495,0.0,0.0,0.0,0.0,0.0,0.0,0.0,0.0,0.0,0.0,0.0,0.0,0.0,0.0,-2.5847,-2.8179,-2.9252,-2.9141,-3.154,-3.2133,-3.1062,-3.2372,-3.3231,-3.3621,-3.2634,0.0,-2.7184,-2.6725,0.0,0.0,0.0,0.0,0.0,0.0,0.0,0.0,0.0,0.0,0.0,0.0,0.0,0.0,0.0,0.0,0.0,0.0,0.0,0.0,0.0,-1.973,-1.9871,-1.9457,-2.0215,-2.028,-1.9321,-1.9264,0.0,0.0,0.0,-1.7275,-1.6525,-1.6138,-1.6595,-1.7918,-2.0696,-2.2197,-2.2531,-2.279,-2.2693,-2.2271,-2.1494,-2.0792,-2.022,-2.0313,0.0,0.0,0.0,0.0,0.0,0.0,0.0,0.0,0.0,0.0,0.0,0.0,0.0,0.0,0.0,0.0,0.0,0.0,0.0,0.0,0.0,0.0,0.0,0.0,0.0,0.0,0.0,0.0,0.0,0.0,0.0,0.0,0.0,0.0,0.0,0.0,0.0,0.0,0.0,-1.8711,-1.921,-1.859,-1.9388,-1.9626,0.0,0.0,0.0,0.0,0.0,0.0,0.0,0.0,0.0,-2.5705,-2.6953,-2.821,-2.9539,-3.0983,-3.2107,-3.29,-3.4381,-3.5001,-3.4788,-3.5394,-3.5857,-3.6079,-3.5875,-3.4527,-3.2292,-3.0045,-2.8139,-2.6629,0.0,0.0,0.0,0.0,0.0,-2.6532,0.0,0.0,0.0,0.0,0.0,0.0,0.0,0.0,0.0,0.0,0.0,0.0,-1.9567,-2.0436,-2.0741,-2.0178,-2.1134,-2.1143,-1.9636,-1.9093,-1.8471,-1.7663,-1.6843,-1.6262,-1.5901,-1.5871,-1.6799,-1.8747,-2.157,-2.307,-2.3327,-2.3739,-2.3836,-2.3646,-2.3172,-2.2061,-2.0559,-2.073,-2.0567,-2.0177,0.0,0.0,0.0,0.0,0.0,0.0,0.0,0.0,0.0,0.0,0.0,0.0,0.0,0.0,0.0,0.0,0.0,0.0,0.0,0.0,0.0,0.0,0.0,0.0,0.0,0.0,0.0,0.0,0.0,0.0,0.0,0.0,0.0,0.0,0.0,0.0,0.0,-1.9562,-2.0122,-1.8979,-2.0598,-2.125,0.0,0.0,0.0,0.0,0.0,0.0,-2.6048,-2.6905,-2.7826,-2.8928,-3.0148,-3.1469,-3.2946,-3.3557,-3.4661,-3.6142,-3.6546,-3.7034,-3.7506,-3.7725,-3.7866,-3.7828,-3.7928,-3.7492,-3.6587,-3.3193,-3.0779,-2.9196,-2.8543,-2.7872,-2.7368,-2.8389,-2.8905,-2.9358,0.0,0.0,0.0,0.0,0.0,0.0,0.0,0.0,0.0,0.0,0.0,-1.9567,-2.0338,-2.1216,-2.1694,-2.1603,-2.166,-2.1279,-2.03,-1.8694,-1.7662,-1.7435,-1.6828,-1.6045,-1.5074,-1.6767,-1.8873,-2.1314,-2.2317,-2.327,-2.4153,-2.5004,-2.5023,-2.4375,-2.5042,-2.4504,-2.3017,-2.1451,-2.1216,-2.1755,-2.0214,0.0,0.0,0.0,0.0,0.0,0.0,0.0,0.0,0.0,0.0,0.0,0.0,0.0,0.0,0.0,0.0,0.0,0.0,0.0,0.0,0.0,0.0,0.0,0.0,0.0,0.0,0.0,0.0,0.0,0.0,0.0,0.0,0.0,0.0,0.0,0.0,0.0,0.0,-2.0093,-2.3277,0.0,0.0,0.0,0.0,-2.5666,-2.6778,-2.8015,-2.9307,-3.0544,-3.1523,-3.2169,-3.3325,-3.4505,-3.5582,-3.6181,-3.7003,-3.8043,-3.8057,-3.8101,-3.8204,-3.8957,-3.9306,-3.9339,-3.9367,-3.8982,-3.8109,-3.5877,-3.3864,-3.2056,-3.0688,-2.9705,-2.9166,-2.9926,-3.0862,-3.1803,0.0,0.0,0.0,0.0,0.0,0.0,0.0,0.0,-1.804,-1.8246,-1.899,-1.9882,-2.0842,-2.2298,-2.2976,-2.2391,-2.2828,-2.2241,-2.0187,-1.8485,-1.7418,-1.7084,-1.5993,-1.5711,-1.6396,-1.8033,-1.9672,-2.1247,-2.3109,-2.4581,-2.5609,-2.5533,-2.5649,-2.587,-2.5613,-2.5227,-2.4615,-2.3021,-2.1925,-2.1179,-2.0604,-1.9937,0.0,0.0,0.0,0.0,0.0,0.0,0.0,0.0,0.0,0.0,0.0,0.0,0.0,0.0,0.0,0.0,0.0,0.0,0.0,0.0,0.0,0.0,0.0,0.0,0.0,0.0,0.0,0.0,0.0,0.0,0.0,0.0,0.0,0.0,0.0,0.0,0.0,-2.4925,-2.6919,0.0,-2.6597,-2.6691,-2.747,-2.9075,-2.9417,-3.06,-3.3045,-3.3974,-3.4881,-3.5896,-3.6356,-3.6831,-3.7346,-3.7284,-3.7526,-3.8026,-3.8173,-3.8202,-3.8173,-3.8087,-3.8067,-3.8035,-3.7674,-3.7622,-3.7722,-3.6899,-3.595,-3.4864,-3.4365,-3.4011,-3.3818,-3.4076,-3.4452,-3.47,0.0,0.0,0.0,0.0,0.0,0.0,0.0,0.0,-1.7888,-1.8225,-1.9157,-2.0263,-2.1534,-2.3226,-2.3922,-2.3066,-2.3443,-2.2509,-1.9617,-1.8107,-1.7182,-1.6846,-1.6186,-1.651,-1.8007,-1.922,-2.0482,-2.1763,-2.3432,-2.482,-2.5855,-2.5813,-2.6098,-2.6612,-2.6636,-2.6493,-2.6221,-2.5368,-2.386,-2.1962,-2.1359,-2.0641,-1.9839,0.0,0.0,0.0,0.0,0.0,0.0,0.0,0.0,0.0,0.0,0.0,0.0,0.0,0.0,0.0,0.0,0.0,0.0,0.0,0.0,0.0,0.0,0.0,0.0,0.0,0.0,0.0,0.0,0.0,0.0,0.0,0.0,0.0,0.0,0.0,-2.7365,-2.8401,-3.0467,-3.142,-3.0463,-3.0496,-3.1293,-3.2868,-3.3012,-3.4016,-3.633,-3.6841,-3.7401,-3.8185,-3.8016,-3.7983,-3.8239,-3.7825,-3.7702,-3.7893,-3.8069,-3.8117,-3.7871,-3.7701,-3.7511,-3.7334,-3.7164,-3.7342,-3.7727,-3.7727,-3.7431,-3.6983,-3.674,-3.6513,-3.6335,-3.6562,-3.6659,-3.6578,0.0,0.0,0.0,0.0,0.0,0.0,0.0,-1.7954,-1.8194,-1.8547,-1.9522,-2.0822,-2.2463,-2.3911,-2.4477,-2.3715,-2.3481,-2.1972,-1.8766,-1.7537,-1.689,-1.6699,-1.7427,-1.8452,-1.977,-2.0296,-2.1411,-2.3179,-2.3342,-2.392,-2.4882,-2.5887,-2.6421,-2.6571,-2.8169,-2.8453,-2.7846,-2.8409,-2.7064,-2.4395,-2.2537,-2.1679,-2.1316,0.0,0.0,0.0,0.0,0.0,0.0,0.0,0.0,0.0,0.0,0.0,0.0,0.0,0.0,0.0,0.0,0.0,0.0,0.0,0.0,0.0,0.0,0.0,0.0,0.0,0.0,0.0,0.0,0.0,0.0,0.0,0.0,0.0,-2.4827,-2.8736,-3.1251,-3.0372,-3.3818,-3.5384,-3.3246,-3.5006,-3.6445,-3.6993,-3.7643,-3.8232,-3.8875,-3.8912,-3.8918,-3.8946,-3.8296,-3.7969,-3.8161,-3.7825,-3.7702,-3.7864,-3.804,-3.7842,-3.7254,-3.7918,-3.7916,-3.7384,-3.8014,-3.8278,-3.8335,-3.8335,-3.8335,-3.827,-3.763,-3.695,-3.6448,-3.7112,-3.7339,-3.7323,0.0,0.0,0.0,0.0,0.0,0.0,0.0,-1.7489,-1.7681,-1.8107,-1.9399,-2.1008,-2.2972,-2.3981,-2.4637,-2.4898,-2.3323,-2.1616,-1.9924,-1.7418,-1.6163,-1.6538,-1.7782,-1.9459,-2.161,-2.1815,-2.2691,-2.442,-2.4475,-2.4978,-2.5959,-2.5772,-2.5984,-2.6614,-2.7701,-2.8067,-2.7968,-2.9311,-2.9151,-2.772,-2.4928,-2.2998,-2.1697,0.0,0.0,0.0,0.0,0.0,0.0,0.0,0.0,0.0,0.0,0.0,0.0,0.0,0.0,0.0,0.0,0.0,0.0,0.0,0.0,0.0,0.0,0.0,0.0,0.0,0.0,0.0,0.0,0.0,0.0,0.0,-2.7087,-2.9428,-2.961,-3.1433,-3.3677,-3.6189,-3.7845,-3.8577,-3.7966,-3.8844,-3.9154,-3.8441,-3.8936,-3.9385,-3.9524,-3.9116,-3.9136,-3.9494,-3.8441,-3.7941,-3.7969,-3.7725,-3.7404,-3.7008,-3.7405,-3.7171,-3.6574,-3.6286,-3.6097,-3.5904,-3.5624,-3.5785,-3.6212,-3.6212,-3.6508,-3.7055,-3.7809,-3.7987,-3.7841,-3.8035,-3.7776,-3.7323,0.0,0.0,0.0,0.0,0.0,0.0,0.0,-1.7345,-1.7566,-1.8023,-1.9435,-2.0993,-2.2623,-2.3362,-2.3761,-2.3832,-2.2223,-2.0349,-1.8404,-1.6442,-1.6022,-1.7474,-1.8785,-2.0384,-2.2364,-2.2885,-2.3642,-2.4607,-2.479,-2.5316,-2.6231,-2.63,-2.6753,-2.7572,-2.8764,-2.9271,-2.9377,-3.0885,-3.0953,-2.9849,-2.7865,-2.5788,-2.3706,-2.2188,-2.1353,-2.0898,-2.0361,-2.0077,-1.9874,-1.9288,0.0,0.0,0.0,0.0,0.0,0.0,0.0,0.0,0.0,0.0,0.0,0.0,0.0,0.0,0.0,0.0,0.0,0.0,0.0,0.0,0.0,0.0,0.0,0.0,-3.0474,-3.3087,-3.4393,-3.5194,-3.6627,-3.9311,-4.0182,-4.0659,-4.0926,-4.1294,-4.1127,-4.0069,-4.0392,-4.0421,-4.0166,-3.9808,-3.9839,-4.015,-3.896,-3.8304,-3.8317,-3.777,-3.7353,-3.7106,-3.739,-3.7082,-3.6312,-3.6522,-3.6289,0.0,-3.5674,-3.5899,-3.6243,-3.594,-3.6072,0.0,0.0,0.0,0.0,0.0,-3.8132,-3.7776,0.0,0.0,0.0,0.0,0.0,0.0,0.0,-1.732,-1.7579,-1.8061,-1.9389,-2.0674,-2.1704,-2.2223,-2.2288,-2.1794,-2.071,-1.8771,-1.5782,-1.543,-1.6433,-1.8889,-2.0025,-2.128,-2.2733,-2.3869,-2.4528,-2.4695,-2.5045,-2.5589,-2.6287,-2.7286,-2.8132,-2.8862,-3.0392,-3.1091,-3.1179,-3.2421,-3.2263,-3.1167,-3.0711,-2.8989,-2.6435,-2.4026,-2.3017,-2.2785,-2.2053,-2.1337,-2.0767,-2.0716,0.0,0.0,0.0,0.0,0.0,0.0,0.0,0.0,0.0,0.0,0.0,0.0,0.0,0.0,0.0,0.0,0.0,0.0,0.0,0.0,0.0,0.0,0.0,0.0,-3.3396,-3.5658,-3.8566,-3.903,-3.9507,-4.0674,-4.1404,-4.2022,-4.2528,-4.2665,-4.2453,-4.1733,-4.1649,-4.1354,-4.0858,0.0,0.0,0.0,0.0,-3.8882,-3.8833,-3.7855,-3.7429,-3.7501,-3.771,-3.7258,-3.6351,-3.7511,-3.7404,-3.6298,-3.6995,-3.7272,-3.7149,-3.652,-3.6259,-3.6322,-3.6446,-3.689,-3.7594,-3.8164,-3.8391,0.0,0.0,0.0,0.0,0.0,0.0,0.0,0.0,-1.6763,-1.6977,-1.7555,-1.8365,-1.9335,-2.0515,-2.0617,-2.102,-2.201,-2.0178,-1.8143,-1.6198,-1.6922,-1.7861,-1.8889,-2.0394,-2.2425,-2.5018,-2.5661,-2.6516,-2.7661,-2.7791,-2.7911,-2.8025,-2.8397,-2.8657,-2.8827,-2.9928,-3.0394,-3.0463,-3.1405,-3.2046,-3.2345,-3.1134,-2.9316,-2.7233,-2.6101,-2.517,-2.4423,-2.4258,-2.392,-2.3533,-2.3396,-2.2873,-2.2105,-2.1241,-2.0229,0.0,0.0,0.0,0.0,0.0,0.0,0.0,0.0,0.0,0.0,0.0,0.0,0.0,0.0,0.0,0.0,0.0,0.0,0.0,-3.3241,-3.5672,-3.7751,-3.9381,-4.0027,-4.0617,-4.1348,-4.2444,-4.2992,-4.2612,-4.3082,-4.309,-4.2426,-4.1948,-4.1562,-4.144,-4.0504,0.0,-3.9981,-3.9257,-3.8597,-3.8078,-3.8023,-3.7607,-3.6853,0.0,0.0,-3.6328,-3.6587,-3.6307,-3.5634,-3.6283,-3.63,-3.5774,-3.5638,-3.5578,-3.5706,-3.6768,-3.7594,-3.8205,-3.8335,-3.8391,-3.8391,0.0,0.0,0.0,0.0,0.0,0.0,0.0,-1.6543,-1.6712,-1.7134,-1.7746,-1.8421,-1.9177,-1.9244,-1.9537,-2.0237,-1.8602,-1.7458,-1.7273,-1.7636,-1.8527,-2.0026,-2.1327,-2.3055,-2.5357,-2.6138,-2.701,-2.8033,-2.8379,-2.8548,-2.8527,-2.9068,-2.9349,-2.9416,-3.0666,-3.1252,-3.132,-3.2357,-3.2628,-3.2266,-3.2157,-3.082,-2.878,-2.7892,-2.7106,-2.6477,-2.6088,-2.5467,-2.4856,-2.5109,-2.4221,-2.2905,-2.2558,-2.1433,-1.9971,0.0,0.0,0.0,0.0,0.0,0.0,0.0,0.0,0.0,0.0,0.0,0.0,0.0,0.0,-2.7411,-2.9265,0.0,-3.3677,-3.615,-3.785,-3.917,-4.0112,-4.1053,-4.1755,-4.205,-4.2654,-4.316,-4.3469,-4.3764,-4.3568,-4.2654,-4.2331,-4.1812,-4.1141,-4.0546,-4.0206,-4.0206,-3.969,-3.9017,-3.8387,-3.8169,-3.7756,-3.7153,-3.7229,-3.7123,-3.6823,-3.7114,-3.6925,-3.633,-3.667,-3.6497,-3.5819,-3.5171,-3.527,-3.5961,-3.6646,-3.7342,-3.796,-3.8278,-3.8391,-3.8391,0.0,0.0,0.0,0.0,0.0,0.0,0.0,-1.6409,-1.6528,-1.6799,-1.7253,-1.7642,-1.788,-1.806,-1.8178,-1.8178,-1.7311,-1.7181,-1.8179,-1.8198,-1.9124,-2.1311,-2.2489,-2.3831,-2.5441,-2.6518,-2.7389,-2.8061,-2.8784,-2.916,-2.9176,-3.013,-3.0505,-3.0459,-3.1789,-3.2311,-3.2253,-3.3251,-3.3018,-3.2144,-3.2908,-3.2159,-3.0497,-2.9425,-2.8748,-2.8257,-2.7366,-2.6274,-2.5323,-2.5909,-2.4747,-2.3105,-2.3426,-2.2351,-2.0684,-1.9496,-1.891,0.0,0.0,0.0,0.0,0.0,0.0,0.0,0.0,-2.3854,-2.4702,-2.7016,-2.8816,-3.0642,-3.2876,-3.4632,-3.6459,-3.8678,-3.9451,-3.9999,-4.0617,-4.1573,-4.2219,-4.2219,-4.2528,-4.3104,-4.3975,-4.3933,-4.3533,-4.2683,-4.235,-4.1826,-4.0926,-4.0758,-4.0702,-4.0702,-4.0224,-3.9605,-3.8875,-3.8341,-3.7882,-3.7534,-3.7625,-3.7519,-3.7432,-3.7984,-3.7883,-3.7288,-3.7186,-3.6748,-3.6061,-3.5025,-3.5219,-3.6197,-3.6322,-3.6829,-3.7476,-3.8148,-3.8391,-3.8391,0.0,0.0,0.0,0.0,0.0,0.0,0.0,0.0,-1.6316,-1.6528,-1.6601,-1.6702,-1.6859,-1.7074,-1.7281,-1.7404,-1.7764,-1.8039,-1.8113,-1.9142,-2.0337,-2.1679,-2.3729,-2.5401,-2.6666,-2.7975,-2.8997,-2.9729,-3.0856,-3.1441,-3.1458,-3.2463,-3.261,-3.2121,-3.242,-3.2307,-3.1848,-3.201,-3.2382,-3.2916,-3.246,-3.2228,-3.204,-3.0729,-2.979,-2.911,-2.7829,-2.6336,-2.4971,-2.5222,-2.4202,-2.2937,-2.3515,-2.2631,-2.1246,-2.0306,-1.9184,-1.8205,-1.8269,-1.9083,-2.0294,-2.1811,-2.2498,-2.4015,0.0,-2.9038,-2.9463,-3.2624,-3.3902,-3.4857,-3.622,-3.7091,-3.806,-3.9451,-3.9746,-3.9999,-4.0617,-4.0814,-4.0912,-4.0912,-4.2374,-4.3231,-4.2823,-4.2261,-4.2093,-4.2603,-4.1531,-4.1081,-4.1488,-4.0997,-4.0702,-4.0702,-4.0617,-4.0027,-3.8875,-3.8791,-3.8333,-3.7303,-3.7534,-3.7658,-3.7829,-3.8113,-3.7883,-3.7244,-3.6754,-3.6119,-3.5478,-3.5344,-3.54,-3.5578,-3.6197,-3.6829,-3.7476,-3.8148,-3.8391,-3.8391,0.0,0.0,0.0,0.0,0.0,0.0,0.0,0.0,0.0,-1.6191,-1.6136,-1.6136,-1.6219,-1.6581,-1.6789,-1.6769,-1.6962,-1.7508,-1.8459,-1.9439,-2.0751,-2.248,-2.4343,-2.5733,-2.6629,-2.8034,-2.891,-2.9257,-3.0852,-3.1437,-3.1047,-3.1913,-3.2194,-3.1945,-3.2525,-3.2657,-3.245,-3.2755,-3.2768,-3.2572,-3.2557,-3.2034,-3.1134,-3.0176,-2.9051,-2.7832,-2.6886,-2.5834,0.0,-2.482,-2.3818,-2.2662,-2.3196,-2.2218,-2.0726,-1.9734,-1.9495,-1.9686,-2.0663,-2.1966,-2.3389,-2.4678,-2.6159,-2.8033,-3.0521,-3.1096,-3.1772,-3.4281,-3.5826,-3.7021,-3.792,-3.8875,-3.9704,-4.0224,-4.0308,-4.0407,-4.0659,-4.0702,-4.0435,-3.9718,-4.0322,-4.0983,-4.1446,-4.1559,-4.1573,-4.1488,-4.1334,-4.1193,-4.1081,-4.0842,-4.0702,-4.0702,-4.035,-3.9746,-3.8875,-3.8496,-3.7943,-3.7303,-3.738,-3.7425,-3.7397,-3.7832,-3.7734,-3.723,-3.6274,-3.5678,-3.5383,-3.5001,-3.5023,-3.5464,-3.6134,-3.6829,-3.7476,-3.8148,-3.8391,-3.8391,0.0,0.0,0.0,0.0,0.0,0.0,0.0,0.0,0.0,0.0,-1.5885,-1.5856,-1.597,-1.6274,-1.6463,-1.6436,-1.6358,-1.6933,-1.8429,-1.9252,-2.0543,-2.246,-2.4351,-2.5637,-2.6233,-2.7921,-2.8842,-2.9029,-3.0704,-3.1406,-3.1166,-3.1919,-3.2176,-3.2045,-3.2705,-3.2896,-3.2777,-3.299,-3.2625,-3.1961,-3.1924,-3.1078,-2.9781,-2.8904,-2.7514,-2.6031,-2.5546,-2.4686,-2.3789,-2.3422,-2.2579,-2.1777,-2.2192,-2.1458,-2.0348,-1.9694,-2.0013,-2.0825,-2.2147,-2.3864,-2.5638,-2.7109,-2.9324,-3.1366,-3.2314,-3.2974,-3.3845,-3.5349,-3.6726,-3.7793,-3.8257,-3.9367,-4.0196,-4.0196,-4.0477,-4.0631,-4.0477,-4.0308,-3.9732,-3.8496,-3.8201,-3.8383,-3.91,-4.0027,-4.0477,-4.021,-4.0758,-4.0912,-4.0477,-4.0603,-4.0617,-4.0449,-4.0013,-3.9395,-3.8608,-3.8131,-3.7676,-3.7226,-3.7133,-3.6973,-3.6934,-3.7281,-3.7314,-3.6968,-3.5851,-3.527,-3.5067,-3.4603,-3.4654,-3.5219,-3.5897,-3.6523,-3.7222,-3.7902,-3.8221,-3.8391,0.0,0.0,0.0,0.0,0.0,0.0,0.0,0.0,0.0,0.0,0.0,0.0,0.0,-1.6136,-1.6219,-1.6474,-1.6378,-1.6756,-1.7871,-1.8505,-1.954,-2.1103,-2.3581,-2.5143,-2.5633,-2.7762,-2.9234,-2.9845,-3.1071,-3.2064,-3.2723,-3.3548,-3.3652,-3.3119,-3.3203,-3.2917,-3.2376,-3.1744,-3.1451,-3.1327,-3.0012,-2.9089,-2.8319,-2.698,-2.5435,-2.3973,-2.3958,-2.2763,-2.1034,-2.0514,-2.017,-2.0017,-2.0226,-2.0355,-2.0509,-2.0917,-2.0858,-2.0904,-2.184,-2.3837,-2.6175,-2.8637,-3.1054,-3.3195,-3.4773,-3.5517,-3.6136,-3.6796,-3.6978,-3.7021,-3.7035,-3.8074,-3.8917,-3.8917,-3.9929,-4.0491,-3.9901,-3.9297,-3.8454,-3.7189,-3.6515,-3.5939,0.0,-3.695,-3.8257,-3.8875,-3.9493,-3.9831,-3.9816,-4.0378,-4.0421,-3.9831,-3.9788,-3.9184,-3.7934,-3.7906,-3.7597,-3.6978,-3.6618,-3.6546,-3.6668,-3.6432,-3.6359,-3.6301,-3.5648,-3.5009,-3.4443,-3.4428,-3.4414,-3.4467,-3.5154,-3.5834,-3.6508,-3.7163,-3.7844,-3.8391,0.0,0.0,0.0,0.0,0.0,0.0,0.0,0.0,0.0,0.0,0.0,0.0,0.0,0.0,0.0,0.0,-1.5814,-1.6207,-1.7246,-1.8284,-1.9299,-2.0272,-2.3374,-2.4894,-2.4422,-2.6854,-2.7952,-2.7566,-2.9325,-3.0045,-2.9922,-3.1049,-3.1529,-3.1337,-3.1824,-3.192,-3.1705,-3.149,-3.1643,-3.1859,-2.9643,-2.8611,-2.8102,-2.5695,-2.3673,-2.2166,0.0,-2.0878,-2.0215,-1.9383,-1.896,-1.8797,-1.8864,-1.8708,-1.8842,-2.0561,-2.1643,-2.279,-2.5433,-2.7693,-2.9803,-3.2011,-3.3772,-3.5274,-3.6178,-3.6529,-3.6613,-3.6416,-3.5728,-3.504,-3.4632,-3.5236,-3.6065,-3.688,-3.8397,-3.955,-3.9746,-3.9606,-3.8707,-3.6627,-3.6192,-3.5672,0.0,0.0,0.0,-3.7569,-3.8594,-3.9353,-3.976,-3.9971,-3.9999,-3.9788,-3.8974,-3.8327,-3.7906,-3.7498,-3.7189,-3.6964,-3.6254,-3.6282,-3.6876,-3.5594,-3.5285,-3.5648,-3.5009,-3.4617,-3.4414,-3.4414,-3.4414,-3.4481,-3.5154,-3.5834,-3.6508,-3.7163,-3.7844,-3.8391,0.0,0.0,0.0,0.0,0.0,0.0,0.0,0.0,0.0,0.0,0.0,0.0,0.0,0.0,0.0,0.0,0.0,-1.5872,-1.6661,-1.7413,-1.8179,-1.9007,-2.1799,-2.3221,-2.2926,-2.5191,-2.6174,-2.5728,-2.7273,-2.7813,-2.7412,-2.8539,-2.9015,-2.8996,-2.9412,-2.9631,-2.9651,-2.9369,-2.9508,-2.9774,-2.7363,-2.6443,-2.6153,-2.3613,-2.1917,0.0,-1.9918,-1.9545,-1.9369,-1.8644,-1.8361,-1.8323,-1.837,-1.882,-1.9615,-2.1461,-2.3175,-2.5154,-2.8629,-3.0765,-3.2639,-3.4952,-3.6136,-3.6824,-3.7217,-3.6796,-3.6037,-3.4983,-3.3775,-3.2595,-3.1541,-3.2019,-3.2988,-3.4239,-3.5995,-3.7583,-3.8636,-3.8594,-3.7948,-3.6557,-3.6206,-3.5672,-3.466,0.0,0.0,-3.6627,-3.8032,-3.9044,-3.9437,-3.9873,-4.0013,-3.9788,-3.8791,-3.8131,-3.7906,-3.7288,-3.6866,-3.6641,-3.6244,-3.6255,-3.6517,-3.5276,-3.4965,-3.5328,-3.469,-3.4414,-3.4414,-3.4414,-3.4414,-3.4467,-3.4839,-3.5464,-3.6134,-3.6768,-3.746,-3.8091,0.0,0.0,0.0,0.0,0.0,0.0,0.0,0.0,0.0,0.0,0.0,0.0,0.0,0.0,0.0,0.0,0.0,0.0,-1.6148,-1.6042,-1.6403,-1.7377,-1.9096,-2.037,-2.1152,-2.2958,-2.4055,-2.4343,-2.5124,-2.545,-2.5381,-2.615,-2.6419,-2.6287,-2.6318,-2.6392,-2.6448,-2.5623,-2.5419,-2.5455,-2.3564,-2.2854,-2.2692,-2.0956,-2.0157,-1.9839,-1.9128,-1.8736,-1.8478,-1.8323,-1.8458,-1.8733,-1.8933,-2.0628,-2.2719,-2.3685,-2.5479,-2.7886,-3.1265,-3.3056,-3.4646,-3.7237,-3.7906,-3.7878,-3.7821,-3.6374,-3.4548,-3.2736,-3.126,-2.9743,-2.7959,-2.8661,-2.9954,-3.1274,-3.3115,-3.5026,-3.6866,-3.6655,-3.6487,-3.6978,-3.6543,-3.5953,-3.5381,-3.5798,0.0,-3.6164,0.0,-3.8847,-3.8903,-4.0013,-4.0378,-3.9746,-3.9142,-3.851,-3.7864,-3.7274,-3.6697,-3.6197,-3.6546,-3.6353,-3.5739,-3.5522,-3.5357,-3.5328,-3.469,-3.4414,-3.4414,-3.4414,-3.4414,-3.4414,-3.4414,-3.4787,-3.5464,-3.6134,-3.6768,-3.7476,0.0,0.0,0.0,0.0,0.0,0.0,0.0,0.0,0.0,0.0,0.0,0.0,0.0,0.0,0.0,0.0,0.0,0.0,-1.5898,-1.6424,-1.6604,-1.6384,-1.8852,-2.0001,-1.9528,-2.1455,-2.2504,-2.2425,-2.3391,-2.381,-2.3662,-2.4668,-2.4994,-2.4856,-2.5364,-2.5536,-2.5402,-2.5118,-2.5242,-2.5379,-2.2802,-2.2092,-2.2289,-2.0104,-1.9257,-1.9142,-1.8754,-1.8556,-1.8548,-1.8971,-2.0077,-2.131,-2.1472,-2.3022,-2.5066,-2.6701,-2.8879,-3.1251,-3.3702,-3.5597,-3.7027,-3.7737,-3.7906,-3.7653,-3.674,-3.511,-3.3396,-3.2005,-2.9251,-2.6793,-2.5865,-2.7088,-2.8956,-3.1134,-3.4183,-3.6936,-3.8805,-3.9325,-3.9058,-3.7807,-3.7962,-3.7723,-3.6627,-3.7077,0.0,0.0,-3.7878,-3.8552,-3.9493,-3.9845,-3.9732,-3.9128,-3.8482,-3.785,-3.7231,-3.7063,-3.6986,-3.6985,-3.667,-3.6522,-3.6632,-3.5611,-3.5247,-3.5328,-3.469,-3.4414,-3.4414,-3.4414,-3.4414,-3.4414,-3.4414,-3.4787,-3.54,-3.5578,-3.6399,-3.7417,0.0,0.0,0.0,0.0,0.0,0.0,0.0,0.0,0.0,0.0,0.0,0.0,0.0,0.0,0.0,0.0,0.0,0.0,0.0,-1.6158,-1.6352,-1.6262,-1.8074,-1.8982,-1.8823,-2.021,-2.0798,-2.0533,-2.1401,-2.1697,-2.1443,-2.2209,-2.2555,-2.2532,-2.272,-2.2793,-2.2697,-2.2591,-2.2735,0.0,0.0,-2.0523,-2.0728,-1.9276,-1.8721,-1.8683,-1.8542,-1.9037,-1.9852,-2.0737,-2.1917,-2.3252,-2.4451,-2.598,-2.7708,-2.9903,-3.1886,-3.3898,-3.6206,-3.7737,-3.8721,-3.8721,-3.8313,-3.7372,-3.5321,-3.3213,-3.1106,-2.9055,-2.6526,-2.4474,-2.387,-2.5064,-2.6863,-2.9083,-3.2089,-3.5082,-3.7779,-3.8678,-3.8988,-3.8749,-3.9044,-3.8889,-3.7906,-3.8369,-3.8721,0.0,-3.8721,-3.9044,-3.9746,-3.9788,-3.962,-3.9283,-3.8383,-3.7611,-3.6993,-3.6978,-3.707,-3.7148,-3.6949,-3.6803,-3.6816,-3.6186,-3.5841,-3.5735,0.0,-3.4835,-3.4806,-3.453,-3.4414,-3.4414,-3.4414,-3.4654,-3.5037,-3.527,-3.6087,-3.7027,0.0,0.0,0.0,0.0,0.0,0.0,0.0,0.0,0.0,0.0,0.0,0.0,0.0,0.0,0.0,0.0,0.0,0.0,0.0,0.0,-1.5906,-1.6589,-1.7161,-1.7859,-1.8668,-1.9269,-1.9385,-1.9027,-1.9667,-1.981,-1.951,-1.984,-2.008,-2.0174,-1.9854,-1.9711,-1.9732,-1.9515,-1.9493,-1.953,-1.9049,-1.8874,-1.8836,0.0,-1.8517,-1.8517,-1.8517,-1.9599,-2.1257,-2.2817,-2.394,-2.5145,-2.7509,-2.9167,-3.0684,-3.3101,-3.4618,-3.6023,-3.8355,-3.9437,-3.9845,-3.9592,-3.858,-3.6838,-3.3663,-3.0965,-2.8296,-2.5444,-2.3786,-2.2718,-2.2269,-2.3329,-2.4892,-2.6849,-2.9209,-3.2075,-3.5784,-3.6852,-3.7864,-3.9578,-3.9859,-3.969,-3.9156,-3.9592,-3.9901,-3.9901,-3.9831,-3.9788,-3.9788,-3.9788,-3.9704,-3.9535,-3.8397,-3.7526,-3.6993,-3.6978,-3.6978,-3.6978,-3.7148,-3.7096,-3.681,-3.6874,-3.675,-3.6331,0.0,0.0,-3.5314,-3.4675,-3.4414,-3.4414,-3.4414,-3.4414,-3.4467,-3.5154,-3.5834,-3.6508,0.0,0.0,0.0,0.0,0.0,0.0,0.0,0.0,0.0,0.0,-1.6953,-1.6338,0.0,0.0,0.0,0.0,0.0,0.0,0.0,0.0,0.0,-1.6589,-1.7161,-1.7825,-1.851,-1.9125,-1.9354,-1.9236,-1.9651,-1.9864,-1.9878,-1.998,-2.008,-2.0174,-1.9732,-1.9493,-1.945,-1.925,-1.9101,-1.8936,-1.8812,-1.8673,-1.8542,-1.8517,0.0,0.0,-1.8517,-1.9051,-2.0259,-2.3547,-2.609,-2.824,-3.0221,-3.2033,-3.3817,-3.5784,-3.6866,-3.7751,-3.9226,-4.0069,-4.0168,-3.8622,-3.7302,-3.5447,-3.1836,-2.8689,-2.6104,-2.4596,-2.2865,-2.1752,-2.2114,-2.3631,-2.5767,-2.8661,-3.0783,-3.3368,-3.7063,-3.8145,-3.8847,-3.9676,-4.0224,-4.0491,-4.0393,-4.0477,-4.0533,0.0,0.0,-3.9788,-3.9788,-3.9788,-3.9311,-3.8257,-3.7526,-3.7091,-3.6978,-3.6978,-3.6978,-3.6978,-3.7056,-3.7092,-3.721,-3.6925,-3.6788,-3.6836,0.0,0.0,-3.5314,-3.4675,-3.4414,-3.4414,-3.4414,-3.4414,-3.4467,-3.5154,-3.5834,-3.6508,0.0,0.0,0.0,0.0,0.0,0.0,0.0,-1.7567,-1.776,-1.7794,-1.7745,-1.7488,-1.6862,-1.704,-1.7219,0.0,0.0,0.0,0.0,0.0,0.0,0.0,-1.7974,-1.845,-1.9105,-1.936,-1.9501,-1.9465,0.0,-1.9782,-2.0185,-1.9726,-1.9782,-2.0174,-1.9551,-1.925,-1.9168,-1.9093,-1.8927,-1.8736,-1.8711,-1.8634,-1.8517,0.0,0.0,0.0,-1.8517,-1.9121,-2.0302,-2.2704,-2.5388,-2.8268,-3.1443,-3.3494,-3.5012,-3.6543,-3.7653,-3.8608,-3.9535,-4.0224,-4.0252,-3.8369,-3.6501,-3.3972,-2.9588,-2.6441,-2.3898,-2.2044,-2.1215,-2.0906,-2.1201,-2.3027,-2.4994,-2.6483,-2.8282,-3.0909,-3.4955,-3.6065,-3.7288,-3.9521,-4.0322,-4.0702,-4.0702,-4.0702,-4.0702,-4.0702,0.0,-3.9788,-3.9788,-3.9156,-3.8383,-3.7456,-3.7133,-3.6978,-3.6978,-3.6978,-3.6978,-3.6978,-3.6978,-3.7148,-3.7457,-3.7234,-3.7318,-3.756,-3.678,0.0,-3.5878,-3.5565,-3.5043,-3.4399,-3.4773,-3.4905,-3.4971,-3.527,-3.6024,-3.6966,0.0,0.0,0.0,0.0,0.0,0.0,0.0,-1.8425,-1.8568,-1.8194,-1.8597,-1.8717,-1.8208,-1.7981,-1.7891,0.0,0.0,0.0,0.0,0.0,0.0,0.0,0.0,0.0,-1.9675,0.0,0.0,-1.9611,-1.9465,0.0,0.0,0.0,0.0,0.0,-1.9515,-1.9191,-1.913,-1.9031,-1.8917,0.0,0.0,-1.8634,0.0,0.0,0.0,0.0,0.0,-1.915,-2.0203,-2.1538,-2.3688,-2.6483,-3.0333,-3.3016,-3.4927,-3.5756,-3.7259,-3.8791,-3.9423,-4.0041,-4.0055,-3.8173,-3.5658,-3.2412,-2.7692,-2.4587,-2.2072,-1.9838,-1.995,-2.0442,-2.0569,-2.2269,-2.3836,-2.4244,-2.5584,-2.8085,-3.2328,-3.3803,-3.5672,-3.8988,-4.0168,-4.0702,-4.0702,-4.0702,0.0,-4.0702,0.0,0.0,-3.9381,-3.8313,-3.7484,-3.6993,-3.6978,-3.6978,-3.6978,-3.6978,-3.6978,-3.6978,-3.7056,-3.7226,-3.7457,-3.7625,-3.7839,-3.8008,-3.7345,0.0,0.0,-3.62,-3.5577,-3.4654,-3.5335,-3.5578,-3.5642,-3.5785,-3.6477,-3.7417,0.0,0.0,0.0,0.0,0.0,0.0,0.0,-1.874,-1.8931,-1.9506,-1.9606,-1.957,-1.951,-1.8972,-1.8612,0.0,0.0,0.0,0.0,0.0,0.0,0.0,0.0,0.0,0.0,0.0,0.0,-1.9611,-1.9574,0.0,0.0,0.0,0.0,0.0,0.0,-1.953,-1.9617,-1.9168,0.0,0.0,0.0,0.0,0.0,0.0,0.0,0.0,0.0,-1.8588,-1.8967,-2.0795,-2.1963,-2.2971,-2.5078,-2.9307,-3.3396,-3.296,-3.5278,-3.8131,-3.8777,-3.9395,-3.9423,-3.754,-3.4379,-3.0726,-2.6849,-2.3617,-2.1046,-1.967,-1.995,-2.0569,-2.1133,-2.1865,-2.2915,-2.4615,-2.5514,-2.7312,-3.112,-3.3649,-3.5855,-3.7835,-3.9634,-4.0702,-4.0702,-4.0702,-4.0702,-4.0702,0.0,0.0,-3.8102,-3.7428,-3.7049,-3.6978,-3.6978,-3.6978,-3.6978,-3.6978,-3.6978,-3.6978,-3.7226,-3.7226,-3.707,-3.7625,-3.7777,-3.763,0.0,0.0,0.0,-3.5696,-3.5394,-3.54,-3.6072,-3.6322,-3.6384,-3.6966,-3.7282,-3.7476,0.0,0.0,0.0,0.0,0.0,0.0,-1.9311,-1.9336,-1.9426,-1.9696,-1.9726,-1.969,-1.969,-1.945,-1.9286,-1.9286,0.0,0.0,0.0,0.0,0.0,0.0,0.0,0.0,0.0,0.0,-1.969,-1.9669,-1.9611,0.0,0.0,0.0,0.0,0.0,0.0,-1.9839,-1.969,-1.9508,0.0,0.0,0.0,0.0,0.0,0.0,0.0,0.0,0.0,0.0,-1.863,-1.936,-2.0274,-2.1102,-2.1088,-2.4151,-2.8212,-3.0586,-3.3115,-3.5517,-3.7259,-3.8468,-3.8777,-3.6908,-3.3649,-3.0024,-2.6652,-2.3224,-2.0386,-1.9136,-1.9348,-1.988,-2.0119,-2.0681,-2.1468,-2.2611,-2.2648,-2.3884,-2.7607,-2.9631,-3.1963,-3.5307,-3.7667,-3.9311,-4.0069,0.0,-4.0393,0.0,0.0,0.0,-3.7386,-3.7119,-3.6978,-3.6978,-3.6978,-3.6978,-3.6978,-3.6978,-3.6978,-3.6978,-3.707,-3.7148,-3.7226,-3.7534,-3.7777,-3.7749,0.0,0.0,0.0,-3.7225,-3.6949,-3.6667,-3.6939,-3.7027,-3.7027,-3.7282,-3.7669,-3.8033,0.0,0.0,0.0,0.0,0.0,-1.8927,-1.9585,-1.969,-1.969,-1.969,-1.969,-1.969,-1.969,-1.969,-1.969,-1.969,-1.969,0.0,0.0,0.0,0.0,0.0,0.0,0.0,0.0,0.0,-1.9854,-1.9854,-1.9904,-2.015,0.0,0.0,-2.0447,-2.0942,0.0,0.0,0.0,0.0,0.0,0.0,0.0,0.0,0.0,0.0,0.0,0.0,0.0,0.0,0.0,0.0,0.0,-1.9683,-1.8798,-2.0316,-2.3168,-2.6947,-3.0164,-3.2918,-3.4843,-3.6543,-3.7372,-3.5672,-3.2455,-2.8942,-2.602,-2.2634,-1.981,-1.8742,-1.8969,-1.939,-1.939,-2.0105,-2.0737,-2.0976,-2.1117,-2.224,-2.5205,-2.7172,-2.9659,-3.3269,-3.57,-3.7583,-3.8833,-3.969,-3.9718,0.0,0.0,0.0,0.0,-3.6978,-3.6908,-3.6726,-3.6712,-3.6627,-3.6445,-3.6445,-3.6445,-3.6445,-3.6704,-3.6866,-3.6957,-3.7386,-3.7701,-3.7839,0.0,0.0,0.0,-3.8019,-3.7818,-3.7484,-3.7666,-3.7727,-3.7727,-3.7727,-3.7976,-3.8391,0.0,0.0,0.0,0.0,0.0,0.0,-1.9585,-1.969,-1.969,-1.969,-1.969,-1.969,-1.969,-1.969,-1.969,-1.969,-1.969,0.0,0.0,0.0,0.0,0.0,0.0,0.0,0.0,0.0,-2.0174,-2.0174,-2.0613,-2.0712,-2.0597,-2.0878,-2.1134,-2.1386,0.0,0.0,0.0,0.0,0.0,0.0,0.0,0.0,0.0,0.0,0.0,0.0,0.0,0.0,0.0,0.0,0.0,0.0,0.0,-1.8545,-1.9065,-2.1538,-2.6202,-3.0698,-3.1373,-3.3326,-3.4899,-3.3663,-3.0558,-2.7215,-2.4709,-2.1678,-1.9235,-1.8644,-1.8969,-1.939,-1.939,-2.0442,-2.1119,-2.0498,-2.1903,-2.3519,-2.4812,-2.765,-3.0291,-3.2202,-3.4056,-3.5658,-3.6894,-3.8145,0.0,0.0,0.0,0.0,0.0,-3.6978,-3.6712,-3.6093,-3.6079,-3.5784,-3.5254,-3.5254,-3.5254,-3.5254,-3.6024,-3.6307,-3.6169,-3.7187,-3.7625,0.0,0.0,0.0,0.0,-3.7384,-3.7421,-3.7492,-3.8148,-3.8391,-3.8391,-3.8391,-3.8391,-3.8391,0.0,0.0,0.0,0.0,0.0,0.0,0.0,-1.969,-1.969,-1.969,-1.969,-1.969,-1.969,-1.969,-1.969,-1.969,-1.969,0.0,0.0,0.0,0.0,0.0,0.0,0.0,0.0,0.0,-2.0311,-2.0613,-2.0761,-2.0811,-2.0878,-2.0975,-2.1119,-2.134,-2.1183,-2.1023,0.0,0.0,0.0,0.0,0.0,0.0,0.0,0.0,0.0,0.0,0.0,0.0,0.0,0.0,0.0,0.0,0.0,0.0,0.0,-1.9445,-2.2409,-2.5865,-2.7776,-2.9181,-2.9912,-2.9083,-2.7045,-2.4864,-2.3202,-2.1046,-1.9221,-1.8644,-1.8632,-1.9025,-1.9936,-2.0049,-2.0639,-2.2592,-2.3013,-2.3688,-2.5374,-2.7917,-3.015,-3.1612,-3.4885,-3.7358,0.0,0.0,0.0,0.0,0.0,0.0,0.0,-3.6585,-3.6276,-3.6079,-3.6065,-3.5845,-3.5314,-3.5226,-3.53,-3.5534,-3.5659,-3.5744,-3.5833,-3.6313,0.0,0.0,0.0,0.0,0.0,-3.7418,-3.7857,-3.884,-3.8529,-3.8391,-3.8391,-3.8391,-3.8391,-3.8391,0.0,0.0,0.0,0.0,0.0,0.0,0.0,-1.969,-1.969,-1.969,-1.969,-1.969,-1.969,-1.969,-1.969,-1.969,-1.969,0.0,0.0,0.0,0.0,0.0,0.0,0.0,-2.0597,-2.063,-2.073,-2.099,-2.1103,-2.1166,-2.1119,-2.1182,-2.1293,-2.1419,-2.134,-2.1183,0.0,0.0,0.0,0.0,0.0,0.0,-1.8822,0.0,0.0,0.0,0.0,0.0,0.0,0.0,0.0,0.0,0.0,0.0,0.0,0.0,-1.9866,-2.1917,-2.439,-2.5879,-2.6568,-2.5936,-2.4545,-2.3076,-2.1791,-2.0245,-1.8941,-1.8602,-1.8517,-1.8756,-1.9543,-1.9754,-2.0358,-2.2044,-2.2564,-2.3322,-2.498,-2.7355,-2.9729,-3.1921,-3.4955,0.0,0.0,0.0,0.0,0.0,0.0,0.0,0.0,-3.6065,-3.5616,-3.5391,-3.5377,-3.5156,-3.4608,-3.4536,-3.4608,-3.4839,-3.4994,-3.5107,-3.5266,-3.5956,0.0,0.0,0.0,0.0,0.0,-3.776,-3.8149,-3.9023,-3.857,-3.8391,-3.8391,-3.8391,-3.8391,-3.8391,0.0,0.0,0.0,0.0,0.0,0.0,0.0,-1.969,-1.969,-1.969,-1.969,-1.969,-1.969,-1.969,-1.9726,-1.9711,0.0,0.0,0.0,0.0,0.0,0.0,0.0,0.0,-2.1277,-2.1309,-2.1309,-2.134,-2.1697,-2.173,-2.1421,-2.1593,-2.1655,-2.1655,-2.1404,-2.1294,0.0,0.0,0.0,0.0,0.0,0.0,0.0,0.0,0.0,0.0,0.0,0.0,0.0,0.0,0.0,0.0,0.0,0.0,0.0,0.0,0.0,0.0,0.0,-2.3196,-2.4376,-2.3864,-2.2788,-2.1622,-2.0512,-1.936,0.0,-1.8517,-1.8517,-1.8545,-1.863,-1.9613,-2.0274,-1.9838,-2.1299,-2.2901,-2.4258,-2.6582,-2.949,-3.3031,-3.4534,0.0,-3.524,0.0,0.0,0.0,0.0,0.0,0.0,0.0,-3.4829,-3.4181,-3.4197,-3.3902,-3.3326,-3.3326,-3.3326,-3.3326,-3.4115,-3.4469,-3.4555,-3.5921,0.0,0.0,0.0,0.0,0.0,-3.8257,-3.8269,-3.8391,-3.8391,-3.8391,-3.8391,-3.8391,-3.8391,-3.8391,0.0,0.0,0.0,0.0,0.0,0.0,0.0,0.0,0.0,0.0,-1.969,-1.969,-1.969,-1.969,-1.9782,0.0,0.0,0.0,0.0,0.0,0.0,0.0,0.0,0.0,-2.1277,-2.1309,-2.1433,-2.1678,-2.233,-2.258,-2.244,-2.244,-2.2376,-2.2264,-2.16,-2.1151,0.0,0.0,0.0,0.0,0.0,0.0,0.0,0.0,0.0,0.0,-1.8711,-1.8634,0.0,0.0,0.0,0.0,0.0,0.0,0.0,0.0,-1.8517,-1.8644,-1.922,0.0,-1.9993,-1.9852,-1.9599,-1.9304,0.0,-1.8728,-1.8517,-1.8517,-1.8517,-1.8812,-1.9782,-2.0203,-2.1117,-2.3322,-2.4432,-2.5626,-2.7355,-3.015,-3.2693,-3.4506,-3.5798,-3.6178,0.0,0.0,0.0,0.0,0.0,0.0,0.0,0.0,-3.4379,-3.4167,-3.3775,-3.3537,-3.3536,-3.3396,-3.3466,-3.3744,-3.3817,-3.4096,-3.4646,-3.4996,0.0,0.0,0.0,0.0,-3.7578,-3.7427,-3.778,-3.8391,-3.8391,-3.8391,-3.8391,-3.8391,-3.8391,-3.8391,0.0,0.0,0.0,0.0,0.0,0.0,0.0,0.0,0.0,0.0,0.0,-1.969,-1.969,-1.969,0.0,0.0,0.0,0.0,0.0,0.0,0.0,0.0,0.0,-2.1183,-2.1526,-2.1526,-2.1617,-2.1797,-2.2195,-2.2363,-2.2287,-2.2241,-2.2131,-2.1987,-2.1518,-2.1119,0.0,0.0,0.0,0.0,-2.0395,0.0,0.0,0.0,0.0,0.0,-1.9026,-1.8874,0.0,-1.8517,-1.8517,-1.8517,0.0,0.0,0.0,0.0,-1.8517,-1.8517,-1.8517,-1.8675,-1.8899,-1.8899,-1.8899,-1.8899,-1.8899,-1.8675,-1.8517,-1.8517,-1.8517,-1.8812,-1.9782,-2.0203,-2.1117,-2.3336,-2.446,-2.6006,-2.8731,-3.0797,-3.282,-3.4987,-3.5742,0.0,0.0,0.0,0.0,0.0,0.0,0.0,0.0,0.0,-3.3817,-3.3888,-3.3635,-3.3466,-3.3466,-3.3326,-3.3396,-3.3605,-3.3882,-3.4157,-3.4549,-3.5184,0.0,0.0,0.0,0.0,-3.738,-3.7626,-3.7767,-3.7938,-3.8278,-3.8391,-3.8391,-3.8391,-3.8391,-3.8391,0.0,0.0,0.0,0.0,0.0,0.0,0.0,0.0,0.0,0.0,0.0,0.0,0.0,0.0,0.0,0.0,0.0,0.0,0.0,0.0,0.0,0.0,-2.1371,-2.1575,-2.1963,-2.1847,-2.1847,-2.1963,-2.2079,-2.2049,-2.1889,-2.2044,-2.1918,-2.1549,-2.1389,-2.1151,0.0,0.0,-2.0942,0.0,-2.0679,0.0,0.0,0.0,0.0,0.0,0.0,0.0,0.0,-1.8542,-1.8517,-1.8517,-1.8517,0.0,0.0,0.0,0.0,0.0,-1.8517,-1.8997,-1.9488,-1.9305,-1.9319,-1.939,-1.939,-1.8913,-1.8574,-1.877,-1.8728,-1.8855,-1.9459,-2.0175,-2.1032,-2.2189,-2.3752,-2.6117,-2.9848,-3.0819,-3.2171,-3.4902,-3.5469,0.0,0.0,0.0,0.0,0.0,0.0,0.0,0.0,0.0,0.0,-3.3605,-3.3675,-3.3536,-3.3396,-3.3396,-3.3396,-3.3396,-3.4128,-3.4491,-3.4455,-3.5755,-3.6554,0.0,0.0,0.0,-3.73,-3.797,-3.7873,-3.7371,-3.8003,-3.8311,-3.8391,-3.8391,-3.8391,-3.8391,0.0,0.0,0.0,0.0,0.0,0.0,0.0,0.0,0.0,0.0,0.0,0.0,0.0,0.0,0.0,0.0,0.0,0.0,0.0,0.0,0.0,-2.1721,-2.1721,-2.2049,-2.2725,-2.2112,-2.2096,-2.2725,-2.3354,-2.3338,-2.2758,-2.3935,-2.3703,-2.2313,-2.1616,-2.1277,-2.1214,-2.1277,-2.1246,-2.1103,-2.0893,0.0,0.0,0.0,0.0,0.0,0.0,0.0,0.0,-1.8556,-1.8517,-1.8517,-1.8517,0.0,0.0,0.0,0.0,0.0,-1.8517,-1.936,-1.9993,-1.8925,-1.9011,-1.939,-1.939,-1.8913,-1.8826,-1.9894,-1.9683,-1.9473,-2.0175,-2.1189,-2.2189,-2.2983,-2.6026,-2.9525,0.0,0.0,-3.4441,-3.5334,0.0,0.0,0.0,0.0,0.0,0.0,0.0,0.0,0.0,0.0,0.0,-3.3827,-3.3827,-3.3827,-3.3827,-3.3827,-3.3827,-3.3827,-3.452,-3.4727,-3.4622,-3.5748,-3.6322,0.0,0.0,-3.7255,-3.6886,-3.7326,-3.742,-3.7323,-3.7436,-3.7857,-3.8391,-3.8391,-3.8391,-3.8391,0.0,0.0,0.0,0.0,0.0,0.0,0.0,0.0,0.0,0.0,0.0,0.0,0.0,0.0,0.0,0.0,0.0,0.0,0.0,0.0,-2.1797,-2.1797,-2.1797,-2.2145,-2.2874,-2.2559,-2.2758,-2.3487,-2.3835,-2.3802,-2.3439,-2.3588,-2.3047,-2.1906,-2.1486,-2.1309,-2.1309,-2.1309,-2.1309,-2.1294,0.0,0.0,0.0,0.0,0.0,0.0,0.0,0.0,0.0,0.0,-1.8595,-1.8595,-1.8517,0.0,0.0,0.0,0.0,0.0,-1.8517,-1.9178,-1.974,-1.9109,-1.9726,-2.0344,-2.0021,-1.974,-1.9599,-1.9824,-1.9922,-2.0035,-2.043,-2.1787,-2.366,-2.6076,-2.8268,-3.0463,-3.2791,-3.2968,-3.3254,0.0,0.0,0.0,0.0,0.0,0.0,0.0,0.0,0.0,0.0,0.0,0.0,0.0,-3.4005,-3.3916,-3.372,-3.3943,-3.4236,-3.4452,-3.5008,-3.5413,-3.5691,-3.6461,-3.6726,-3.6635,0.0,-3.663,-3.6013,-3.654,-3.6772,-3.6821,-3.7177,-3.776,-3.8391,-3.8391,-3.8391,-3.8391,0.0,0.0,0.0,0.0,0.0,0.0,0.0,0.0,0.0,0.0,0.0,0.0,0.0,0.0,0.0,0.0,0.0,0.0,0.0,-2.1797,-2.1797,-2.1797,-2.1797,-2.2228,-2.3139,-2.299,-2.3338,-2.4265,-2.4265,-2.4232,-2.4116,-2.29,-2.2084,-2.1661,-2.1405,-2.1309,-2.1309,-2.1309,-2.1309,-2.1309,0.0,0.0,0.0,0.0,0.0,0.0,0.0,0.0,0.0,0.0,0.0,0.0,0.0,0.0,0.0,-1.8517,-1.8517,-1.8517,-1.8517,-1.8927,-1.9362,-1.9207,-2.0147,-2.1105,-2.1032,-2.1032,-2.1018,-2.0962,-2.1229,-2.1431,-2.1009,-2.2303,-2.4661,-2.8383,-2.9832,-3.0936,-3.2291,-3.227,0.0,0.0,0.0,0.0,0.0,0.0,0.0,0.0,0.0,0.0,0.0,0.0,0.0,0.0,-3.3763,-3.3599,-3.3253,-3.3824,-3.4237,-3.4549,-3.5238,-3.5692,-3.6038,-3.6715,-3.6778,-3.635,-3.651,-3.5995,-3.5114,-3.5801,-3.6141,-3.6367,-3.6886,-3.7614,-3.8391,-3.8391,-3.8391,-3.8391,0.0,0.0,0.0,0.0,0.0,0.0,0.0,0.0,0.0,0.0,0.0,0.0,0.0,0.0,0.0,0.0,0.0,0.0,0.0,-2.1797,-2.1797,-2.1797,-2.1797,-2.246,-2.3884,-2.3238,-2.3603,-2.5027,-2.5027,-2.501,-2.4857,-2.2748,-2.1997,-2.2394,-2.1679,-2.1371,-2.1309,-2.1309,-2.1309,-2.1309,-2.1309,0.0,0.0,0.0,0.0,0.0,0.0,0.0,0.0,0.0,0.0,0.0,0.0,0.0,-1.8517,-1.8517,-1.8517,-1.8517,-1.8517,-1.8927,-1.9263,-1.8675,-1.9529,-2.0892,-2.2521,-2.2901,-2.3393,-2.5078,-2.5113,-2.4325,-2.2597,-2.2946,-2.454,-2.774,-2.9949,-3.1853,-3.3657,0.0,0.0,0.0,0.0,0.0,0.0,0.0,0.0,0.0,0.0,0.0,0.0,0.0,0.0,0.0,0.0,-3.2564,-3.2585,-3.3158,-3.3468,-3.3513,-3.4756,-3.5014,-3.44,-3.5427,-3.5527,-3.4888,-3.5598,-3.5454,-3.475,-3.513,-3.5671,-3.6303,-3.6367,-3.7209,-3.8391,-3.8391,-3.8391,-3.8391,0.0,0.0,0.0,0.0,0.0,0.0,0.0,0.0,0.0,0.0,0.0,0.0,0.0,0.0,0.0,0.0,0.0,0.0,0.0,-2.1797,-2.1797,-2.1797,-2.1797,-2.2278,-2.3288,-2.3487,-2.4083,-2.511,-2.4646,-2.415,-2.3654,-2.2733,-2.2194,-2.1903,-2.1533,-2.1309,-2.1309,-2.1309,-2.1309,-2.1309,-2.1309,-2.1309,0.0,0.0,0.0,0.0,0.0,0.0,0.0,0.0,-1.9064,-1.8879,-1.875,-1.8673,-1.8595,-1.8517,-1.8517,-1.8517,-1.8517,-1.8927,-1.9348,-1.9109,-1.9754,-2.0779,-2.2198,-2.3421,-2.425,-2.4165,-2.5364,-2.6119,-2.5191,-2.5595,-2.6765,-2.8756,-3.0751,-3.2254,0.0,0.0,0.0,0.0,0.0,0.0,0.0,0.0,0.0,0.0,0.0,0.0,0.0,0.0,0.0,0.0,0.0,-3.1903,-3.1903,-3.2871,-3.3133,-3.281,-3.4513,-3.5371,-3.5546,-3.5943,-3.5723,-3.5029,-3.5303,-3.5013,-3.4352,-3.4455,-3.4943,-3.5687,-3.6594,-3.7533,-3.8391,-3.8391,-3.8391,-3.8391,0.0,0.0,0.0,0.0,0.0,0.0,0.0,0.0,0.0,0.0,0.0,0.0,0.0,0.0,0.0,0.0,0.0,0.0,-2.1797,-2.1797,-2.1797,-2.1797,-2.1797,-2.2145,-2.2874,-2.3388,-2.4017,-2.4762,-2.4017,-2.3388,-2.2859,-2.2551,-2.2241,-2.1869,-2.1547,-2.147,-2.1633,-2.1406,-2.1309,-2.1309,-2.1309,-2.1309,0.0,0.0,0.0,0.0,0.0,0.0,0.0,0.0,-1.9457,-1.9116,-1.9003,-1.8865,-1.8673,-1.8595,-1.8556,-1.8556,-1.8556,-1.8891,-1.9216,-1.9216,-1.9851,-2.0938,-2.255,-2.4182,-2.5367,-2.5269,-2.5785,-2.6383,-2.6621,-2.6688,-2.7248,0.0,-3.0814,0.0,0.0,0.0,0.0,0.0,0.0,0.0,0.0,0.0,0.0,0.0,0.0,0.0,0.0,0.0,0.0,0.0,0.0,-3.0626,-3.0626,-3.182,-3.2323,-3.2129,-3.3826,-3.4956,-3.5623,-3.5623,-3.5331,-3.4845,-3.4845,-3.4554,-3.4101,-3.4101,-3.4522,-3.5299,-3.6529,-3.7436,-3.8051,-3.8051,-3.8197,-3.8391,0.0,0.0,0.0,0.0,0.0,0.0,0.0,0.0,0.0,0.0,0.0,0.0,0.0,0.0,0.0,0.0,0.0,0.0,-2.1797,-2.1797,-2.1797,-2.1797,-2.1797,-2.2129,-2.2857,-2.2891,-2.3238,-2.3984,-2.3238,-2.2859,-2.2765,-2.2115,-2.2057,-2.2459,-2.1869,-2.1888,-2.2329,-2.1616,-2.1309,-2.1309,-2.1309,-2.1309,-2.1309,0.0,0.0,0.0,0.0,0.0,0.0,0.0,-1.9894,-1.953,-1.9479,-1.9139,-1.8711,-1.8711,-1.8711,-1.8711,-1.8711,-1.8736,-1.8798,-1.8798,-1.9769,-2.1383,-2.3912,-2.5365,-2.6847,-2.9298,-2.6958,-2.497,-2.6509,-2.5698,-2.5402,-2.7378,-2.9856,0.0,0.0,0.0,0.0,0.0,0.0,0.0,0.0,0.0,0.0,0.0,0.0,0.0,0.0,0.0,0.0,0.0,0.0,0.0,-2.8681,-2.987,-3.0779,-3.1404,-3.2588,-3.3527,-3.4101,-3.4101,-3.4101,-3.4101,-3.4101,-3.4101,-3.4101,-3.4101,-3.4522,-3.525,-3.5995,-3.6707,-3.7323,-3.7307,-3.7776,-3.8391,0.0,0.0,0.0,0.0,0.0,0.0,0.0,0.0,0.0,0.0,0.0,0.0,0.0,0.0,0.0,0.0,0.0,0.0,-2.1797,-2.1797,-2.1797,-2.1797,-2.1797,-2.1897,-2.2112,-2.2129,-2.2477,-2.3222,-2.2477,-2.2129,-2.2098,-2.2382,-2.2287,-2.1962,-2.2147,-2.2068,-2.1822,-2.1437,-2.134,-2.1371,-2.1309,-2.1309,-2.1309,0.0,0.0,0.0,0.0,0.0,0.0,0.0,0.0,0.0,-1.9588,-1.9384,-1.9199,-1.8874,-1.876,-1.876,-1.876,-1.9112,-1.9555,-2.0012,-2.1084,-2.2715,-2.5263,-2.5346,-2.5688,-2.8297,-2.692,-2.5833,-2.7795,-2.781,-2.7723,-2.8303,0.0,0.0,0.0,0.0,0.0,0.0,0.0,0.0,0.0,0.0,0.0,0.0,0.0,0.0,0.0,0.0,0.0,0.0,0.0,0.0,-2.8681,-2.951,-3.0193,-3.0779,-3.1961,-3.308,-3.4101,-3.4101,-3.4101,-3.4101,-3.4101,-3.4101,-3.4101,-3.4101,-3.4522,-3.5202,-3.5428,-3.6254,-3.7258,-3.6788,-3.7371,-3.8327,0.0,0.0,0.0,0.0,0.0,0.0,0.0,0.0,0.0,0.0,-2.1198,-2.1261,0.0,0.0,0.0,0.0,0.0,0.0,0.0,-2.1797,-2.1797,-2.1797,-2.1797,-2.1797,-2.1797,-2.1797,-2.2013,-2.246,-2.2013,-2.1797,-2.1797,-2.2214,-2.2302,-2.2139,-2.2177,-2.213,-2.1982,-2.1533,-2.1355,-2.1386,-2.134,-2.1309,-2.1309,0.0,0.0,0.0,0.0,0.0,0.0,0.0,0.0,0.0,-2.012,-1.9767,-1.9442,-1.9161,-1.8974,-1.8889,-1.8889,-1.9147,-1.9688,-2.0579,-2.1585,-2.2853,-2.4589,-2.5716,-2.6791,-2.8237,-2.7021,-2.6249,-2.7998,-2.7882,0.0,0.0,0.0,0.0,0.0,0.0,0.0,0.0,0.0,0.0,0.0,0.0,0.0,0.0,0.0,0.0,0.0,0.0,0.0,0.0,0.0,0.0,-2.7926,-2.8542,-2.9163,-2.9738,-3.0969,-3.1997,-3.2962,-3.3742,-3.4101,-3.4101,-3.4101,-3.4101,-3.4101,-3.4101,-3.436,-3.4748,-3.4748,-3.5461,-3.6416,-3.6011,-3.6594,-3.7501,0.0,0.0,0.0,0.0,0.0,0.0,0.0,0.0,0.0,0.0,-2.1797,-2.1797,0.0,0.0,0.0,0.0,0.0,0.0,0.0,-2.1797,-2.1797,-2.1797,-2.1797,-2.1797,-2.1797,-2.1797,-2.1797,-2.1797,-2.1797,-2.1797,-2.1797,-2.193,-2.2297,-2.2797,-2.2155,-2.2174,-2.2556,-2.1758,-2.1417,-2.1417,-2.134,-2.1325,-2.1309,-2.1309,0.0,0.0,0.0,0.0,0.0,0.0,0.0,0.0,-2.0794,-2.0224,-1.9566,-1.953,-1.9288,-1.9069,-1.9031,-1.9121,-1.9546,-2.0843,-2.1801,-2.257,-2.3033,-2.624,-2.8915,-2.8463,-2.707,-2.6329,-2.752,-2.6808,-2.6416,0.0,0.0,0.0,0.0,0.0,0.0,0.0,0.0,0.0,0.0,0.0,0.0,0.0,0.0,0.0,0.0,0.0,0.0,0.0,0.0,0.0,-2.6779,-2.7345,-2.792,0.0,-2.9611,-3.0463,-3.1207,-3.306,-3.3955,-3.4003,-3.4068,-3.4101,-3.4101,-3.4101,-3.4101,-3.4101,-3.4101,-3.4538,-3.5169,-3.5104,-3.5606,-3.6303,0.0,0.0,0.0,0.0,0.0,0.0,0.0,0.0,0.0,0.0,0.0,0.0,0.0,0.0,0.0,0.0,0.0,0.0,0.0,-2.1797,-2.1797,-2.1797,-2.1797,-2.1797,-2.1797,-2.1797,-2.1797,-2.1797,-2.1797,-2.1797,-2.1814,-2.2973,-2.3305,-2.2892,-2.3258,-2.3209,-2.2778,-2.1915,-2.1542,-2.1542,-2.1433,-2.134,-2.1309,-2.1309,-2.1309,0.0,0.0,0.0,0.0,0.0,0.0,0.0,-2.0893,-2.0462,-2.0015,-1.9747,-1.9617,-1.9472,-1.9139,-1.9654,-2.0617,-2.212,-2.4152,-2.5647,-2.527,-2.5908,-2.6379,-2.5792,-2.6547,-2.7403,-2.7679,-2.7911,0.0,0.0,0.0,0.0,0.0,0.0,0.0,0.0,0.0,0.0,0.0,0.0,0.0,0.0,0.0,0.0,0.0,0.0,0.0,0.0,0.0,-2.6257,-2.6779,-2.6924,-2.7283,0.0,-2.8599,-2.9489,-3.0541,-3.1837,-3.2773,-3.334,-3.3874,-3.4101,-3.4101,-3.4101,-3.4101,-3.4101,-3.4101,-3.4538,-3.5121,-3.4538,-3.5169,-3.6222,0.0,0.0,0.0,0.0,0.0,0.0,0.0,0.0,0.0,0.0,0.0,0.0,0.0,0.0,0.0,0.0,0.0,0.0,0.0,0.0,-2.1797,-2.1797,-2.1797,-2.1797,-2.1797,-2.1797,-2.1797,-2.1797,-2.1797,-2.1797,-2.1814,-2.294,-2.3272,-2.2907,-2.3273,-2.324,-2.2857,-2.2007,-2.1634,-2.1634,-2.1464,-2.1386,-2.134,-2.1309,-2.1309,-2.1309,-2.1309,0.0,0.0,0.0,0.0,0.0,0.0,0.0,-2.0462,-2.0273,-2.01,-1.9839,-1.9493,-1.9782,-2.0563,-2.209,-2.4075,-2.5443,-2.4607,-2.466,-2.4689,-2.4018,-2.5162,-2.6292,-2.6292,-2.662,0.0,0.0,0.0,0.0,0.0,0.0,0.0,0.0,0.0,0.0,0.0,0.0,0.0,0.0,0.0,0.0,0.0,-2.4225,0.0,0.0,-2.5168,-2.5502,-2.585,-2.6155,-2.6474,-2.6794,-2.794,-2.9061,-3.0132,-3.1437,-3.24,-3.3113,-3.3469,-3.3793,-3.4101,-3.4101,-3.4101,-3.4101,-3.4101,-3.4327,-3.4619,-3.423,-3.4586,-3.5185,0.0,0.0,0.0,0.0,0.0,0.0,0.0,0.0,0.0,0.0,0.0,0.0,0.0,0.0,0.0,0.0,0.0,0.0,0.0,0.0,0.0,-2.1797,-2.1797,-2.1811,-2.1869,-2.1811,-2.1811,-2.1869,-2.1811,-2.1864,-2.1996,-2.2742,-2.3156,-2.3272,-2.3272,-2.3205,-2.304,-2.225,-2.181,-2.1664,-2.1495,-2.1417,-2.1402,-2.1309,-2.1309,-2.1309,-2.1309,-2.1309,-2.1309,-2.1309,0.0,0.0,0.0,0.0,-2.0794,-2.0794,-2.0512,-2.0139,-1.9839,-1.9948,-2.037,-2.1549,-2.2981,-2.3792,-2.2789,-2.3006,-2.3238,-2.2671,-2.3656,-2.4597,-2.4481,0.0,0.0,0.0,0.0,0.0,0.0,0.0,0.0,0.0,0.0,0.0,0.0,0.0,0.0,0.0,0.0,0.0,-2.2888,0.0,-2.3775,-2.3891,-2.4399,-2.467,-2.48,-2.5357,-2.5618,-2.5633,-2.7331,-2.8623,-2.9536,-3.0978,-3.2028,-3.2724,-3.2983,-3.3404,-3.3939,-3.4052,-3.4101,-3.4101,-3.4101,-3.4101,-3.4101,-3.4101,-3.4101,-3.4117,0.0,0.0,0.0,0.0,0.0,0.0,0.0,0.0,0.0,0.0,-2.1797,-2.1797,0.0,0.0,0.0,0.0,0.0,0.0,-2.1797,0.0,0.0,-2.1797,-2.1797,-2.1911,-2.2136,-2.1911,-2.1911,-2.2153,-2.1911,-2.2129,-2.2758,-2.3503,-2.4199,-2.4812,-2.4812,-2.4448,-2.3802,-2.3073,-2.2302,-2.162,-2.1573,-2.1481,-2.1309,-2.1309,-2.1309,-2.1309,-2.1309,-2.1309,-2.1309,-2.1309,-2.1309,0.0,0.0,0.0,-2.0794,-2.0794,-2.0512,-2.0174,-2.0154,-2.0946,-2.1682,-2.1252,-2.1951,-2.2488,-2.1478,-2.1322,-2.1365,-2.1278,-2.273,-2.3847,0.0,0.0,0.0,0.0,0.0,0.0,0.0,0.0,0.0,0.0,0.0,0.0,0.0,0.0,0.0,0.0,0.0,0.0,-2.2888,-2.2975,-2.3325,-2.3876,-2.3978,-2.4297,-2.4878,-2.4936,-2.4916,-2.4965,-2.6665,-2.7612,-2.7782,-2.9406,-3.0538,-3.1283,-3.2546,-3.3145,-3.3275,-3.3858,-3.4101,-3.4101,-3.4101,-3.4101,-3.4101,-3.4101,-3.4101,-3.4182,0.0,0.0,0.0,0.0,0.0,0.0,0.0,0.0,0.0,0.0,0.0,-2.1797,0.0,0.0,0.0,-2.1797,-2.1797,-2.1797,-2.1797,-2.1797,-2.1797,-2.1797,-2.194,-2.2068,-2.2192,-2.2281,-2.2281,-2.2192,-2.2281,-2.2719,-2.352,-2.3979,-2.4546,-2.511,-2.511,-2.4696,-2.3951,-2.3205,-2.2446,-2.1724,-2.1664,-2.1603,-2.1495,-2.1402,-2.1371,-2.134,-2.1309,-2.1309,-2.1309,-2.1309,-2.1309,-2.1309,-2.1309,0.0,0.0,0.0,-2.0811,-2.0512,-2.0243,-2.0779,-2.1352,-2.1144,-2.1461,-2.1596,-2.0922,-2.0903,-2.0901,-2.0567,-2.1438,0.0,0.0,0.0,0.0,0.0,0.0,0.0,0.0,0.0,0.0,0.0,0.0,0.0,0.0,0.0,0.0,0.0,0.0,-2.2888,-2.2888,-2.2888,-2.3033,-2.3354,-2.3354,-2.3499,-2.3789,-2.4138,-2.4758,-2.5648,-2.6826,-2.7673,-2.8227,-2.9403,-3.0263,-3.0914,-3.1607,-3.2109,-3.253,-3.3242,-3.3534,-3.3566,-3.3955,-3.4101,-3.4101,-3.4101,-3.4101,-3.4149,0.0,0.0,0.0,0.0,0.0,0.0,0.0,0.0,0.0,0.0,0.0,0.0,0.0,0.0,0.0,0.0,-2.1797,-2.184,-2.1899,-2.1986,-2.1969,-2.1928,-2.2181,-2.2347,-2.2347,-2.2581,-2.2607,-2.2429,-2.2607,-2.3232,-2.4225,-2.4334,-2.4807,-2.5496,-2.541,-2.4978,-2.4232,-2.3487,-2.2742,-2.2032,-2.179,-2.1694,-2.1664,-2.1495,-2.1464,-2.1433,-2.1371,-2.134,-2.134,-2.134,-2.1309,-2.1309,-2.1309,-2.1309,0.0,0.0,0.0,-2.0811,-2.0311,-2.0496,-2.0805,-2.0905,-2.0957,-2.0849,-2.0445,-2.0528,-2.0498,0.0,-2.0204,0.0,0.0,0.0,0.0,0.0,0.0,0.0,0.0,0.0,0.0,0.0,0.0,0.0,0.0,0.0,0.0,0.0,0.0,-2.2656,-2.2656,-2.2815,-2.2888,-2.2888,-2.2888,-2.2888,-2.2888,-2.3412,-2.4233,-2.5469,-2.6397,-2.7217,-2.7961,-2.9092,-2.9874,-3.0409,-3.072,-3.1348,-3.206,-3.2789,-3.3194,-3.3388,-3.389,-3.4101,-3.4101,-3.4101,-3.4101,-3.4133,0.0,0.0,0.0,0.0,0.0,0.0,0.0,0.0,0.0,0.0,0.0,0.0,-2.1797,-2.1797,-2.1797,-2.1797,-2.1797,-2.1911,-2.2164,-2.2473,-2.2527,-2.2192,-2.25,0.0,-2.266,-2.2686,-2.2807,-2.3052,-2.2807,-2.3453,-2.4849,-2.4533,-2.5188,-2.6607,-2.6262,-2.574,-2.4994,-2.4265,-2.3488,-2.2698,-2.1974,-2.1664,-2.162,-2.1589,-2.1589,-2.1589,-2.1589,-2.1495,-2.1386,-2.1386,-2.1355,-2.1309,-2.1309,-2.1309,-2.1309,0.0,0.0,0.0,-2.0379,-2.0496,-2.0695,-2.0323,-2.027,-2.0166,-1.9827,-1.9765,-1.967,-1.9234,0.0,0.0,0.0,0.0,0.0,0.0,0.0,0.0,0.0,0.0,0.0,0.0,0.0,0.0,0.0,0.0,0.0,0.0,0.0,-2.2048,-2.2048,-2.2569,-2.2888,-2.2888,-2.2888,-2.2888,-2.2888,-2.2931,-2.3006,-2.308,-2.4667,-2.5423,-2.5555,-2.7838,-2.8871,-2.8968,-3.0344,-3.1348,-3.206,-3.2789,-3.3469,-3.4052,-3.4084,-3.4101,-3.4101,-3.4101,-3.4101,-3.4198,0.0,0.0,0.0,0.0,0.0,0.0,0.0,0.0,0.0,0.0,0.0,0.0,0.0,-2.194,-2.2068,-2.2068,-2.2068,-2.2181,-2.2483,-2.2429,-2.2429,-2.2527,-2.2807,-2.2952,-2.2952,-2.3126,-2.3175,-2.3095,-2.3175,-2.3535,-2.4132,-2.399,-2.4407,-2.5255,-2.5912,-2.5541,-2.4381,-2.4116,-2.3305,-2.2148,-2.1867,-2.1738,-2.1708,-2.1694,-2.1664,-2.1664,-2.162,-2.1511,-2.1386,-2.1386,-2.1371,-2.1309,-2.1309,-2.1309,-2.1246,-2.1055,-2.1119,-2.1183,-2.0712,-2.0679,-2.0761,-2.0613,-2.0395,-2.0104,-1.9782,-2.0004,-2.0035,-1.9249,0.0,0.0,0.0,0.0,0.0,0.0,0.0,0.0,0.0,0.0,0.0,0.0,0.0,0.0,0.0,0.0,0.0,0.0,0.0,0.0,-2.1989,-2.2643,-2.3037,-2.3037,-2.3037,-2.2992,-2.2888,-2.2888,-2.3068,-2.3363,-2.4401,-2.5185,-2.577,-2.7127,-2.8126,-2.8822,-2.9324,-2.9955,-3.07,-3.1413,-3.185,-3.2158,-3.3097,-3.3453,-3.3501,-3.3939,-3.4101,-3.4133,0.0,0.0,0.0,0.0,0.0,0.0,0.0,0.0,0.0,-2.1811,0.0,0.0,0.0,0.0,-2.2375,-2.2375,-2.2456,-2.2607,-2.2807,-2.2695,-2.2695,-2.2833,-2.3102,-2.3193,-2.3095,-2.336,-2.3407,-2.3241,-2.3407,-2.3684,-2.4034,-2.3801,-2.4019,-2.4584,-2.5213,-2.4928,-2.4,-2.4,-2.3288,-2.2162,-2.2162,-2.2013,-2.1814,-2.2019,-2.1953,-2.1741,-2.1974,-2.18,-2.1591,-2.2082,-2.1872,-2.142,-2.1632,-2.1503,-2.1246,-2.1023,-2.1119,-2.1246,-2.1023,-2.0794,-2.0646,-2.0761,-2.0395,-2.0015,-1.9874,-2.0186,-2.022,-1.9472,0.0,0.0,0.0,0.0,0.0,0.0,0.0,0.0,0.0,0.0,0.0,0.0,0.0,0.0,0.0,0.0,0.0,0.0,0.0,0.0,-2.2104,-2.2761,-2.3171,-2.3171,-2.3127,-2.3037,-2.2992,-2.2947,-2.3068,-2.3348,-2.3999,-2.4734,-2.5482,-2.634,-2.7221,-2.8109,-2.8579,-2.934,-3.0263,-3.0733,-3.1073,-3.1413,-3.2611,-3.308,-3.3178,-3.3841,-3.4101,-3.4101,0.0,0.0,0.0,0.0,0.0,0.0,0.0,0.0,-2.2124,-2.1869,0.0,0.0,0.0,0.0,0.0,-2.273,-2.2935,-2.3102,-2.3119,-2.3336,-2.3378,-2.3102,-2.336,-2.3383,-2.3119,-2.336,-2.3494,-2.3494,-2.3494,-2.3909,-2.4635,-2.399,-2.4098,-2.4809,-2.4223,-2.3967,-2.3934,-2.3967,-2.3537,-2.2857,-2.2857,-2.2443,-2.1897,-2.2592,-2.2427,-2.1913,-2.2609,-2.2396,-2.1941,-2.3374,-2.2881,-2.1737,-2.2296,-2.194,-2.1309,-2.1309,-2.1309,-2.1309,0.0,0.0,0.0,-2.0679,-2.0239,-1.9782,-2.0104,0.0,-2.007,0.0,0.0,0.0,0.0,0.0,0.0,0.0,0.0,0.0,0.0,0.0,0.0,0.0,0.0,0.0,0.0,0.0,0.0,0.0,0.0,-2.1527,-2.2243,-2.2907,-2.3319,-2.3319,-2.3171,-2.3082,-2.3082,-2.2992,-2.2888,-2.2902,-2.3348,-2.3824,-2.4333,-2.5425,-2.6222,-2.6766,-2.8142,-2.9534,-3.0817,-3.0833,-3.1299,-3.2012,-3.2757,-3.3064,-3.3145,-3.3841,-3.4101,-3.4101,0.0,0.0,0.0,0.0,0.0,-2.2113,-2.2215,-2.2298,-2.2381,0.0,0.0,0.0,-2.2554,-2.2807,-2.3077,-2.3247,-2.3168,-2.3193,-2.3378,-2.3265,-2.3265,-2.3383,-2.3471,-2.3471,-2.3383,-2.3471,-2.3494,-2.3494,-2.3494,-2.3508,-2.3534,-2.3154,-2.2966,-2.2949,-2.3126,-2.2907,-2.2427,-2.2973,-2.2775,-2.2096,-2.2096,-2.2294,-2.2559,-2.2228,-2.2294,-2.2543,-2.2212,-2.228,-2.2551,-2.2963,-2.2799,-2.231,-2.1856,-2.1534,-2.1309,-2.1309,-2.1309,-2.1309,-2.1309,0.0,0.0,0.0,0.0,0.0,0.0,0.0,0.0,0.0,0.0,0.0,0.0,0.0,0.0,0.0,0.0,0.0,0.0,0.0,0.0,0.0,0.0,0.0,0.0,0.0,0.0,0.0,-2.07,-2.1421,-2.1639,-2.2771,-2.3466,-2.3466,-2.3319,-2.3201,-2.3082,-2.2992,-2.2888,-2.2888,-2.3023,-2.3348,-2.3824,-2.4487,-2.5299,-2.6238,-2.6953,-2.8077,-2.9421,-2.9939,-3.0279,-3.0587,-3.1817,-3.2303,-3.2449,-3.3663,-3.4101,-3.4101,0.0,0.0,0.0,0.0,0.0,-2.2973,-2.3035,-2.3133,-2.3066,0.0,0.0,0.0,-2.301,-2.3175,-2.3336,-2.3494,-2.336,-2.3336,-2.3494,-2.336,-2.3336,-2.3494,-2.3494,-2.3494,-2.3494,-2.3494,-2.3494,-2.3494,-2.3494,-2.336,-2.3077,-2.2833,-2.2527,-2.2226,-2.2378,-2.2195,-2.1814,-2.2245,-2.2178,-2.1814,-2.2129,-2.2327,-2.246,-2.2642,-2.2592,-2.246,-2.2642,-2.276,-2.2944,-2.3555,-2.3704,-2.3523,-2.2622,-2.2117,-2.1874,-2.1762,-2.1552,-2.134,-2.1309,-2.1055,-2.0712,-2.0311,0.0,0.0,-1.9645,-1.9788,0.0,0.0,0.0,0.0,0.0,0.0,0.0,0.0,0.0,0.0,0.0,0.0,0.0,0.0,0.0,0.0,0.0,0.0,0.0,0.0,-2.0986,-2.1691,-2.2266,-2.3093,-2.3538,-2.3538,-2.3451,-2.3334,-2.326,-2.3082,-2.2992,-2.2992,-2.2947,-2.3142,-2.3595,-2.3867,-2.457,-2.5575,-2.615,-2.7122,-2.8385,-2.9113,-2.9643,-3.0032,-3.1105,-3.1558,-3.1737,-3.3145,-3.368,-3.3712,0.0,0.0,-2.3508,-2.4095,-2.4169,-2.4067,-2.3876,-2.4042,-2.3849,0.0,-2.2993,-2.3241,-2.3453,-2.3494,-2.3494,-2.3494,-2.3494,-2.3494,-2.3494,-2.3494,-2.3494,-2.3494,-2.3494,-2.3494,-2.3494,-2.3494,-2.3494,-2.3494,-2.3471,-2.3336,-2.3077,-2.2782,-2.2483,-2.2192,-2.1911,-2.1797,-2.1797,-2.1797,-2.1797,-2.1847,-2.251,-2.2477,-2.2162,-2.3321,-2.304,-2.2178,-2.3338,-2.3388,-2.3106,-2.4514,-2.4975,-2.4857,-2.3982,-2.3244,-2.2687,-2.259,-2.2005,-2.1402,-2.1437,-2.1151,-2.0745,-2.0361,-2.0015,0.0,-2.0193,-2.0212,-2.0314,0.0,0.0,0.0,0.0,0.0,0.0,0.0,0.0,0.0,0.0,0.0,0.0,0.0,0.0,0.0,0.0,-1.9413,-1.999,-2.1327,-2.155,-2.22,-2.3535,-2.3595,-2.3595,-2.3595,-2.3538,-2.3509,-2.3509,-2.3216,-2.3082,-2.3082,-2.2947,-2.3098,-2.3508,-2.3551,-2.4006,-2.4815,-2.5566,-2.6493,-2.7558,-2.8369,-2.9146,-2.9983,-3.0652,-3.0881,-3.1043,-3.2465,-3.3016,-3.3178,0.0,-2.3084,-2.3353,-2.3525,-2.3358,-2.3242,-2.3466,-2.3501,-2.349,-2.3448,-2.343,-2.3448,-2.3494,-2.3494,-2.3494,-2.3494,-2.3494,-2.3494,-2.3494,-2.3494,-2.3494,-2.3494,-2.3494,-2.3494,-2.3494,-2.3494,-2.3494,-2.3494,-2.3289,-2.3144,-2.3095,-2.2537,-2.2248,-2.2192,-2.1911,-2.1797,-2.1797,-2.1797,-2.1797,-2.1797,-2.1947,-2.2626,-2.347,-2.2559,-2.2791,-2.3454,-2.2543,-2.251,-2.3023,-2.3918,-2.4546,-2.4857,-2.4116,-2.3326,-2.2801,-2.3341,-2.2508,-2.1516,-2.2102,-2.1746,-2.1119,-2.0778,-2.0478,0.0,-1.9965,-1.9732,-1.9711,0.0,0.0,0.0,0.0,0.0,0.0,0.0,0.0,0.0,0.0,0.0,0.0,0.0,0.0,0.0,0.0,-1.9596,-1.9997,-2.0804,-2.1849,-2.2802,-2.3565,-2.3595,-2.3595,-2.3595,-2.3538,-2.3509,-2.3509,-2.3216,-2.3082,-2.3082,-2.2947,-2.2933,-2.3068,-2.3436,-2.3681,-2.3894,-2.4764,-2.5599,-2.642,-2.7485,-2.8692,-2.9983,-3.0652,-3.0881,-3.0995,-3.1898,-3.2595,-3.3113,-2.3211,-2.3397,-2.3688,-2.4073,-2.4016,-2.3928,-2.4075,-2.4052,-2.395,-2.3688,-2.3611,-2.3589,-2.3589,-2.3585,-2.3539,-2.3539,-2.3539,-2.3539,-2.3539,-2.3539,-2.3539,-2.3539,-2.3517,-2.3494,-2.3494,-2.3494,-2.3494,-2.3494,-2.336,-2.3151,-2.2884,-2.2581,-2.2292,-2.1982,-2.1869,-2.1797,-2.1797,-2.1797,-2.1996,-2.2311,-2.1947,-2.246,-2.3404,-2.304,-2.3123,-2.3404,-2.3023,-2.3123,-2.3619,-2.4729,-2.5324,-2.552,-2.5071,-2.4462,-2.3951,-2.4211,-2.3506,-2.2638,-2.2622,-2.2557,-2.2281,-2.1182,-2.1098,0.0,0.0,-2.0208,-2.012,-2.0613,0.0,0.0,0.0,0.0,0.0,0.0,0.0,0.0,0.0,0.0,0.0,0.0,0.0,0.0,0.0,-1.969,-2.0109,-2.1126,-2.2113,-2.2936,-2.3565,-2.3595,-2.3595,-2.3595,-2.3566,-2.3538,-2.3509,-2.329,-2.3171,-2.3082,-2.2947,-2.2888,-2.2902,-2.3142,-2.3392,-2.3638,-2.4048,-2.4932,-2.605,-2.7013,-2.8168,-2.9405,-3.0117,-3.0393,-3.0522,-3.1607,-3.2238,-3.2643,-2.3668,-2.3795,-2.3991,-2.4577,-2.4703,-2.4662,-2.4617,-2.4613,-2.4379,-2.379,-2.3826,-2.3934,-2.3934,-2.3867,-2.3916,-2.4078,-2.3786,-2.3679,-2.3845,-2.3697,-2.3585,-2.3585,-2.3539,-2.3517,-2.3517,-2.3471,-2.3453,-2.3517,-2.3342,-2.3084,-2.2782,-2.2624,-2.2281,-2.1869,-2.1811,-2.1797,-2.1797,-2.1797,-2.2228,-2.2841,-2.2096,-2.2327,-2.3156,-2.3454,-2.3288,-2.2973,-2.357,-2.3967,-2.4398,-2.5607,-2.6087,-2.6168,-2.6063,-2.562,-2.5092,-2.5086,-2.4411,-2.3621,-2.3244,-2.326,-2.3063,-2.1682,0.0,-2.1777,0.0,0.0,0.0,0.0,0.0,0.0,-2.0561,0.0,0.0,0.0,0.0,0.0,0.0,0.0,0.0,0.0,0.0,0.0,0.0,-1.9809,-2.0333,-2.1425,-2.2233,-2.2892,-2.3385,-2.3535,-2.3595,-2.3595,-2.3595,-2.3566,-2.3509,-2.3363,-2.3246,-2.3082,-2.2947,-2.2888,-2.2888,-2.2888,-2.3098,-2.348,-2.3551,-2.4368,-2.5597,-2.6514,-2.7524,-2.8575,-2.9534,-2.9814,-2.9915,-3.1124,-3.1625,-3.1789,-2.3777,-2.3795,-2.3831,-2.3922,-2.3922,-2.3901,-2.3901,-2.3894,-2.3851,-2.3718,-2.4311,-2.4761,-2.4761,-2.4761,-2.5026,-2.5751,-2.4505,-2.3983,-2.4703,-2.4024,-2.3585,-2.3585,-2.3539,-2.3539,-2.3603,-2.3289,-2.3289,-2.3585,-2.2773,-2.259,-2.3028,-2.2254,-2.1998,-2.2136,-2.1928,-2.1797,-2.1797,-2.1797,-2.2228,-2.2841,-2.2096,-2.2626,0.0,-2.251,-2.2394,-2.2907,-2.299,-2.3868,-2.5011,0.0,-2.5673,-2.622,0.0,-2.5671,-2.5226,-2.5853,-2.4579,-2.3177,-2.4412,-2.3309,0.0,0.0,-2.1907,0.0,0.0,0.0,-2.0277,-2.0311,0.0,-1.9797,-1.9756,0.0,0.0,0.0,0.0,0.0,0.0,0.0,0.0,0.0,0.0,0.0,0.0,0.0,-2.0662,-2.0812,-2.1979,-2.2753,-2.2787,-2.3295,-2.3595,-2.3595,-2.3595,-2.3566,-2.3509,-2.3363,-2.3246,-2.3082,-2.2947,-2.2888,-2.2888,-2.2888,-2.2933,-2.3023,-2.3436,-2.3683,-2.4003,-2.5483,-2.6582,-2.7487,-2.9237,-2.9621,-2.9243,-2.9903,-3.0186,-3.0418,-2.3795,-2.3795,-2.3795,-2.3795,-2.3795,-2.3795,-2.381,-2.4205,-2.4328,-2.3822,-2.4454,-2.496,-2.496,-2.4956,-2.5257,-2.6033,-2.5095,-2.459,-2.4933,-2.419,-2.3718,-2.3718,-2.3634,-2.3634,-2.3674,-2.3522,-2.3453,-2.3424,-2.3035,-2.2807,-2.2738,-2.2371,-2.2158,-2.2068,-2.1969,-2.1882,-2.1869,-2.1869,-2.2272,-2.2841,0.0,-2.2427,0.0,-2.2675,-2.2891,-2.3537,-2.3537,-2.3934,-2.4597,0.0,-2.5673,0.0,0.0,0.0,0.0,-2.4961,-2.4249,-2.3522,0.0,0.0,0.0,0.0,0.0,0.0,-2.1406,0.0,-2.0462,0.0,0.0,0.0,0.0,0.0,0.0,0.0,-1.9632,0.0,0.0,0.0,0.0,0.0,0.0,0.0,0.0,0.0,0.0,0.0,0.0,-2.2278,-2.2694,-2.3266,-2.3595,-2.3595,-2.3595,-2.3523,-2.3363,-2.3319,-2.3187,-2.2992,-2.2947,-2.2888,-2.2888,-2.2888,-2.2888,-2.2902,-2.3098,-2.3348,-2.3698,-2.5022,-2.5953,-2.6671,-2.8533,-2.9207,-2.9229,-3.0132,-3.03,-3.0228,-2.3795,-2.3795,-2.3795,-2.3795,-2.3795,-2.3813,-2.3789,-2.4295,-2.453,-2.4176,-2.4827,-2.5407,-2.5624,-2.5855,-2.6212,-2.673,-2.608,-2.5561,-2.5344,-2.4581,-2.4039,-2.3804,-2.3721,-2.37,-2.3721,-2.3571,-2.3435,-2.3336,-2.306,-2.2782,-2.2515,-2.2415,-2.2215,-2.1998,-2.1998,-2.2086,-2.2245,-2.2228,-2.2601,-2.3154,-2.2394,-2.2294,-2.2592,-2.2592,-2.3172,-2.3967,-2.3768,-2.3967,-2.4431,-2.5309,-2.5392,0.0,-2.4862,0.0,-2.5259,0.0,0.0,-2.4183,-2.3653,0.0,0.0,0.0,0.0,0.0,0.0,0.0,0.0,0.0,0.0,0.0,0.0,0.0,-1.969,-1.969,0.0,-1.969,0.0,0.0,0.0,0.0,0.0,0.0,0.0,0.0,0.0,0.0,-2.1051,0.0,-2.2368,-2.3011,-2.343,-2.3595,-2.3566,-2.348,-2.3319,-2.3275,-2.3112,-2.2888,-2.2888,-2.2978,-2.3112,-2.2978,-2.2978,-2.3098,-2.2933,-2.3098,-2.3466,-2.4453,-2.5145,-2.5822,-2.7646,-2.8471,-2.8808,-3.0135,-3.0268,-2.9974,-2.3795,-2.3795,-2.3795,-2.3795,-2.3795,-2.3795,-2.3795,-2.3813,-2.4103,-2.4864,-2.566,-2.6475,-2.7254,-2.8008,-2.8478,-2.8515,-2.7773,-2.6977,-2.6222,-2.5416,-2.4617,-2.384,-2.3721,-2.3721,-2.3804,-2.3212,-2.3067,-2.3394,-2.2493,-2.2215,-2.2487,-2.2186,-2.2027,-2.1998,-2.1998,-2.2417,-2.3137,-2.3012,-2.3398,-2.3982,-2.3187,-2.2443,-2.1831,0.0,-2.2742,-2.3918,-2.3189,0.0,0.0,-2.4299,-2.453,0.0,0.0,0.0,0.0,0.0,0.0,0.0,0.0,0.0,0.0,-2.3056,0.0,0.0,0.0,0.0,-2.1183,0.0,0.0,0.0,-1.9747,-1.969,-1.969,-1.969,-1.969,0.0,0.0,0.0,0.0,0.0,0.0,0.0,0.0,0.0,0.0,-1.972,-2.0363,-2.1036,-2.1695,-2.2353,-2.2981,-2.358,-2.3538,-2.3466,-2.3319,-2.3157,-2.3037,-2.2888,-2.2888,-2.3142,-2.3551,-2.3098,-2.3142,-2.3551,-2.3112,-2.2902,-2.2933,-2.3451,-2.4086,-2.4911,-2.6538,-2.7303,-2.7643,-2.9307,-2.9608,-2.9213,-2.3795,-2.3795,-2.3795,-2.3795,-2.3795,-2.3976,-2.4502,-2.5045,-2.5878,-2.7218,-2.8087,-2.8884,-2.9681,-3.0025,-2.997,-2.9427,-2.8667,-2.7634,-2.6294,-2.5439,-2.4643,-2.3828,-2.3771,-2.3707,-2.3594,-2.3394,-2.3182,-2.2952,-2.2624,-2.2426,-2.2366,-2.2265,-2.2192,-2.2192,-2.2192,-2.2332,-2.2589,-2.3013,-2.3003,-2.2675,0.0,-2.2056,-2.1797,0.0,0.0,-2.3305,-2.3537,-2.3951,0.0,-2.4646,-2.4895,-2.4895,-2.3653,-2.4282,-2.5243,-2.4,-2.3636,0.0,0.0,0.0,-2.3205,-2.2957,0.0,0.0,0.0,0.0,0.0,0.0,0.0,0.0,0.0,-1.969,-1.969,-1.969,-1.969,-1.969,0.0,0.0,0.0,0.0,0.0,0.0,0.0,0.0,0.0,-1.9555,-1.8687,-1.8922,0.0,-2.2084,-2.2813,-2.2981,-2.3329,-2.3466,-2.3319,-2.3171,-2.3037,-2.2888,-2.2888,-2.2978,-2.3142,-2.3304,-2.326,-2.3142,-2.3319,-2.3187,-2.2933,-2.3392,-2.3999,-2.4807,-2.6436,-2.7387,-2.7947,-2.9364,-2.956,-2.9245,-2.385,-2.3795,-2.3795,-2.3795,-2.3795,-2.4067,-2.4882,0.0,0.0,0.0,-2.9717,0.0,-3.1329,0.0,-3.1093,0.0,-2.9481,-2.8341,-2.6729,-2.5606,-2.4646,-2.3831,-2.3795,-2.3732,-2.362,-2.344,-2.3182,-2.285,-2.2659,-2.246,-2.231,-2.231,-2.231,-2.231,-2.231,-2.2434,-2.2664,-2.3375,-2.321,-2.2413,0.0,-2.2019,0.0,0.0,-2.2245,-2.2924,0.0,-2.3388,-2.3636,-2.3851,-2.41,-2.4149,-2.3189,-2.3918,-2.4911,-2.3967,-2.3868,-2.4116,-2.4332,-2.4249,0.0,-2.3421,-2.3487,0.0,-2.2147,0.0,0.0,0.0,0.0,0.0,0.0,-1.996,-1.9889,-1.9889,-1.9782,-1.969,0.0,-1.969,0.0,0.0,0.0,0.0,0.0,0.0,-1.7897,-1.9555,-1.8508,-1.8608,0.0,0.0,-2.2428,-2.2709,-2.3167,-2.3363,-2.3319,-2.3112,-2.2992,-2.2888,-2.2888,-2.2978,-2.3142,-2.3304,-2.3275,-2.3142,-2.3304,-2.3187,-2.2933,-2.3231,-2.3748,-2.4505,-2.5981,-2.6974,-2.7688,-2.9303,-2.971,-2.9563,-2.3958,-2.3831,-2.385,-2.385,-2.3831,0.0,0.0,0.0,-2.8015,0.0,-3.0604,-3.1419,-3.2234,-3.2325,-3.1962,-3.1075,-3.0296,-2.9137,-2.7453,-2.5914,-2.4683,-2.3831,-2.3795,-2.3795,-2.3774,-2.333,-2.3109,-2.3042,-2.2552,-2.231,-2.231,-2.231,-2.231,-2.231,-2.231,-2.2699,-2.3393,-2.4096,-2.3998,-2.3274,-2.2325,-2.2365,-2.2901,-2.2175,0.0,-2.2857,-2.2145,-2.2377,-2.2891,-2.2145,-2.241,-2.304,-2.2924,-2.3934,-2.516,-2.5127,-2.5607,-2.6005,-2.5342,-2.564,-2.5822,-2.4398,0.0,0.0,0.0,0.0,-2.2534,0.0,0.0,0.0,0.0,-2.0462,-2.0208,-2.0208,-1.9909,-1.9726,-1.9711,-1.9726,-1.969,0.0,0.0,0.0,0.0,-1.957,-1.954,-1.9675,-1.957,-1.9824,0.0,0.0,0.0,-2.2649,-2.3066,-2.3319,-2.3319,-2.3023,-2.2888,-2.2888,-2.2888,-2.3142,-2.3551,-2.3142,-2.3187,-2.3551,-2.3142,-2.2933,-2.2947,-2.2931,-2.3368,-2.404,-2.522,-2.6081,-2.6998,-2.9096,-2.9918,-3.0065,-2.3958,-2.4284,-2.4683,0.0,-2.4194,-2.4465,0.0,0.0,0.0,0.0,-3.227,-3.3085,-3.39,-3.3991,-3.3176,-3.1166,-3.0803,0.0,0.0,0.0,0.0,-2.385,-2.3795,-2.3646,-2.3283,-2.3164,-2.291,-2.2497,-2.2366,-2.231,-2.231,-2.231,-2.231,-2.231,-2.231,-2.2412,-2.2682,-2.3921,-2.4298,-2.3969,-2.3093,-2.2801,0.0,0.0,-2.3553,-2.3686,-2.3503,-2.3918,-2.4431,-2.3686,-2.4299,-2.5077,-2.3421,-2.4299,-2.5822,-2.5259,-2.5243,-2.5475,-2.5839,-2.5673,-2.5292,-2.4911,-2.4547,-2.4183,0.0,0.0,0.0,0.0,0.0,0.0,0.0,0.0,-2.0208,-2.0208,-1.9909,-1.9782,-2.005,-1.9854,0.0,-1.969,0.0,0.0,0.0,-1.7957,-1.7612,-1.954,-1.7912,-1.7732,0.0,0.0,0.0,-2.1934,-2.2829,-2.3319,-2.3319,-2.3023,-2.2888,-2.2888,-2.2888,-2.2978,-2.3112,-2.3304,-2.348,-2.3595,-2.3465,-2.3436,-2.3437,-2.3579,-2.4036,-2.4738,-2.5905,-2.7334,-2.8814,-2.9278,-2.979,-3.0236,-2.4483,-2.4791,-2.5371,-2.595,0.0,0.0,-2.7725,-2.8232,0.0,-3.1872,-3.2904,0.0,-3.3538,-3.3556,-3.2723,-3.0659,-3.0152,0.0,-2.6367,0.0,0.0,-2.385,-2.3728,-2.3553,-2.3277,-2.3035,-2.2773,-2.2487,-2.2366,-2.231,-2.231,-2.231,-2.231,-2.231,-2.231,-2.231,-2.2395,-2.3528,-2.3988,-2.388,-2.3625,0.0,0.0,-2.3867,-2.4398,-2.4928,-2.4597,-2.4547,-2.4514,-2.3768,-2.4299,-2.5027,-2.3768,-2.4464,-2.5706,-2.5624,-2.559,-2.5673,-2.6104,-2.5905,-2.559,-2.559,-2.5276,-2.4878,-2.4547,-2.3671,-2.2982,0.0,0.0,0.0,0.0,0.0,0.0,-2.0208,-2.005,-1.998,-2.0174,-1.9909,0.0,0.0,-1.969,0.0,0.0,-1.8377,-1.8137,-1.957,-1.8362,0.0,0.0,0.0,0.0,-2.1695,-2.3022,-2.3555,-2.3319,-2.33,-2.3163,-2.2888,-2.2888,-2.2888,-2.2902,-2.3187,-2.3392,-2.3595,-2.3392,-2.3392,-2.3611,-2.38,-2.433,-2.5112,-2.6387,-2.754,-2.854,-2.9055,-2.9768,-3.0544,-2.5316,-2.5516,-2.6144,0.0,0.0,0.0,0.0,-2.9518,0.0,-3.1999,0.0,-3.2977,-3.227,-3.2107,-3.1437,-2.9942,0.0,-2.7918,-2.6312,-2.5461,-2.4646,-2.3789,-2.3598,-2.3481,-2.3412,-2.2952,-2.2685,-2.2659,-2.2405,-2.231,-2.231,-2.231,-2.231,-2.231,-2.231,-2.2361,-2.2496,-2.3122,-2.3414,-2.3536,-2.4106,-2.4344,-2.4328,-2.4315,-2.5094,-2.6137,-2.5475,-2.4829,-2.4166,-2.3321,-2.3603,-2.4249,-2.4067,-2.458,-2.5375,-2.6021,-2.622,-2.622,-2.622,-2.622,-2.622,-2.622,-2.6137,-2.5922,-2.5375,-2.5094,-2.4812,-2.4265,-2.3487,0.0,0.0,0.0,0.0,-2.0379,-2.0311,0.0,0.0,0.0,0.0,0.0,0.0,0.0,0.0,0.0,0.0,0.0,0.0,0.0,0.0,0.0,0.0,0.0,-2.3288,0.0,-2.3408,0.0,-2.3528,-2.3018,-2.2931,-2.2888,-2.2888,-2.2888,-2.3142,-2.3551,-2.3187,-2.3275,-2.3698,-2.4025,-2.4634,-2.5507,-2.6739,-2.7292,-2.7476,-2.8631,-2.9812,-3.0807,-2.6149,-2.7109,-2.7881,0.0,0.0,-2.9807,-3.0477,-3.0695,-3.1129,-3.2071,-3.2325,-3.2361,-3.2216,-3.16,-3.0822,-2.9888,-2.9065,0.0,0.0,0.0,0.0,-2.3589,-2.3526,-2.3277,-2.285,-2.2764,-2.2579,-2.2366,-2.2338,-2.231,-2.231,-2.231,-2.231,-2.231,-2.231,-2.2649,-2.3207,-2.33,0.0,-2.4108,-2.4762,-2.4979,-2.5012,-2.559,-2.5988,-2.6187,-2.6071,-2.5938,-2.5624,-2.4265,-2.4713,-2.5607,-2.4381,-2.4928,-2.6038,-2.617,-2.622,-2.622,-2.622,-2.622,-2.622,-2.622,-2.5756,-2.5425,-2.5905,-2.5077,-2.4332,-2.4812,-2.3835,-2.2891,-2.2891,0.0,0.0,0.0,0.0,0.0,0.0,0.0,0.0,0.0,0.0,-1.969,0.0,0.0,0.0,0.0,0.0,0.0,0.0,0.0,0.0,0.0,0.0,0.0,0.0,0.0,0.0,-2.3717,-2.3149,-2.2888,-2.2888,-2.2888,-2.3142,-2.361,-2.3508,-2.3739,-2.4227,-2.5048,-2.5946,-2.6857,-2.7261,-2.7728,-2.8218,-2.8532,-2.9485,-3.0643,-2.8685,-2.8648,-2.8732,-2.9192,0.0,0.0,0.0,-3.1618,0.0,-3.1582,-3.1582,-3.1256,-3.0423,-3.0351,-2.9717,-2.8069,-2.796,-2.7127,-2.5099,-2.4843,-2.4405,-2.3539,-2.323,-2.2977,-2.2712,-2.2552,-2.2432,-2.231,-2.231,-2.231,-2.231,-2.231,-2.231,-2.2327,-2.2699,-2.3071,0.0,0.0,0.0,-2.4391,-2.5447,-2.5597,-2.5211,-2.5922,-2.622,-2.622,-2.622,-2.622,-2.6038,-2.4944,-2.5309,-2.6021,-2.4928,-2.5325,-2.622,-2.622,-2.622,-2.622,-2.622,-2.622,-2.622,-2.622,-2.5938,-2.5773,-2.6137,-2.5657,-2.5243,-2.5607,-2.4497,-2.3175,-2.2243,-2.1786,0.0,0.0,0.0,0.0,0.0,0.0,-2.0429,0.0,0.0,0.0,0.0,0.0,0.0,0.0,0.0,0.0,0.0,0.0,0.0,0.0,0.0,0.0,0.0,0.0,0.0,-2.3489,-2.3138,-2.2992,-2.2888,-2.2888,-2.3142,-2.3595,-2.3595,-2.4091,-2.4987,-2.6047,-2.6823,-2.7335,-2.7437,-2.7682,-2.8047,-2.8472,-2.9388,-3.0502,-3.1129,-3.0224,0.0,0.0,-3.1582,0.0,-3.2162,-3.2198,-3.1962,-3.1329,-3.0948,-3.0188,-2.875,-2.8959,-2.8381,-2.6385,-2.6573,-2.6007,-2.4093,-2.4221,-2.4064,-2.336,-2.2927,-2.2659,-2.2623,-2.2405,-2.231,0.0,0.0,-2.2547,-2.2547,-2.2547,-2.2547,-2.2564,0.0,0.0,0.0,0.0,-2.5223,-2.4691,-2.5983,-2.6065,-2.5461,-2.5988,-2.622,-2.622,-2.622,-2.622,-2.612,-2.5541,-2.5723,-2.6087,-2.5342,-2.5624,-2.6187,-2.6021,-2.6087,-2.6187,-2.6021,-2.6087,-2.622,-2.622,-2.622,-2.622,-2.622,-2.6087,-2.6021,-2.6187,-2.5027,-2.3538,-2.1937,-2.1716,0.0,0.0,0.0,0.0,0.0,0.0,0.0,0.0,0.0,0.0,-1.9711,0.0,0.0,0.0,0.0,0.0,0.0,0.0,0.0,0.0,0.0,-2.3525,-2.3674,0.0,-2.3805,0.0,-2.3332,-2.3287,-2.3196,-2.3463,-2.3733,-2.397,-2.4038,-2.4713,-2.5866,-2.7022,-2.7576,-2.7775,-2.786,-2.7894,-2.7985,-2.8667,-2.9485,-3.0381,0.0,0.0,0.0,0.0,0.0,0.0,-3.2198,-3.2198,-3.2162,-3.2089,-3.0803,-2.9572,-2.8721,-2.7795,-2.6971,-2.6253,-2.5386,-2.476,-2.4527,-2.3932,-2.3366,-2.2816,-2.2738,-2.2596,-2.2338,-2.231,-2.231,0.0,0.0,-2.3291,-2.3291,-2.3291,-2.3291,0.0,0.0,0.0,0.0,-2.5253,-2.5428,-2.528,-2.615,-2.6347,-2.6104,-2.6187,-2.622,-2.622,-2.622,-2.622,-2.6203,-2.6137,-2.6154,-2.6087,-2.5342,-2.5624,-2.6087,-2.5408,-2.569,-2.6071,-2.5392,-2.5706,-2.622,-2.622,-2.622,-2.622,-2.622,-2.569,-2.5408,-2.6071,-2.5027,-2.3752,-2.2909,-2.2245,-2.1797,0.0,0.0,0.0,0.0,0.0,-2.1119,-2.0778,0.0,0.0,0.0,0.0,0.0,0.0,0.0,0.0,0.0,0.0,0.0,-2.1695,0.0,-2.3806,-2.4282,-2.3822,0.0,-2.4099,-2.4174,-2.4189,-2.4218,-2.5258,-2.5483,-2.5171,-2.5413,-2.5936,-2.6796,-2.7976,-2.8682,-2.8935,-2.8935,-2.8935,-2.9014,-2.9626,-2.9957,-3.0193,0.0,0.0,0.0,0.0,0.0,0.0,0.0,-3.1781,-3.131,-3.0803,-3.0188,-2.9481,-2.8677,-2.8222,-2.7205,-2.5293,-2.4892,-2.4473,-2.3755,-2.3267,-2.2927,-2.2712,-2.2542,-2.2405,-2.231,-2.231,-2.231,0.0,0.0,0.0,0.0,0.0,0.0,0.0,0.0,-2.4881,-2.5203,-2.5947,-2.6202,-2.6118,-2.642,-2.6434,-2.6241,-2.6241,-2.6222,-2.622,-2.622,-2.622,-2.622,-2.622,-2.622,-2.617,-2.5855,-2.5673,-2.5491,-2.5193,-2.5309,-2.5491,-2.5193,-2.564,-2.6104,-2.5657,-2.5889,-2.6087,-2.564,-2.5309,-2.5193,-2.5491,-2.4365,-2.3238,-2.294,-2.2294,-2.1797,0.0,0.0,0.0,0.0,0.0,0.0,-2.1151,0.0,-2.0395,0.0,0.0,0.0,0.0,0.0,0.0,0.0,0.0,0.0,-2.168,0.0,-2.3483,-2.4319,-2.3831,-2.3744,-2.413,-2.4313,-2.4384,-2.4353,-2.5455,-2.6198,-2.6567,-2.6714,-2.7042,-2.7491,-2.8762,-2.9032,-2.8638,-2.8982,-2.9074,-2.9121,-2.9374,-3.0195,-3.1293,-3.3731,0.0,-3.2814,0.0,-3.2886,-3.2198,-3.2198,-3.131,-3.0396,-2.9737,-2.9449,-2.9016,-2.8214,-2.7779,-2.6685,-2.4541,-2.4295,-2.3882,-2.3038,-2.2799,-2.2659,-2.2596,-2.2405,0.0,-2.231,-2.231,-2.231,-2.231,-2.3257,0.0,0.0,0.0,0.0,0.0,-2.5372,-2.5727,-2.5964,-2.6471,-2.664,-2.6606,-2.6606,-2.6503,-2.6347,-2.6347,-2.6329,-2.6274,-2.6239,-2.6222,-2.6239,-2.6203,-2.6071,-2.5889,-2.5889,-2.5524,-2.5027,-2.458,-2.4613,-2.4729,-2.4514,-2.4994,-2.5441,-2.4911,-2.5176,-2.5475,-2.5176,-2.4762,-2.4514,-2.4746,-2.3951,-2.3222,-2.3222,-2.2427,-2.1797,-2.1797,0.0,0.0,0.0,0.0,0.0,-2.1214,-2.0958,-2.0646,-2.0243,-1.998,0.0,0.0,0.0,0.0,0.0,0.0,0.0,0.0,0.0,0.0,0.0,-2.3894,-2.3872,-2.4468,-2.4865,-2.5031,-2.5008,-2.6182,-2.7036,-2.7604,-2.7881,-2.7922,-2.796,-2.9106,-2.9196,-2.8591,-2.8935,-2.9074,-2.9074,-2.9074,-3.0032,-3.1348,-3.4545,-3.3996,-3.3647,-3.4461,-3.3266,-3.2198,-3.2198,-3.0822,-2.9692,-2.9336,-2.8629,-2.7835,-2.7111,-2.5848,-2.4819,-2.4261,-2.3302,-2.2729,-2.2712,-2.2712,-2.2579,0.0,0.0,-2.231,-2.231,-2.231,-2.231,-2.231,0.0,0.0,-2.4506,0.0,-2.5592,-2.5592,-2.5609,-2.5998,-2.6674,-2.6691,-2.664,-2.6606,-2.6606,-2.6554,-2.6485,-2.6485,-2.6485,-2.6485,-2.6347,-2.6295,-2.6295,-2.6239,-2.5723,-2.5127,-2.5127,-2.511,-2.4812,-2.3354,-2.3437,-2.3851,-2.3123,-2.347,-2.4017,-2.4017,-2.4017,-2.4216,-2.4944,-2.3967,-2.3123,-2.3868,-2.4,-2.3984,-2.3984,-2.2791,-2.1797,-2.1797,0.0,0.0,0.0,0.0,0.0,-2.0893,-2.0794,-2.0646,-2.0243,0.0,0.0,0.0,0.0,0.0,0.0,0.0,0.0,-2.3264,-2.3489,0.0,-2.4863,-2.4048,-2.4157,-2.5302,-2.6039,-2.6443,-2.6587,-2.774,-2.8202,-2.8107,-2.8803,-2.8724,-2.8139,-2.8835,-2.9074,-2.9074,-2.9074,-2.9074,-2.9074,-2.9074,-2.9409,-2.9879,-3.3749,-3.3574,-3.3302,-3.3013,-3.2542,-3.1818,-3.0713,-2.9935,-2.9213,-2.8576,-2.7895,-2.74,-2.7173,-2.6231,-2.4873,0.0,-2.2624,-2.2432,0.0,-2.2432,-2.2377,-2.231,-2.231,-2.231,-2.231,-2.231,-2.231,-2.231,0.0,0.0,0.0,-2.549,-2.5879,-2.6336,-2.5828,-2.5744,-2.5947,-2.5947,-2.5931,-2.5915,-2.5915,-2.5882,-2.5765,-2.5278,-2.4978,-2.4863,-2.4813,-2.478,-2.473,-2.4696,-2.4547,-2.4265,-2.3768,-2.3603,-2.3503,-2.304,-2.3073,-2.3189,-2.2957,-2.3437,-2.3884,-2.3371,-2.3619,-2.4067,-2.4299,-2.3984,-2.3719,-2.3951,-2.3189,-2.2808,-2.3818,-2.2791,-2.1797,-2.1797,-2.1797,0.0,0.0,0.0,0.0,-2.1509,-2.1277,-2.1087,0.0,-2.073,0.0,0.0,0.0,0.0,0.0,0.0,0.0,0.0,-2.3351,0.0,-2.4902,-2.4048,-2.4313,-2.5712,-2.6171,-2.7056,-2.828,-2.7797,-2.817,-2.9219,-2.8962,-2.8994,-2.9267,-2.9476,-2.9393,-2.9074,-2.9074,-2.9074,-2.9074,-2.9074,-2.9513,-3.0051,-3.2944,-3.2734,-3.2343,-3.1836,-3.1492,-3.0948,-2.9961,-2.9242,-2.8627,-2.8035,-2.7517,-2.6926,-2.6265,-2.5708,0.0,-2.327,-2.2632,-2.231,-2.231,-2.231,-2.231,-2.231,-2.231,-2.231,-2.231,0.0,0.0,-2.231,-2.3038,-2.4002,-2.5186,-2.5186,-2.5423,-2.5845,-2.5389,-2.5186,-2.5203,-2.549,-2.5609,-2.5609,-2.5609,-2.5544,-2.5411,-2.4671,-2.429,-2.4178,-2.4114,-2.4081,-2.4016,-2.4,-2.3818,-2.3503,-2.304,-2.2708,-2.2477,-2.2477,-2.2477,-2.2477,-2.2477,-2.2808,-2.3056,-2.2592,-2.2824,-2.3172,-2.3172,-2.3818,-2.4265,-2.3702,-2.2841,-2.2477,-2.3421,-2.2609,-2.1797,-2.1797,-2.1797,-2.1797,-2.1797,0.0,0.0,0.0,0.0,0.0,0.0,-2.136,0.0,0.0,0.0,0.0,0.0,0.0,0.0,-2.3519,-2.3556,0.0,-2.5786,-2.4766,-2.5075,-2.6693,-2.696,-2.769,-2.8764,-2.8155,-2.8388,-2.921,-2.8764,-2.8828,-2.9241,-2.9241,-2.9058,-2.8826,-2.9028,-2.8982,-2.8795,-2.8795,-2.9108,-2.9437,-3.2056,-3.1547,0.0,0.0,-3.0233,0.0,-2.9673,-2.873,-2.7946,-2.7683,-2.7317,-2.6453,-2.4774,-2.4489,-2.4438,-2.4438,0.0,0.0,0.0,-2.231,-2.231,-2.231,-2.231,0.0,-2.231,-2.231,-2.231,-2.231,-2.2987,-2.3697,-2.4438,-2.4438,-2.4455,-2.4506,-2.4455,-2.4438,-2.4489,-2.5152,-2.5456,-2.5456,-2.5456,-2.5424,-2.526,-2.4534,-2.4216,-2.4139,-2.3996,-2.3964,-2.3932,-2.3884,-2.3388,-2.2808,-2.2808,-2.2344,-2.1797,-2.1797,-2.1797,-2.1797,-2.1797,-2.1797,-2.1797,-2.1797,-2.1864,-2.193,-2.188,-2.3503,-2.463,-2.3189,-2.2857,-2.2841,-2.2891,-2.2294,-2.1797,-2.1797,-2.1797,-2.1797,-2.1797,0.0,0.0,0.0,0.0,0.0,0.0,-2.2086,-2.2916,0.0,0.0,0.0,0.0,0.0,-2.3555,-2.491,-2.4212,-2.4937,-2.7292,-2.6097,-2.6305,-2.7987,-2.8155,-2.8304,-2.8384,-2.8795,-2.8732,-2.8336,-2.8304,-2.8336,-2.8336,-2.8304,-2.8288,-2.8352,-2.8826,-2.8685,-2.8255,-2.8255,-2.8255,-2.8207,0.0,0.0,-3.0417,-2.9801,-2.9375,-2.892,-2.8279,-2.7769,-2.7401,-2.7317,-2.6524,-2.5824,-2.5389,-2.4323,-2.3646,-2.3646,-2.2835,-2.231,-2.231,-2.231,-2.231,-2.231,-2.231,-2.231,-2.231,-2.231,-2.231,-2.231,-2.2479,-2.2936,-2.3646,-2.3646,-2.3951,-2.4489,-2.39,-2.3646,-2.3663,-2.3849,-2.3917,-2.3917,-2.3917,-2.3917,-2.3819,-2.3076,-2.2748,-2.2689,-2.266,-2.2538,-2.2415,-2.2385,-2.2255,-2.2046,-2.2046,-2.193,-2.1797,-2.1797,-2.1797,-2.1797,-2.1797,-2.1797,-2.1797,-2.1797,-2.2642,-2.3321,-2.2758,-2.3487,-2.4,-2.3089,-2.2443,-2.2228,-2.2791,-2.2294,-2.1797,-2.1797,-2.1797,-2.1797,-2.1797,-2.1797,0.0,0.0,-2.2172,-2.2501,-2.2501,-2.3209,-2.3736,0.0,0.0,0.0,0.0,0.0,-2.5387,-2.5749,-2.5737,-2.6338,-2.7574,-2.6639,-2.6816,-2.8091,-2.7867,-2.8174,-2.8889,-2.8238,-2.8319,-2.8889,-2.8496,-2.8543,-2.8889,-2.8496,-2.8288,-2.8304,-2.8042,-2.7894,-2.776,-2.776,-2.776,-2.776,-3.0369,-2.9898,-2.9275,-2.8819,-2.8538,-2.8194,-2.7766,-2.7134,-2.669,-2.6692,-2.5763,-2.4966,-2.4628,-2.3883,-2.3257,-2.2936,-2.2547,-2.231,-2.231,-2.231,-2.231,-2.231,-2.231,-2.231,-2.231,-2.231,-2.231,-2.231,-2.231,-2.2513,-2.2902,-2.2902,-2.3105,-2.3477,-2.3071,-2.2902,-2.2919,-2.3257,-2.3393,-2.3393,-2.3393,-2.3363,-2.3266,-2.2478,-2.2135,-2.2065,-2.2036,-2.1961,-2.184,-2.184,-2.184,-2.1797,-2.1797,-2.1797,-2.1797,-2.1797,-2.1797,-2.1797,-2.1797,-2.1797,-2.1797,-2.1797,-2.2907,-2.3719,-2.2642,-2.3222,-2.3702,-2.2609,-2.2079,-2.1913,-2.2311,-2.2062,-2.1797,-2.1797,-2.1797,-2.1797,-2.1797,-2.2079,0.0,-2.2294,-2.294,-2.3404,-2.3404,-2.4067,-2.4497,-2.4497,0.0,0.0,-2.6323,-2.7436,-2.7671,-2.6807,-2.6729,-2.7291,-2.8485,-2.8462,-2.8677,-2.9057,-2.8854,-2.8676,-2.8415,-2.8076,-2.8222,-2.8685,-2.8222,-2.8271,-2.8685,-2.8448,-2.8288,-2.8304,-2.8271,-2.814,-2.7929,-2.7929,-2.7795,-2.7625,-2.9481,-2.8775,-2.8049,-2.8038,-2.7773,-2.7504,-2.7413,-2.6601,-2.5993,-2.5872,-2.4978,-2.4086,-2.346,-2.3291,-2.2987,-2.2361,-2.231,-2.231,-2.231,-2.231,-2.231,-2.231,-2.231,-2.231,-2.231,-2.231,-2.231,-2.231,-2.231,-2.231,-2.231,-2.2412,-2.2412,-2.231,-2.2429,-2.2412,-2.2344,-2.297,-2.3224,-2.3224,-2.3224,-2.3211,-2.3055,-2.2324,-2.1986,-2.1928,-2.184,-2.184,-2.184,-2.1811,-2.1811,-2.1797,-2.1797,-2.1797,-2.1797,-2.1797,-2.1797,-2.1797,-2.1797,-2.1797,-2.1814,-2.193,-2.2907,-2.3503,-2.2245,-2.2924,-2.3454,-2.2079,-2.1797,-2.1797,-2.1797,-2.1797,-2.1797,-2.1797,-2.1797,-2.1797,-2.1797,0.0,-2.2891,-2.2891,-2.3653,-2.4166,-2.4166,-2.4829,-2.5309,-2.5425,-2.7164,0.0,0.0,-2.945,-2.9766,-2.8192,-2.7843,-2.8372,-2.9774,-3.0549,-3.0649,-3.018,-3.0022,-2.9133,-2.771,-2.8012,-2.8255,-2.824,-2.7795,-2.7845,-2.8207,-2.8207,-2.8207,-2.8255,-2.8701,-2.8606,-2.8207,-2.8207,-2.7929,-2.7625,-2.8775,-2.8227,-2.7754,-2.7747,-2.7255,-2.6667,-2.6025,-2.5794,-2.5431,-2.4822,-2.4079,-2.3528,-2.341,-2.2852,-2.2429,-2.2327,-2.231,-2.231,-2.231,-2.231,-2.231,-2.231,-2.231,-2.231,-2.231,-2.231,-2.231,-2.231,-2.231,-2.231,-2.2327,-2.2936,-2.2902,-2.2344,-2.2953,-2.2885,-2.231,-2.2429,-2.2479,-2.2479,-2.2479,-2.2423,-2.2365,-2.2219,-2.2168,-2.214,-2.2015,-2.1969,-2.1969,-2.1882,-2.184,-2.1797,-2.1797,-2.1797,-2.1797,-2.1797,-2.1797,-2.1797,-2.1797,-2.1797,-2.1947,-2.2559,-2.2891,-2.3007,-2.2775,-2.2907,-2.2824,-2.1963,-2.1797,-2.1797,-2.1797,-2.1797,-2.1797,-2.1797,-2.1797,-2.1797,-2.1797,0.0,-2.2891,-2.2891,-2.41,-2.4928,-2.4928,-2.5607,-2.6286,-2.6919,-2.7284,-2.7926,-2.9019,-2.9996,-3.0369,-3.0054,-3.0201,-3.0716,-3.1599,-3.1118,-3.0649,-3.018,-2.9122,-2.8444,-2.8158,-2.7845,-2.7929,-2.824,-2.7795,-2.761,-2.771,-2.771,-2.771,-2.771,-2.781,-2.776,-2.771,-2.771,-2.766,-2.7625,-2.8587,-2.8102,-2.7564,-2.7169,-2.6541,-2.5864,-2.5125,-2.4672,-2.4289,-2.3934,-2.3274,-2.2818,-2.2818,-2.2513,-2.231,-2.231,-2.231,-2.231,-2.231,-2.231,-2.231,-2.231,-2.231,-2.231,-2.231,-2.231,-2.231,-2.231,-2.231,-2.231,-2.231,-2.2649,-2.2632,-2.2327,-2.2665,-2.2632,-2.231,-2.231,-2.231,-2.231,-2.231,-2.2282,-2.2254,-2.2197,-2.2214,-2.2168,-2.2044,-2.1998,-2.1998,-2.1911,-2.1899,-2.184,-2.1811,-2.1797,-2.1797,-2.1797,-2.1797,-2.1797,-2.1797,-2.1797,-2.1864,-2.2212,-2.2609,-2.2791,-2.2394,-2.2609,-2.2692,-2.1947,-2.1797,-2.1797,-2.1797,-2.1797,-2.1797,-2.1797,-2.1797,0.0,0.0,-2.3023,-2.3636,-2.4033,-2.5044,-2.5706,-2.5706,-2.6352,-2.7081,-2.7848,-2.8224,-2.9069,-3.0526,-3.0924,-3.1064,-3.1064,-3.1221,-3.1839,-3.2954,-3.2233,-3.1629,-3.1165,-3.0148,-2.9375,-2.8732,-2.8222,-2.8271,-2.8685,-2.7944,-2.776,-2.7978,-2.771,-2.7625,-2.7625,-2.7625,-2.7625,-2.7625,-2.7625,-2.7625,-2.7625,-2.8587,-2.7987,-2.7271,-2.6704,-2.5905,-2.5107,-2.4367,-2.3765,-2.3334,-2.3173,-2.2649,-2.231,-2.231,-2.231,-2.231,-2.231,-2.231,-2.231,-2.231,-2.231,-2.231,-2.231,-2.231,-2.231,-2.231,-2.231,-2.231,-2.231,-2.231,-2.231,-2.231,-2.2496,-2.2462,-2.231,-2.2496,-2.2462,-2.231,-2.231,-2.231,-2.231,-2.231,-2.2282,-2.2254,-2.2214,-2.2214,-2.2168,-2.2015,-2.1998,-2.1998,-2.1882,-2.1869,-2.1869,-2.1827,-2.1797,-2.1797,-2.1797,-2.1797,-2.1797,-2.1797,-2.1797,-2.1797,-2.1797,-2.2228,-2.2493,-2.1913,-2.2228,-2.2477,-2.1913,-2.1797,-2.1797,-2.1797,-2.1797,-2.1847,-2.2013,0.0,0.0,0.0,-2.3934,-2.4663,-2.506,-2.5905,-2.6402,-2.6236,-2.67,-2.7479,-2.8539,-2.9118,-3.0129,-3.1785,-3.1868,-3.1868,-3.1868,-3.1719,-3.2332,-3.3773,-3.2895,-3.2208,-3.1751,-3.1021,-3.0103,-2.909,-2.8685,-2.8685,-2.9028,-2.8125,-2.7978,-2.824,-2.7795,-2.7625,-2.7625,-2.7625,-2.7625,-2.7625,-2.7625,-2.7625,-2.7625,-2.8587,-2.7551,-2.6645,-2.6619,-2.5471,-2.4334,-2.3591,-2.3413,-2.3156,-2.2479,-2.2344,-2.231,-2.231,-2.231,-2.231,-2.231,-2.231,-2.231,-2.231,-2.231,-2.231,-2.231,-2.231,-2.231,-2.231,-2.231,-2.231,-2.231,-2.231,-2.231,-2.2327,-2.3004,-2.2953,-2.2344,-2.3004,-2.2936,-2.231,-2.231,-2.231,-2.231,-2.231,-2.2254,-2.2214,-2.2214,-2.2214,-2.2168,-2.1974,-2.194,-2.1969,-2.184,-2.1827,-2.1827,-2.1797,-2.1797,-2.1797,-2.1797,-2.1797,-2.1797,-2.1797,-2.1797,-2.1797,-2.1797,-2.1831,-2.1864,-2.1797,-2.1831,-2.1864,-2.1797,-2.1797,-2.1797,-2.1797,-2.1797,-2.2013,-2.2708,0.0,0.0,-2.3818,-2.5143,-2.5806,-2.5176,-2.6336,-2.6932,-2.6286,-2.627,-2.7131,-2.9185,-2.9383,-3.0344,-3.2497,-3.2613,-3.2613,-3.2613,-3.1967,-3.2332,-3.3773,-3.2398,-3.1468,-3.0959,-3.0231,-2.9621,-2.9074,-2.9074,-2.9074,-2.9074,-2.8496,-2.8255,-2.824,-2.7795,-2.7625,-2.7625,-2.7625,-2.7625,-2.7625,-2.7625,-2.7625,-2.7625,-2.8605,-2.7515,-2.6422,-2.5936,-2.4749,-2.3579,-2.283,-2.2711,-2.2632,-2.2344,-2.231,-2.231,-2.231,-2.231,-2.231,-2.231,-2.231,-2.231,-2.231,-2.231,-2.231,-2.231,-2.231,-2.231,-2.231,-2.231,-2.231,-2.231,-2.231,-2.231,-2.231,-2.2598,-2.2581,-2.2327,-2.2598,-2.2564,-2.231,-2.231,-2.231,-2.231,-2.231,-2.2282,-2.2254,-2.2254,-2.2242,-2.2214,-2.2152,-2.2089,-2.1998,-2.194,-2.1899,-2.184,-2.1811,-2.1797,-2.1797,-2.1797,-2.1797,-2.1797,-2.1797,-2.1797,-2.1797,-2.1797,-2.1797,-2.1797,-2.1797,-2.1797,-2.1797,-2.1797,-2.2145,-2.2477,-2.2477,-2.2857,-2.3255,-2.3537,0.0,-2.4,-2.5209,-2.5458,-2.5756,-2.6369,-2.6551,-2.6518,-2.6236,-2.7031,-2.8257,-2.998,-3.0526,-3.1537,-3.3276,-3.2945,-3.268,-3.268,-3.1984,-3.21,-3.3094,-3.2116,-3.149,-3.1342,-3.0603,-3.0402,-3.0635,-2.9871,-2.9769,-3.017,-2.9217,-2.8795,-2.8779,-2.8606,-2.8319,-2.8027,-2.8027,-2.7845,-2.7625,-2.7625,-2.7625,-2.7625,-2.8605,-2.7327,-2.6061,-2.5499,-2.416,-2.2988,-2.2378,-2.231,-2.231,-2.231,-2.231,-2.231,-2.231,-2.231,-2.231,-2.231,-2.231,-2.231,-2.231,-2.231,-2.231,-2.231,-2.231,-2.231,-2.231,-2.231,-2.231,-2.231,-2.231,-2.231,-2.231,-2.231,-2.231,-2.231,-2.231,-2.231,-2.231,-2.231,-2.231,-2.231,-2.231,-2.231,-2.231,-2.231,-2.2254,-2.2225,-2.2254,-2.218,-2.2044,-2.2027,-2.1969,-2.1911,-2.1869,-2.1869,-2.1869,-2.1869,-2.184,-2.184,-2.184,-2.1827,-2.1847,-2.2079,-2.2145,-2.2145,-2.2145,-2.2311,-2.2427,-2.2178,-2.2725,-2.3238,-2.3238,-2.3653,-2.4083,-2.4315,-2.4547,-2.5044,-2.6071,-2.617,-2.6336,-2.6882,-2.67,-2.6634,-2.6866,-2.7793,-2.9168,-3.1056,-3.1669,-3.2398,-3.3392,-3.3176,-3.2812,-3.2365,-3.1868,-3.1851,-3.2348,-3.1636,-3.1229,-3.1229,-3.0758,-3.0691,-3.0997,-3.0168,-3.0069,-3.0506,-2.951,-2.9166,-2.9303,-2.9166,-2.8873,-2.8543,-2.8352,-2.811,-2.7795,-2.766,-2.7625,-2.7625,-2.8605,-2.6892,-2.5375,-2.5394,-2.3904,-2.2604,-2.2361,-2.231,-2.231,-2.231,-2.231,-2.231,-2.231,-2.231,-2.231,-2.231,-2.231,-2.231,-2.231,-2.231,-2.231,-2.231,-2.231,-2.231,-2.231,-2.231,-2.231,-2.231,-2.231,-2.231,-2.231,-2.231,-2.231,-2.231,-2.231,-2.231,-2.231,-2.231,-2.231,-2.231,-2.231,-2.231,-2.231,-2.231,-2.231,-2.2282,-2.2225,-2.2214,-2.2168,-2.2044,-2.1998,-2.1998,-2.1998,-2.1998,-2.1998,-2.1998,-2.194,-2.1899,-2.1899,-2.184,-2.1963,-2.2708,-2.2891,-2.2891,-2.2907,-2.347,-2.3785,-2.3056,-2.3503,-2.4017,-2.4017,-2.4017,-2.4265,-2.5011,-2.574,-2.622,-2.6236,-2.7462,-2.7827,-2.6402,-2.6849,-2.7599,-2.8345,-2.839,-2.9599,-3.2464,-3.268,-3.268,-3.268,-3.3375,-3.311,-3.1626,-3.1576,-3.1576,-3.1576,-3.0891,-3.0526,-3.0526,-3.0526,-3.0258,-2.981,-2.981,-2.981,-2.981,-2.9319,-2.9348,-2.975,-2.9303,-2.9074,-2.9028,-2.8496,-2.8288,-2.8255,-2.7745,-2.7625,-2.7625,-2.6524,-2.5411,-2.4576,-2.5028,-2.3617,-2.2564,-2.2996,-2.2637,-2.231,-2.231,-2.231,-2.231,-2.231,-2.231,-2.231,-2.231,-2.231,-2.231,-2.231,-2.231,-2.231,-2.231,-2.231,-2.231,-2.231,-2.231,-2.231,-2.231,-2.231,-2.231,-2.231,-2.231,-2.231,-2.231,-2.231,-2.231,-2.231,-2.231,-2.231,-2.231,-2.231,-2.231,-2.231,-2.231,-2.2254,-2.2225,-2.2254,-2.218,-2.2061,-2.2106,-2.2089,-2.1998,-2.1998,-2.1998,-2.1998,-2.1998,-2.1998,-2.1969,-2.1911,-2.1899,-2.2052,-2.2739,-2.251,-2.2394,-2.3437,-2.3437,-2.3305,-2.3603,-2.4265,-2.4779,-2.4779,-2.5193,-2.5789,-2.6501,-2.6385,-2.6568,-2.7595,-2.723,-2.7081,-2.7661,-2.7462,-2.7599,-2.8345,-2.9284,-3.0444,-3.1835,-3.2398,-3.268,-3.268,-3.2431,-3.1835,-3.0874,-3.1312,-3.1328,-3.0858,-3.0626,-3.0526,-3.0526,-3.0526,-3.0707,-3.1057,-3.053,-3.058,-3.104,-3.0385,-2.9984,-2.981,-2.9661,-2.9196,-2.8543,-2.8336,-2.8125,-2.7795,-2.766,-2.7625,-2.7625,-2.5665,-2.4752,-2.4116,-2.4537,-2.341,-2.2564,-2.2895,-2.2586,-2.231,-2.231,-2.231,-2.231,-2.231,-2.231,-2.231,-2.231,-2.231,-2.231,-2.231,-2.231,-2.231,-2.231,-2.231,-2.231,-2.231,-2.231,-2.231,-2.231,-2.231,-2.231,-2.231,-2.231,-2.231,-2.231,-2.231,-2.231,-2.231,-2.231,-2.231,-2.231,-2.231,-2.231,-2.231,-2.231,-2.2282,-2.2225,-2.2282,-2.2237,-2.2118,-2.2209,-2.218,-2.2118,-2.2118,-2.2118,-2.2118,-2.2089,-2.2044,-2.1998,-2.1911,-2.1899,-2.2023,-2.2739,-2.2775,-2.2891,-2.3802,-2.4116,-2.4249,-2.4398,-2.5027,-2.5624,-2.5905,-2.6104,-2.6452,-2.7201,-2.6916,-2.6833,-2.7446,-2.6998,-2.6965,-2.7881,-2.7848,-2.8224,-2.9533,-3.0709,-3.1686,-3.2415,-3.2878,-3.2878,-3.2299,-3.2116,-3.1702,-3.0974,-3.1345,-3.1404,-3.0957,-3.0659,-3.0426,-3.0258,-3.0426,-3.053,-3.0619,-3.0369,-3.0445,-3.0838,-3.0396,-3.0156,-3.007,-3.007,-2.9601,-2.8904,-2.8904,-2.8496,-2.7894,-2.7894,-2.776,-2.7625,-2.5464,-2.4572,-2.3801,-2.3919,-2.3226,-2.2604,-2.2429,-2.2344,-2.231,-2.231,-2.231,-2.231,-2.231,-2.231,-2.231,-2.231,-2.231,-2.231,-2.231,-2.231,-2.231,-2.231,-2.231,-2.231,-2.231,-2.231,-2.231,-2.231,-2.231,-2.231,-2.231,-2.231,-2.231,-2.231,-2.231,-2.231,-2.231,-2.231,-2.231,-2.231,-2.231,-2.231,-2.231,-2.231,-2.231,-2.231,-2.231,-2.231,-2.231,-2.231,-2.231,-2.231,-2.231,-2.231,-2.2282,-2.2214,-2.2106,-2.1998,-2.1911,-2.1869,-2.1993,-2.2708,-2.3454,-2.4017,-2.4083,-2.5143,-2.5938,-2.5325,-2.5789,-2.6501,-2.7201,-2.68,-2.6617,-2.73,-2.735,-2.7085,-2.6402,-2.6866,-2.7334,-2.74,-2.8113,-2.9383,-3.1378,-3.2266,-3.2961,-3.364,-3.3624,-3.3027,-3.1643,-3.2166,-3.2199,-3.1494,-3.1477,-3.1477,-3.1477,-3.0858,-3.03,-2.9897,-3.03,-3.007,-2.9257,-2.9617,-2.9793,-2.9793,-2.975,-2.9941,-3.0284,-3.0284,-3.0027,-2.9617,-2.9617,-2.9042,-2.8255,-2.8255,-2.7978,-2.7625,-2.3284,-2.302,-2.2976,-2.3505,-2.2926,-2.2547,-2.3071,-2.2682,-2.231,-2.231,-2.231,-2.231,-2.231,-2.231,-2.231,-2.231,-2.231,-2.231,-2.231,-2.231,-2.231,-2.231,-2.231,-2.231,-2.231,-2.231,-2.231,-2.231,-2.231,-2.231,-2.231,-2.231,-2.231,-2.231,-2.231,-2.231,-2.231,-2.231,-2.231,-2.231,-2.231,-2.231,-2.231,-2.231,-2.231,-2.231,-2.231,-2.231,-2.231,-2.231,-2.231,-2.231,-2.231,-2.231,-2.2282,-2.2214,-2.2225,-2.2209,-2.1957,-2.194,-2.2095,-2.2739,-2.3454,-2.4149,-2.4729,-2.5127,-2.5475,-2.5889,-2.6551,-2.7098,-2.7284,-2.7628,-2.7959,-2.8146,-2.7699,-2.7251,-2.7101,-2.7218,-2.7533,-2.8097,-2.9284,-3.046,-3.152,-3.2266,-3.2746,-3.2911,-3.2415,-3.1951,-3.1593,-3.1222,-3.0907,-3.0758,-3.0758,-3.0758,-3.0758,-3.0593,-3.0426,-3.0342,-3.0426,-3.0384,-3.0215,-2.9941,-2.9793,-2.9793,-2.9393,-2.9058,-2.8764,-2.8764,-2.848,-2.8091,-2.8091,-2.7944,-2.7745,-2.7745,-2.766,-2.7625,-2.2588,-2.2497,-2.2569,-2.292,-2.2609,-2.2446,-2.2818,-2.2564,-2.231,-2.231,-2.231,-2.231,-2.231,-2.231,-2.231,-2.231,-2.231,-2.231,-2.231,-2.231,-2.231,-2.231,-2.231,-2.231,-2.231,-2.231,-2.231,-2.231,-2.231,-2.231,-2.231,-2.231,-2.231,-2.231,-2.231,-2.231,-2.231,-2.231,-2.231,-2.231,-2.231,-2.231,-2.231,-2.231,-2.231,-2.231,-2.231,-2.231,-2.231,-2.231,-2.231,-2.231,-2.231,-2.231,-2.2282,-2.2214,-2.2225,-2.2225,-2.2015,-2.2237,-2.2651,-2.2962,-2.3847,-2.473,-2.5011,-2.5375,-2.5839,-2.6568,-2.7015,-2.7533,-2.8174,-2.8058,-2.8014,-2.8362,-2.7479,-2.6882,-2.7267,-2.7616,-2.8113,-2.8787,-3.0162,-3.1338,-3.205,-3.2464,-3.2547,-3.2199,-3.1835,-3.1427,-3.1064,-3.0725,-3.0526,-3.0526,-3.0526,-3.0526,-3.0526,-3.0526,-3.0526,-3.0526,-3.0526,-3.0384,-3.0156,-3.0156,-3.0113,-3.0113,-2.9881,-2.9467,-2.9012,-2.9012,-2.8591,-2.7978,-2.8238,-2.7993,-2.7625,-2.7845,-2.7795,-2.7625,-2.2542,-2.246,-2.2405,-2.2405,-2.2338,-2.231,-2.231,-2.231,-2.231,-2.231,-2.231,-2.231,-2.231,-2.231,-2.231,-2.231,-2.231,-2.231,-2.231,-2.231,-2.231,-2.231,-2.231,-2.231,-2.231,-2.231,-2.231,-2.231,-2.231,-2.231,-2.231,-2.231,-2.231,-2.231,-2.231,-2.231,-2.231,-2.231,-2.231,-2.231,-2.231,-2.231,-2.231,-2.231,-2.231,-2.231,-2.231,-2.231,-2.231,-2.231,-2.231,-2.231,-2.231,-2.231,-2.2282,-2.2214,-2.2214,-2.2231,-2.2212,-2.2714,-2.3268,-2.3536,-2.4508,-2.5397,-2.5328,-2.5791,-2.6438,-2.7168,-2.7417,-2.786,-2.9168,-2.8439,-2.7831,-2.8345,-2.7263,-2.6601,-2.7218,-2.7947,-2.8638,-2.9334,-3.0725,-3.1851,-3.2448,-3.2497,-3.2216,-3.1487,-3.1394,-3.1172,-3.0543,-3.0526,-3.0526,-3.0526,-3.0526,-3.0526,-3.0526,-3.0526,-3.0526,-3.0526,-3.0526,-3.03,-2.9941,-3.0241,-3.0384,-3.0384,-3.03,-3.0027,-2.9661,-2.9661,-2.9196,-2.8496,-2.8842,-2.8463,-2.776,-2.8076,-2.7929,-2.7625,-2.2579,-2.2487,-2.2405,-2.2405,-2.2338,-2.231,-2.231,-2.231,-2.231,-2.231,-2.231,-2.231,-2.231,-2.231,-2.231,-2.231,-2.231,-2.231,-2.231,-2.231,-2.231,-2.231,-2.231,-2.231,-2.231,-2.231,-2.231,-2.231,-2.231,-2.231,-2.231,-2.231,-2.231,-2.231,-2.231,-2.231,-2.231,-2.231,-2.231,-2.231,-2.231,-2.231,-2.231,-2.231,-2.231,-2.231,-2.231,-2.231,-2.231,-2.231,-2.231,-2.231,-2.231,-2.231,-2.2282,-2.2214,-2.2225,-2.2406,-2.2912,-2.3164,-2.3563,-2.4793,-2.5262,-2.5581,-2.6149,-2.628,-2.6512,-2.7208,-2.7852,-2.8472,-2.9268,-2.9251,-2.8969,-2.8456,-2.7715,-2.7201,-2.73,-2.7947,-2.8638,-2.9334,-3.0725,-3.1626,-3.1769,-3.1769,-3.1454,-3.0725,-3.0659,-3.0626,-3.0526,-3.0526,-3.0526,-3.0526,-3.0526,-3.0526,-3.0526,-3.0526,-3.0526,-3.0526,-3.0526,-3.0485,-3.0384,-3.007,-2.9881,-2.9897,-2.9483,-2.9257,-2.9212,-2.9212,-2.912,-2.8935,-2.8543,-2.8352,-2.8158,-2.7845,-2.766,-2.7625,-2.2515,-2.2432,-2.2377,-2.2366,-2.231,-2.231,-2.231,-2.231,-2.231,-2.231,-2.231,-2.231,-2.231,-2.231,-2.231,-2.231,-2.231,-2.231,-2.231,-2.231,-2.231,-2.231,-2.231,-2.231,-2.231,-2.231,-2.231,-2.231,-2.231,-2.231,-2.231,-2.231,-2.231,-2.231,-2.231,-2.231,-2.231,-2.231,-2.231,-2.231,-2.231,-2.231,-2.231,-2.231,-2.231,-2.231,-2.231,-2.231,-2.231,-2.231,-2.231,-2.231,-2.231,-2.231,-2.2282,-2.2254,-2.2282,-2.2451,-2.3119,-2.3637,-2.4211,-2.5259,-2.5831,-2.6219,-2.6539,-2.6555,-2.6751,-2.7794,-2.8256,-2.8782,-2.9831,-2.9698,-2.9185,-2.8489,-2.8146,-2.7931,-2.7931,-2.8853,-2.9847,-3.0518,-3.0815,-3.1007,-3.1007,-3.1007,-3.0874,-3.0501,-3.0526,-3.0526,-3.0526,-3.0526,-3.0526,-3.0526,-3.0526,-3.0526,-3.0526,-3.0526,-3.0526,-3.0526,-3.0526,-3.0526,-3.0468,-3.03,-3.0199,-3.0156,-2.9984,-2.9705,-2.9483,-2.9483,-2.9348,-2.9074,-2.8842,-2.8732,-2.8732,-2.8511,-2.8415,-2.8415]}]]